[[{"header":{"parameterUnit":"m.s-1","parameterCategory":1,"la1":30.6,"la2":29.2853,"lo1":-89.7004,"lo2":-87.6739,"dy":0.0162,"dx":0.0183,"nx":112,"ny":82,"refTime":"2023-08-02T18:00:00:Z","depth":0,"parameterNumber":2,"parameterNumberName":"U-component_of_WINDS"},"data":[0.0,0.0,0.0,0.0,0.0,0.0,0.0,0.0,0.0,0.0,0.0,0.0,0.0,0.0,0.0,0.0,0.0,0.0,0.0,0.0,0.0,0.0,0.0,0.0,0.0,0.0,0.0,0.0,0.0,0.0,0.0,0.0,0.0,0.0,0.0,0.0,0.0,0.0,0.0,0.0,0.0,0.0,0.0,0.0,0.0,0.0,0.0,0.0,0.0,0.0,0.0,0.0,0.0,0.0,0.0,0.0,0.0,0.0,0.0,0.0,0.0,0.0,0.0,0.0,0.0,0.0,0.0,0.0,0.0,0.0,0.0,0.0,0.0,0.0,0.0,0.0,0.0,0.0,0.0,0.0,0.0,0.0,0.0,0.0,0.0,0.0,0.0,0.0,0.0,0.0,-2.8219,-3.1066,-3.6534,-4.0111,-4.0473,-3.9151,-3.6241,-3.1411,0.0,0.0,0.0,0.0,0.0,0.0,0.0,0.0,0.0,0.0,0.0,0.0,0.0,0.0,0.0,0.0,0.0,0.0,0.0,0.0,0.0,0.0,0.0,0.0,0.0,0.0,0.0,0.0,0.0,0.0,0.0,0.0,0.0,0.0,0.0,0.0,0.0,0.0,0.0,0.0,0.0,0.0,0.0,0.0,0.0,0.0,0.0,0.0,0.0,0.0,0.0,0.0,0.0,0.0,0.0,0.0,0.0,0.0,0.0,0.0,0.0,0.0,0.0,0.0,0.0,0.0,0.0,0.0,0.0,0.0,0.0,0.0,0.0,0.0,0.0,0.0,0.0,0.0,0.0,0.0,0.0,0.0,0.0,0.0,0.0,0.0,0.0,0.0,0.0,0.0,0.0,0.0,0.0,0.0,0.0,0.0,0.0,0.0,0.0,0.0,0.0,0.0,0.0,0.0,-2.9265,-3.4665,-3.8544,-4.0675,-4.0497,-3.7784,-3.4801,-3.1764,0.0,0.0,0.0,0.0,0.0,0.0,0.0,0.0,0.0,0.0,0.0,0.0,0.0,0.0,0.0,0.0,0.0,0.0,0.0,0.0,0.0,0.0,0.0,0.0,0.0,0.0,0.0,0.0,0.0,0.0,0.0,0.0,0.0,0.0,0.0,0.0,0.0,0.0,0.0,0.0,0.0,0.0,0.0,0.0,0.0,0.0,0.0,0.0,0.0,0.0,0.0,0.0,0.0,0.0,0.0,0.0,0.0,0.0,0.0,0.0,0.0,0.0,0.0,0.0,0.0,0.0,0.0,0.0,0.0,0.0,0.0,0.0,0.0,0.0,0.0,0.0,0.0,0.0,0.0,0.0,0.0,0.0,0.0,0.0,0.0,0.0,0.0,0.0,0.0,0.0,0.0,0.0,0.0,0.0,0.0,0.0,0.0,0.0,0.0,0.0,0.0,0.0,0.0,-2.8526,-3.1657,-3.68,-3.9474,-4.0817,-4.0624,-3.7745,-3.4723,-3.1935,-2.9592,0.0,0.0,0.0,0.0,0.0,0.0,0.0,0.0,0.0,0.0,0.0,0.0,0.0,0.0,0.0,0.0,0.0,0.0,0.0,0.0,0.0,0.0,0.0,0.0,0.0,0.0,0.0,0.0,0.0,0.0,0.0,0.0,0.0,0.0,0.0,0.0,0.0,0.0,0.0,0.0,0.0,0.0,0.0,0.0,0.0,0.0,0.0,0.0,0.0,0.0,0.0,0.0,0.0,0.0,0.0,0.0,0.0,0.0,0.0,0.0,0.0,0.0,0.0,0.0,0.0,0.0,0.0,0.0,0.0,0.0,0.0,0.0,0.0,0.0,0.0,0.0,0.0,0.0,0.0,0.0,0.0,0.0,0.0,0.0,0.0,0.0,0.0,0.0,0.0,0.0,0.0,0.0,0.0,0.0,0.0,0.0,0.0,0.0,0.0,0.0,0.0,0.0,-3.1259,-3.3692,-3.7938,-3.991,-4.0778,-4.0487,-3.7686,-3.4702,-3.1731,-2.8595,0.0,0.0,0.0,0.0,0.0,0.0,0.0,0.0,0.0,0.0,0.0,0.0,0.0,0.0,0.0,0.0,0.0,0.0,0.0,0.0,0.0,0.0,0.0,0.0,0.0,0.0,0.0,0.0,0.0,0.0,0.0,0.0,0.0,0.0,0.0,0.0,0.0,0.0,0.0,0.0,0.0,0.0,0.0,0.0,0.0,0.0,0.0,0.0,0.0,0.0,0.0,0.0,0.0,0.0,0.0,0.0,0.0,0.0,0.0,0.0,0.0,0.0,0.0,0.0,0.0,0.0,0.0,0.0,0.0,0.0,0.0,0.0,0.0,0.0,0.0,0.0,0.0,0.0,0.0,0.0,0.0,0.0,0.0,0.0,0.0,0.0,0.0,0.0,0.0,0.0,0.0,0.0,0.0,0.0,0.0,0.0,0.0,0.0,0.0,0.0,0.0,0.0,-3.1399,-3.426,-3.799,-3.991,-4.0578,-3.9836,-3.7008,-3.3973,-3.0973,-2.7869,0.0,0.0,0.0,0.0,0.0,0.0,0.0,0.0,0.0,0.0,0.0,0.0,0.0,0.0,0.0,0.0,0.0,0.0,0.0,0.0,0.0,0.0,0.0,0.0,0.0,0.0,0.0,0.0,0.0,0.0,0.0,0.0,0.0,0.0,0.0,0.0,0.0,0.0,0.0,0.0,0.0,0.0,0.0,0.0,0.0,0.0,0.0,0.0,0.0,0.0,0.0,0.0,0.0,0.0,0.0,0.0,0.0,0.0,0.0,0.0,0.0,0.0,0.0,0.0,0.0,0.0,0.0,0.0,0.0,0.0,0.0,0.0,0.0,0.0,0.0,0.0,0.0,0.0,0.0,0.0,0.0,0.0,0.0,0.0,0.0,0.0,0.0,0.0,0.0,0.0,0.0,0.0,0.0,0.0,0.0,0.0,0.0,0.0,0.0,0.0,0.0,0.0,-3.0911,-3.3502,0.0,-3.8688,-3.925,-3.9026,-3.6232,-3.3404,-3.0851,0.0,0.0,0.0,0.0,0.0,0.0,0.0,0.0,0.0,0.0,0.0,0.0,0.0,0.0,0.0,0.0,0.0,0.0,0.0,0.0,0.0,0.0,0.0,0.0,0.0,0.0,0.0,0.0,0.0,0.0,0.0,0.0,0.0,0.0,0.0,0.0,0.0,0.0,0.0,0.0,0.0,0.0,0.0,0.0,0.0,0.0,0.0,0.0,0.0,0.0,0.0,0.0,0.0,0.0,0.0,0.0,0.0,0.0,0.0,0.0,0.0,0.0,0.0,0.0,0.0,0.0,0.0,0.0,0.0,0.0,0.0,0.0,0.0,0.0,0.0,0.0,0.0,0.0,0.0,0.0,0.0,0.0,0.0,0.0,0.0,0.0,0.0,0.0,0.0,0.0,0.0,0.0,0.0,0.0,0.0,0.0,0.0,0.0,0.0,0.0,0.0,0.0,-2.9283,-3.1031,-3.3328,0.0,-3.7956,-3.8236,-3.7878,-3.5315,-3.2645,-3.0127,0.0,0.0,0.0,0.0,0.0,0.0,0.0,0.0,0.0,0.0,0.0,0.0,0.0,0.0,0.0,0.0,0.0,0.0,0.0,0.0,0.0,0.0,0.0,0.0,0.0,0.0,0.0,0.0,0.0,0.0,0.0,0.0,0.0,0.0,0.0,0.0,0.0,0.0,0.0,0.0,0.0,0.0,0.0,0.0,0.0,0.0,0.0,0.0,0.0,0.0,0.0,0.0,0.0,0.0,0.0,0.0,0.0,0.0,0.0,0.0,0.0,0.0,0.0,0.0,0.0,0.0,0.0,0.0,0.0,0.0,0.0,0.0,0.0,0.0,0.0,0.0,0.0,0.0,0.0,0.0,0.0,0.0,0.0,0.0,0.0,0.0,0.0,0.0,0.0,0.0,0.0,0.0,0.0,0.0,0.0,0.0,0.0,0.0,0.0,0.0,0.0,0.0,-3.0282,-3.1972,-3.4019,-3.6942,-3.7921,-3.7767,-3.6307,-3.4152,-3.1591,0.0,0.0,0.0,0.0,0.0,0.0,0.0,0.0,0.0,0.0,0.0,0.0,0.0,0.0,0.0,0.0,0.0,0.0,0.0,0.0,0.0,0.0,0.0,0.0,0.0,0.0,0.0,0.0,0.0,0.0,0.0,0.0,0.0,0.0,0.0,0.0,0.0,0.0,0.0,0.0,0.0,0.0,0.0,0.0,0.0,0.0,0.0,0.0,0.0,0.0,0.0,0.0,0.0,0.0,0.0,0.0,0.0,0.0,0.0,0.0,0.0,0.0,0.0,0.0,0.0,0.0,0.0,0.0,0.0,0.0,0.0,0.0,0.0,0.0,0.0,0.0,0.0,0.0,0.0,0.0,0.0,0.0,0.0,0.0,0.0,0.0,0.0,0.0,0.0,0.0,0.0,0.0,0.0,0.0,0.0,0.0,0.0,0.0,0.0,0.0,0.0,0.0,0.0,-2.9437,-3.0994,-3.284,-3.541,-3.5856,-3.5864,-3.5518,-3.2992,-3.0559,-2.8523,0.0,0.0,0.0,0.0,0.0,0.0,0.0,0.0,0.0,0.0,0.0,0.0,0.0,0.0,0.0,0.0,0.0,0.0,0.0,0.0,0.0,0.0,0.0,0.0,0.0,0.0,0.0,0.0,0.0,0.0,0.0,0.0,0.0,0.0,0.0,0.0,0.0,0.0,0.0,0.0,0.0,0.0,0.0,0.0,0.0,0.0,0.0,0.0,0.0,0.0,0.0,0.0,0.0,0.0,0.0,0.0,0.0,0.0,0.0,0.0,0.0,0.0,0.0,0.0,0.0,0.0,0.0,0.0,0.0,0.0,0.0,0.0,0.0,0.0,0.0,0.0,0.0,0.0,0.0,0.0,0.0,0.0,0.0,0.0,0.0,0.0,0.0,0.0,0.0,0.0,0.0,0.0,0.0,0.0,0.0,0.0,0.0,0.0,0.0,0.0,0.0,0.0,-2.9627,-3.0876,-3.2449,-3.4758,-3.4998,-3.4899,-3.4705,-3.2248,-3.0058,-2.8506,0.0,0.0,0.0,0.0,0.0,0.0,0.0,0.0,0.0,0.0,0.0,0.0,0.0,0.0,0.0,0.0,0.0,0.0,0.0,0.0,0.0,0.0,0.0,0.0,0.0,0.0,0.0,0.0,0.0,0.0,0.0,0.0,0.0,0.0,0.0,0.0,0.0,0.0,0.0,0.0,0.0,0.0,0.0,0.0,0.0,0.0,0.0,0.0,0.0,0.0,0.0,0.0,0.0,0.0,0.0,0.0,0.0,0.0,0.0,0.0,0.0,0.0,0.0,0.0,0.0,0.0,0.0,0.0,0.0,0.0,0.0,0.0,0.0,0.0,0.0,0.0,0.0,0.0,0.0,0.0,0.0,0.0,0.0,0.0,0.0,0.0,0.0,0.0,0.0,0.0,0.0,0.0,0.0,0.0,0.0,0.0,0.0,0.0,0.0,0.0,0.0,0.0,-3.03,-3.1351,-3.2641,-3.4589,-3.4864,-3.4624,-3.3868,-3.1777,-2.9903,-2.8489,0.0,0.0,0.0,0.0,0.0,0.0,0.0,0.0,0.0,0.0,0.0,0.0,0.0,0.0,0.0,0.0,0.0,0.0,0.0,0.0,0.0,0.0,0.0,0.0,0.0,0.0,0.0,0.0,0.0,0.0,0.0,0.0,0.0,0.0,0.0,0.0,0.0,0.0,0.0,0.0,0.0,0.0,0.0,0.0,0.0,0.0,0.0,0.0,0.0,0.0,0.0,0.0,0.0,0.0,0.0,0.0,0.0,0.0,0.0,0.0,-3.098,0.0,0.0,0.0,0.0,0.0,0.0,0.0,0.0,0.0,0.0,0.0,0.0,0.0,0.0,0.0,0.0,0.0,0.0,0.0,0.0,0.0,0.0,0.0,0.0,0.0,0.0,0.0,0.0,0.0,0.0,0.0,0.0,0.0,0.0,0.0,0.0,0.0,0.0,0.0,0.0,0.0,-2.961,-3.14,-3.2775,-3.3296,-3.3919,-3.397,-3.3175,-3.1094,-2.9419,-2.8454,-2.7014,0.0,0.0,0.0,0.0,0.0,0.0,0.0,0.0,0.0,0.0,0.0,0.0,0.0,0.0,0.0,0.0,0.0,0.0,0.0,0.0,0.0,0.0,0.0,0.0,0.0,0.0,0.0,0.0,0.0,0.0,0.0,0.0,0.0,0.0,0.0,0.0,0.0,0.0,0.0,0.0,0.0,0.0,0.0,0.0,0.0,0.0,0.0,0.0,0.0,0.0,0.0,0.0,0.0,0.0,0.0,0.0,0.0,0.0,0.0,0.0,-3.2301,0.0,0.0,0.0,0.0,0.0,0.0,0.0,0.0,0.0,0.0,0.0,0.0,0.0,0.0,0.0,0.0,0.0,0.0,0.0,0.0,0.0,0.0,0.0,0.0,0.0,0.0,0.0,0.0,0.0,0.0,0.0,0.0,0.0,0.0,0.0,0.0,0.0,0.0,0.0,0.0,-2.9437,-3.1143,-3.2469,-3.2869,-3.3266,-3.3352,-3.2938,-3.0853,-2.9368,-2.8954,-2.7191,0.0,0.0,0.0,0.0,0.0,0.0,0.0,0.0,0.0,0.0,0.0,0.0,0.0,0.0,0.0,0.0,0.0,0.0,0.0,0.0,0.0,0.0,0.0,0.0,0.0,0.0,0.0,0.0,0.0,0.0,0.0,0.0,0.0,0.0,0.0,0.0,0.0,0.0,0.0,0.0,0.0,0.0,0.0,0.0,0.0,0.0,0.0,0.0,0.0,0.0,0.0,0.0,0.0,-3.7964,-3.8695,-3.9557,-3.9557,-3.9585,-3.9455,-3.6809,-3.4966,-3.3875,-3.2998,0.0,0.0,0.0,0.0,0.0,0.0,0.0,0.0,0.0,0.0,0.0,0.0,0.0,0.0,0.0,0.0,0.0,0.0,0.0,0.0,0.0,0.0,0.0,0.0,-3.4473,-3.3955,0.0,0.0,0.0,0.0,0.0,0.0,0.0,0.0,0.0,0.0,0.0,0.0,-2.9713,-3.1162,-3.2317,-3.2662,-3.2955,-3.3007,-3.2731,-3.0748,-2.9523,-2.9523,-2.7522,-2.6262,0.0,0.0,0.0,0.0,0.0,0.0,0.0,0.0,0.0,0.0,0.0,0.0,0.0,0.0,0.0,0.0,0.0,0.0,0.0,0.0,0.0,0.0,0.0,0.0,0.0,0.0,0.0,0.0,0.0,0.0,0.0,0.0,-3.0986,-3.0272,0.0,0.0,0.0,0.0,0.0,0.0,0.0,0.0,0.0,0.0,0.0,0.0,0.0,-3.6816,-3.7739,-3.9928,-4.0836,-4.0463,-4.2876,-4.3666,-4.3038,-4.3038,-4.3116,-4.316,-4.2169,0.0,-3.5961,-3.537,0.0,0.0,0.0,0.0,0.0,0.0,0.0,0.0,0.0,0.0,0.0,0.0,0.0,0.0,0.0,0.0,0.0,0.0,0.0,0.0,0.0,0.0,-3.4995,-3.5814,-3.6008,-3.5921,0.0,-3.3507,-3.1438,-3.0679,-3.0058,0.0,0.0,0.0,0.0,0.0,0.0,0.0,-3.0524,-3.2457,-3.3337,-3.2076,-3.3128,-3.3386,-3.2059,-3.0508,-2.9591,-2.9591,-2.8103,-2.6924,-2.6229,-2.6036,0.0,0.0,0.0,0.0,0.0,0.0,0.0,0.0,0.0,0.0,0.0,0.0,0.0,0.0,0.0,0.0,0.0,0.0,0.0,0.0,0.0,0.0,0.0,0.0,0.0,0.0,0.0,0.0,0.0,-3.1495,-3.2169,-3.1035,-3.1929,-3.2242,0.0,0.0,0.0,0.0,0.0,0.0,0.0,0.0,0.0,-3.9139,-4.0346,-4.121,-4.1729,-4.3031,-4.394,-4.4494,-4.5685,-4.6398,-4.6698,-4.6698,-4.6716,-4.6736,-4.6054,-4.4221,-4.1462,-3.864,-3.6664,-3.5333,0.0,0.0,0.0,0.0,-3.4816,-3.523,-3.5644,-3.5993,0.0,-3.4925,0.0,0.0,0.0,0.0,0.0,0.0,0.0,0.0,0.0,0.0,-3.6145,-3.6945,-3.7379,-3.7698,-3.8112,-3.6508,-3.4645,0.0,-3.2938,-3.2281,-3.0899,0.0,0.0,0.0,0.0,-3.1317,-3.1317,-3.2541,-3.3162,-3.249,-3.3024,-3.2972,-3.1886,-3.0835,-3.0041,-2.9643,-2.8223,-2.7267,-2.6946,-2.6024,-2.5622,0.0,0.0,0.0,0.0,0.0,0.0,0.0,0.0,0.0,0.0,0.0,0.0,0.0,0.0,0.0,0.0,0.0,0.0,0.0,0.0,0.0,0.0,0.0,0.0,0.0,0.0,0.0,0.0,-3.2479,-3.3512,-3.1726,-3.3601,-3.4244,0.0,0.0,0.0,0.0,0.0,0.0,-3.9146,-4.0001,-4.1293,-4.3297,-4.4494,-4.5287,-4.5691,-4.6241,-4.7056,-4.8117,-4.8262,-4.8757,-4.9564,-4.9386,-4.9269,-4.9256,-4.8612,-4.761,-4.6086,-4.1899,-3.9417,-3.8117,-3.6651,-3.6282,-3.6605,-3.6771,-3.7275,-3.7945,-3.8335,-3.8745,-3.8813,-3.7342,0.0,-3.5462,-3.3315,0.0,0.0,0.0,0.0,-3.3611,-3.4574,-3.5852,-3.7107,-3.7959,-3.8564,-3.9118,-3.9667,-3.9021,-3.7858,0.0,-3.5456,-3.4573,-3.2565,0.0,0.0,0.0,0.0,-3.2162,-3.2352,-3.3024,-3.3335,-3.2938,-3.3076,-3.2835,-3.1869,-3.1128,-3.0421,-2.9694,-2.8428,-2.766,-2.7526,-2.6373,-2.6107,-2.6939,0.0,0.0,0.0,0.0,0.0,0.0,0.0,0.0,0.0,0.0,0.0,0.0,0.0,0.0,0.0,0.0,0.0,0.0,0.0,0.0,0.0,0.0,0.0,0.0,0.0,0.0,0.0,0.0,0.0,-3.1659,-3.577,0.0,0.0,0.0,0.0,-3.7954,-3.9272,-4.0713,-4.2191,-4.2969,-4.4092,-4.5582,-4.6847,-4.7952,-4.8845,-5.0098,-5.0629,-5.0533,-5.1237,-5.1377,-5.1054,-5.0357,-5.005,-5.0001,-4.9486,-4.8809,-4.783,-4.4854,-4.2958,-4.1782,-4.0379,-4.0331,-4.0922,-3.9603,-3.9489,-3.9863,-3.9411,-3.9265,-3.9255,-3.9183,-3.7946,-3.6284,-3.4973,-3.4058,0.0,0.0,-3.4563,-3.5331,-3.6767,-3.7544,-3.8136,-3.895,-3.9545,-3.9952,-3.9977,-4.038,-4.0066,0.0,-3.6201,-3.4938,-3.4111,0.0,-3.2817,-3.2748,-3.28,-3.3128,-3.3889,-3.4628,-3.4525,-3.3059,-3.3576,-3.344,-3.1921,-3.1182,-3.0508,-2.9829,-2.8994,-2.826,-2.7622,-2.7457,-2.738,-2.7376,-2.6938,0.0,0.0,0.0,0.0,0.0,0.0,0.0,0.0,0.0,0.0,0.0,0.0,0.0,0.0,0.0,0.0,0.0,0.0,0.0,0.0,0.0,0.0,0.0,0.0,0.0,0.0,0.0,0.0,-3.7256,-4.032,0.0,-4.02,-4.0619,-4.1375,-4.2303,-4.3297,-4.4721,-4.6659,-4.7901,-4.921,-5.0651,-5.1484,-5.204,-5.2373,-5.2146,-5.1978,-5.1834,-5.158,-5.1333,-5.1167,-5.0924,-5.0795,-5.0795,-5.061,-5.0111,-4.9365,-4.8448,-4.6584,-4.4198,-4.2884,-4.253,-4.2754,-4.227,-4.2489,-4.2943,-4.2204,-4.1853,-4.1477,-3.9883,-3.8168,-3.6635,-3.6174,-3.5466,-3.4888,-3.5473,-3.6121,-3.6864,-3.782,-3.8479,-3.8965,-3.9271,-3.9402,-3.9584,-3.9927,-4.017,-4.0212,-3.9772,-3.8444,-3.6835,-3.5114,-3.4559,-3.4042,-3.3059,-3.3335,-3.3938,-3.4717,-3.5025,-3.499,-3.4438,-3.4197,-3.3662,-3.2593,-3.1836,-3.0975,-2.9863,-2.8997,-2.8263,-2.7677,-2.7024,-2.6916,-2.745,-2.7249,-2.6625,0.0,0.0,0.0,0.0,0.0,0.0,0.0,0.0,0.0,0.0,0.0,0.0,0.0,0.0,0.0,0.0,0.0,0.0,0.0,0.0,0.0,0.0,0.0,0.0,0.0,0.0,-4.1696,-4.1823,-4.4745,-4.6218,-4.484,-4.5185,-4.5781,-4.6493,-4.7454,-4.8763,-5.0469,-5.1479,-5.2539,-5.3748,-5.4059,-5.4211,-5.419,-5.3444,-5.2878,-5.2584,-5.194,-5.1523,-5.1312,-5.1221,-5.1183,-5.1183,-5.1183,-5.0908,-5.0492,-5.0416,-4.902,-4.675,-4.5478,-4.4962,-4.4944,-4.4509,-4.4773,-4.5225,-4.4483,-4.3871,-4.3133,-4.1154,-3.9484,-3.8131,-3.7552,-3.7105,-3.6832,-3.704,-3.7622,-3.827,-3.8728,-3.9129,-3.9443,-3.9443,-3.954,-3.9688,-4.0012,-4.0238,-4.0425,-4.0576,-3.972,-3.8405,-3.6646,-3.5904,-3.5318,-3.4559,-3.4456,-3.4855,-3.5835,-3.5732,-3.5473,-3.5214,-3.4749,-3.4024,-3.299,-3.2455,-3.1579,-3.023,-2.9347,-2.8615,-2.8032,-2.713,-2.6898,-2.745,-2.7602,-2.6993,-2.5613,0.0,0.0,0.0,0.0,0.0,0.0,0.0,0.0,0.0,0.0,0.0,0.0,0.0,0.0,0.0,0.0,0.0,0.0,0.0,0.0,0.0,0.0,0.0,-3.8351,-4.2104,-4.4854,-4.492,-4.8763,-5.0286,-4.7438,-4.9756,-5.1148,-5.0436,-5.1711,-5.2804,-5.345,-5.3463,-5.3811,-5.4523,-5.4369,-5.4255,-5.4255,-5.4028,-5.3558,-5.2875,-5.2617,-5.2129,-5.1548,-5.1312,-5.1183,-5.1183,-5.1183,-5.1183,-5.1172,-5.066,-5.0125,-4.9501,-4.8213,-4.7721,-4.7573,-4.6314,-4.6183,-4.6551,-4.6,-4.5133,-4.4049,-4.3035,-4.1993,-4.0814,-3.909,-3.9013,-3.936,-3.8728,-3.9029,-3.9534,-3.9534,-3.9534,-3.9534,-3.9534,-3.9967,-4.031,-4.0232,-4.0628,-4.0839,-4.0155,-3.9884,-3.9491,-3.8727,-3.7387,-3.6663,-3.7426,-3.6253,0.0,-3.7323,-3.6801,-3.6025,-3.5301,-3.5214,-3.4576,-3.3076,-3.2921,-3.2284,-3.0889,-3.0076,-2.933,-2.8663,-2.7948,-2.7537,-2.7478,-2.8073,-2.7893,-2.686,0.0,0.0,0.0,0.0,0.0,0.0,0.0,0.0,0.0,0.0,0.0,0.0,0.0,0.0,0.0,0.0,0.0,0.0,0.0,0.0,0.0,0.0,-4.2109,-4.2109,-4.5326,-4.8332,-5.0071,-5.2613,-5.3948,-5.3265,-5.4427,-5.4908,-5.4158,-5.499,-5.5355,-5.4986,-5.5352,-5.5655,-5.5853,-5.5831,-5.5653,-5.5338,-5.4933,-5.4518,-5.415,-5.2898,-5.2275,-5.2281,-5.1539,-5.1183,-5.1183,-5.1183,-5.1183,-5.1205,-5.1345,-5.069,-4.9515,-4.8806,-4.8249,-4.7886,-4.7505,-4.7092,-4.6634,-4.6355,-4.5538,-4.4464,-4.3428,-4.2446,-4.147,-4.0357,-3.9787,-3.9455,-3.9281,-3.974,-4.0293,-4.0293,-4.0293,-4.0293,-4.0293,-3.9643,-3.9241,-4.0033,-3.996,-3.993,-4.051,-4.0627,-4.0208,-3.9017,-3.8774,-3.8646,-3.8336,-3.7495,0.0,-3.7461,-3.6801,-3.6211,-3.5937,-3.5404,-3.4661,-3.3699,-3.3132,-3.2262,-3.0889,-3.056,-3.0127,-2.9498,-2.914,-2.8936,-2.8919,-2.8592,-2.8407,0.0,0.0,0.0,0.0,0.0,0.0,0.0,0.0,0.0,0.0,0.0,0.0,0.0,0.0,0.0,0.0,0.0,0.0,0.0,0.0,0.0,0.0,-4.3479,-4.598,-4.7471,-4.9456,-5.1721,-5.4345,-5.5676,-5.6514,-5.6923,-5.7376,-5.7442,-5.7028,-5.7094,-5.6939,-5.6409,-5.6475,-5.6502,-5.6385,-5.6307,-5.6165,-5.5943,-5.5422,-5.5024,-5.4675,-5.3285,-5.2643,-5.2541,-5.162,-5.1183,0.0,-5.1296,-5.135,-5.1317,-5.1341,-5.07,0.0,0.0,0.0,0.0,0.0,-4.7671,-4.7226,-4.7111,-4.6257,-4.511,-4.4475,-4.3532,-4.2451,-4.1337,-4.0941,-4.0719,-4.0135,-4.0467,-4.102,-4.102,-4.102,-4.102,-4.102,-4.0388,-3.9974,-4.0567,-4.0193,-3.988,-4.0493,-4.0557,0.0,-3.9511,-3.9559,-3.9664,-3.9583,-3.8392,-3.7616,-3.7927,-3.6991,-3.628,-3.6251,-3.5838,-3.5253,-3.4513,-3.3773,0.0,0.0,0.0,-3.0387,-2.9711,-2.9557,0.0,0.0,0.0,-2.9489,-2.9706,0.0,0.0,0.0,-2.99,-2.985,0.0,0.0,0.0,0.0,0.0,0.0,0.0,0.0,0.0,0.0,0.0,0.0,0.0,0.0,0.0,0.0,-4.7189,-4.9939,-5.3417,-5.398,-5.4941,-5.7376,-5.7889,-5.8237,-5.8734,-5.8999,-5.9082,-5.8916,-5.8313,-5.7893,-5.7529,0.0,0.0,0.0,0.0,-5.6128,-5.6046,-5.5629,-5.5239,-5.4805,-5.3853,-5.3123,-5.2623,-5.1718,-5.1286,-5.1221,-5.1424,-5.1515,-5.145,-5.1017,-5.0528,-5.0045,-4.9986,-4.916,-4.8001,-4.8001,-4.8001,-4.8001,-4.8001,0.0,0.0,-4.581,-4.4887,-4.3577,-4.2115,-4.2113,-4.2366,-4.1067,-4.113,-4.1588,-4.1588,-4.1588,-4.1588,-4.1588,-4.1525,-4.1435,-4.1318,-4.0776,-4.0242,-4.01,-4.0029,-4.0003,-4.0003,-3.9918,-4.0077,-4.0791,-3.91,-3.7961,-3.8525,-3.7318,-3.6404,-3.6297,0.0,0.0,-3.5228,-3.4507,-3.3768,-3.2974,-3.1629,-3.0525,-2.9799,-2.9782,-2.9765,-2.9765,-3.0455,-3.0817,-3.0835,-3.1472,-3.18,-3.1765,-3.0403,-2.9765,0.0,0.0,0.0,0.0,0.0,0.0,0.0,0.0,0.0,0.0,0.0,0.0,0.0,0.0,0.0,-4.7703,-5.1065,-5.4129,-5.6597,-5.7458,-5.7608,-5.6978,-5.8485,-5.9164,-5.8104,-5.9628,-6.0191,-5.8982,-5.9135,-5.8813,-5.7777,-5.7682,-5.7184,-5.6198,-5.6466,-5.6279,-5.5548,-5.5645,-5.5677,-5.5571,0.0,0.0,-5.3586,-5.2508,-5.1777,-5.1424,-5.1462,-5.1424,-5.1296,-5.1683,-5.1515,-5.0848,-4.9127,-4.8249,-4.8001,-4.8001,-4.8001,-4.8001,-4.8001,-4.7704,-4.7127,-4.58,-4.5098,-4.4414,-4.2558,-4.2108,0.0,-4.1576,-4.1494,-4.1588,-4.1588,-4.1588,-4.1588,-4.1588,-4.1178,-4.0753,-4.0609,-4.0078,-3.9568,-3.9418,-3.972,-4.0003,-4.0003,-4.0363,-4.0722,-4.0877,-3.9957,-3.9112,-3.8646,-3.7823,-3.7004,-3.6298,-3.6208,-3.5899,-3.5108,-3.4395,-3.3753,-3.3105,-3.2278,-3.1706,-3.1443,-3.1443,-3.1425,-3.1351,-3.1507,-3.1576,-3.1576,-3.1731,-3.18,-3.1783,-3.1489,-3.1351,0.0,0.0,0.0,0.0,0.0,0.0,0.0,0.0,0.0,0.0,0.0,-4.258,0.0,0.0,-4.974,-5.3417,-5.5521,-5.7227,-5.8684,-5.9844,-5.9993,-5.8518,-5.933,-5.986,-5.9496,-6.0125,-6.0241,-5.9512,-5.9308,-5.8896,-5.8032,-5.7814,-5.7323,-5.6466,-5.667,-5.6426,-5.5604,-5.5962,-5.5962,-5.5588,-5.477,-5.4136,-5.3584,-5.2643,-5.1907,-5.135,-5.1462,-5.1424,-5.1355,-5.1474,-5.1237,-5.0601,-4.9127,-4.8547,-4.8514,-4.815,-4.8001,-4.8001,-4.8001,-4.782,-4.7406,-4.6618,-4.593,-4.521,-4.4184,-4.3652,-4.3346,-4.29,-4.2612,-4.2342,-4.2192,-4.1873,-4.1588,-4.1588,-4.158,-4.1485,-4.1086,-4.0658,-4.0332,-4.0222,-4.0096,-4.0095,-4.041,-4.071,-4.0912,-4.0912,-4.0215,-3.9422,-3.8681,-3.7961,-3.718,-3.6341,-3.6255,-3.6079,-3.5683,-3.5001,-3.4303,-3.3636,-3.2971,-3.2537,-3.2409,-3.2084,-3.1875,-3.18,-3.18,-3.1837,-3.1839,-3.1839,-3.1839,-3.1839,-3.1911,-3.191,0.0,0.0,0.0,0.0,0.0,0.0,0.0,0.0,-4.1917,-4.373,-4.5545,-4.7785,-5.0953,-5.271,-5.4841,-5.8518,-5.9231,-5.9529,-6.0125,-6.1102,-6.1318,-6.0142,-6.0125,-6.034,-6.0655,-6.0217,-5.9911,-5.9911,-5.9456,-5.8897,-5.8314,-5.8076,-5.7593,-5.689,-5.6897,-5.6653,-5.5954,-5.6156,-5.5992,-5.5409,-5.4859,-5.4146,-5.3344,-5.2689,-5.1999,-5.1258,-5.1387,-5.1499,-5.154,-5.128,-5.082,-5.0284,-4.9574,-4.9243,-4.9011,-4.8266,-4.8001,-4.8001,-4.8001,-4.7787,-4.7489,-4.7357,-4.6682,-4.5892,-4.5577,-4.5174,-4.4754,-4.4221,-4.3709,-4.3214,-4.2865,-4.2241,-4.172,-4.1769,-4.2206,-4.2459,-4.1901,-4.1518,-4.1259,-4.1043,-4.0454,-4.017,-4.0638,-4.0823,-4.0912,-4.0912,-4.0359,-3.9646,-3.8905,-3.8185,-3.7448,-3.6611,-3.6425,-3.6291,-3.6115,-3.5566,-3.491,-3.4187,-3.3642,-3.3279,-3.3166,-3.2498,-3.21,-3.2007,-3.1869,-3.1819,-3.1893,-3.1893,-3.1944,-3.2101,-3.2227,-3.2104,-3.6605,-3.6622,-3.7218,-3.9255,-4.0348,-4.2469,0.0,0.0,-4.9773,-5.2489,-5.3765,-5.4725,-5.5807,-5.716,-5.8552,-5.9694,-6.044,-6.0887,-6.097,-6.0556,-6.0175,-6.0026,-6.0589,-6.049,-5.9264,-5.9424,-5.9655,-5.9655,-5.9821,-5.9549,-5.8618,-5.9141,-5.8727,-5.7127,-5.736,-5.7152,-5.6422,-5.5814,-5.549,-5.5409,-5.5345,-5.468,-5.3577,-5.3302,-5.2539,-5.1462,-5.1296,-5.1445,-5.1778,-5.1733,-5.1382,-5.0853,-5.0301,-4.969,-4.9011,-4.8266,-4.8001,-4.8001,-4.8001,-4.7968,-4.7819,-4.7158,-4.6748,-4.6323,-4.5359,-4.5049,-4.4903,-4.4524,-4.4057,-4.3573,-4.3247,-4.2588,-4.2109,-4.2428,-4.2554,-4.2562,-4.2436,-4.1832,-4.111,-4.0525,-4.0172,-4.0028,-4.0078,-4.0549,-4.0912,-4.0912,-4.0825,-4.0498,-3.9681,-3.9029,-3.833,-3.7461,-3.6838,-3.6187,-3.5477,-3.5339,-3.5013,-3.4417,-3.4314,-3.4189,-3.4058,-3.3349,-3.2913,-3.2783,-3.2127,-3.18,-3.1818,-3.1818,-3.2146,-3.2802,-3.2802,-3.2478,-4.0186,0.0,0.0,0.0,-4.5682,-4.81,-5.1694,-5.2953,-5.4063,-5.6564,-5.8005,-5.9164,-6.0307,-6.1384,-6.2328,0.0,-6.3405,-6.3279,-6.2263,-6.1647,-6.039,-5.8016,-5.8193,-5.8634,-5.8883,-5.8566,-5.8378,-5.8378,-5.8905,-5.8929,-5.8223,-5.8877,-5.8769,-5.76,-5.7569,-5.7112,-5.61,-5.6075,-5.583,-5.5409,-5.5005,-5.4332,-5.3422,-5.2906,-5.2161,-5.1312,-5.1221,-5.1371,-5.1647,-5.1647,-5.1368,-5.0933,-5.0278,-4.9654,-4.9011,-4.8266,-4.8001,-4.8001,-4.8001,-4.8001,-4.7951,-4.7636,-4.7093,-4.6601,-4.6586,-4.6258,-4.5947,-4.604,-4.5683,-4.5114,-4.4333,-4.3719,-4.3262,-4.2948,-4.3323,-4.361,-4.316,-4.3054,-4.2848,-4.2175,-4.1935,-4.1713,-4.1226,-4.1388,-4.1395,-4.0963,-4.0912,-4.0618,-3.9802,-3.9485,-3.8869,-3.7633,-3.6826,-3.6243,-3.5915,-3.588,-3.578,-3.5526,-3.5154,-3.4874,-3.4794,-3.4108,-3.371,-3.3593,-3.3302,-3.2959,-3.2549,-3.2549,-3.2462,-3.2324,-3.2397,-3.2278,-4.1605,0.0,0.0,-4.7073,-5.0303,-5.3202,-5.4858,-5.6365,-5.7939,-5.9728,-6.0639,-6.15,-6.2742,-6.2908,-6.3173,-6.4084,-6.4051,-6.3467,-6.221,-6.1423,-5.9704,-5.6215,-5.5704,-5.6062,-5.7136,-5.7159,-5.7171,-5.7312,-5.8101,-5.8403,-5.7941,-5.872,-5.8802,-5.8016,-5.7732,-5.7105,-5.6075,-5.6164,-5.5944,-5.5409,-5.4924,-5.4195,-5.3249,-5.2349,-5.1653,-5.1183,-5.1183,-5.1258,-5.1424,-5.1462,-5.1145,-5.0582,-5.0074,-4.9454,-4.8746,-4.8199,-4.8001,-4.8001,-4.8001,-4.8001,-4.8001,-4.7935,-4.7571,-4.7207,-4.7539,-4.7538,-4.7446,-4.7556,-4.734,-4.6867,-4.5989,-4.539,-4.4876,-4.4171,-4.4529,-4.4873,-4.4271,-4.4285,-4.4251,-4.3693,-4.3366,-4.2948,-4.2154,-4.2016,-4.1757,-4.1015,-4.0912,-4.0687,-4.0095,-3.9836,-3.9152,-3.7672,-3.6995,-3.6563,-3.636,-3.6322,-3.6322,-3.6343,-3.5849,-3.5555,-3.5508,-3.4846,-3.4449,-3.4407,-3.4217,-3.3859,-3.3363,-3.3138,-3.2965,-3.281,-3.2693,-3.2748,-3.958,0.0,-4.6411,-4.9375,-5.3334,-5.7094,-5.9297,-6.092,-6.2238,-6.3034,-6.2063,-6.1334,-6.2105,-6.049,-5.9545,-6.1003,-6.0639,-6.0076,-5.982,-5.8729,-5.7202,-5.524,-5.3847,-5.3028,0.0,-5.4939,-5.6366,-5.6866,-5.7949,-5.8377,-5.7932,-5.9037,-5.921,-5.8215,-5.7832,-5.7333,-5.6776,-5.5905,-5.5426,-5.5409,-5.5393,-5.4648,-5.3233,-5.1863,-5.1199,-5.1183,-5.1183,-5.1183,-5.1221,-5.1424,-5.0778,-4.9665,-4.9842,-4.914,-4.8034,-4.8017,-4.8001,-4.8001,-4.8001,-4.8001,-4.7968,-4.777,-4.8096,-4.8398,-4.7704,-4.8431,-4.9376,-4.8742,-4.8643,-4.8632,-4.8294,-4.7654,-4.697,-4.6446,-4.631,-4.6245,-4.5822,-4.5194,-4.4597,-4.4319,-4.3682,-4.2948,-4.2154,-4.2016,-4.1757,-4.1015,-4.0912,-4.0894,-4.0877,-4.0164,-3.9157,-3.7763,-3.7504,-3.721,-3.6551,-3.6364,-3.636,-3.6502,-3.6346,-3.6266,-3.6266,-3.5559,-3.5163,-3.5163,-3.4456,-3.4096,-3.4079,-3.3283,-3.3662,-3.5076,-3.4372,-3.4424,-4.3743,0.0,-5.0982,-5.4394,-5.7806,-6.0771,-6.2477,-6.3256,-6.3421,-6.2735,-6.0605,-5.8684,-5.7972,-5.7227,-5.7044,-5.8022,-5.9612,-6.0432,-5.9563,-5.8888,-5.7245,-5.3738,-5.3192,0.0,0.0,0.0,0.0,-5.4658,-5.6385,-5.7149,-5.6531,-5.855,-5.9101,-5.7796,-5.7655,-5.7205,-5.6326,-5.5702,-5.5409,-5.5409,-5.447,-5.3327,-5.2086,-5.1485,-5.1258,-5.1387,-5.1258,-5.1183,-5.1221,-5.1258,-5.0855,-5.0089,-4.9671,-4.9372,-4.9071,-4.8569,-4.8745,-4.9084,-4.8292,-4.8513,-4.9127,-4.8652,-4.8852,-4.9171,-4.8589,-4.8975,-4.9499,-4.8944,-4.9121,-4.9338,-4.8798,-4.8584,-4.8352,-4.7671,-4.7541,-4.7489,-4.7369,-4.6612,-4.5926,-4.5847,-4.5199,-4.4423,-4.3672,-4.312,-4.2361,-4.1101,-4.0912,-4.0912,-4.0912,-4.0198,-3.9341,-3.8385,-3.7837,-3.7274,-3.6572,-3.6444,-3.6444,-3.6502,-3.6364,-3.6301,-3.6301,-3.6059,-3.5921,-3.5921,-3.568,-3.5318,-3.4818,-3.4559,-3.4162,-3.3662,-3.3421,-3.3477,-4.7384,-5.1002,-5.4477,-5.8386,-6.1169,-6.3206,-6.4117,-6.3951,-6.2984,-6.0713,-5.7713,-5.5024,-5.3493,-5.2387,-5.2272,-5.4006,-5.593,-5.7357,-5.7805,-5.7321,-5.6057,-5.3656,-5.3192,-5.2335,0.0,0.0,0.0,-5.3171,-5.5376,-5.649,-5.6051,-5.7975,-5.8649,-5.7796,-5.7535,-5.6996,-5.6102,-5.5726,-5.5377,-5.5037,-5.3871,-5.2744,-5.1745,-5.1372,-5.1258,-5.1387,-5.1275,-5.1183,-5.1183,-5.1183,-5.0874,-5.0342,-4.9842,-4.9674,-4.9629,-4.9154,-4.947,-4.9982,-4.8748,-4.8807,-4.9411,-4.8927,-4.9201,-4.9617,-4.9278,-4.9705,-5.0237,-4.9722,-4.9993,-5.0382,-4.9938,-4.995,-4.989,-4.9135,-4.8688,-4.8321,-4.7937,-4.703,-4.6272,-4.6182,-4.5742,-4.5156,-4.4432,-4.3448,-4.2344,-4.1101,-4.0912,-4.0912,-4.0912,-4.0463,-3.9836,-3.906,-3.8368,-3.7672,-3.6953,-3.6599,-3.6444,-3.6502,-3.6364,-3.6301,-3.6301,-3.6301,-3.6301,-3.6301,-3.6301,-3.6059,-3.5576,-3.5318,-3.468,-3.3714,-3.3455,-3.3511,-5.0354,-5.3682,-5.6978,-6.126,-6.3415,-6.4399,-6.4283,-6.3116,-6.0929,-5.7177,-5.3467,-5.0385,0.0,0.0,-4.5717,-4.9173,-5.0085,-5.1543,-5.4891,-5.4378,-5.4031,0.0,0.0,0.0,0.0,0.0,0.0,-5.2699,0.0,-5.6462,-5.6439,-5.7409,-5.7983,-5.8133,-5.7462,-5.6774,-5.6086,-5.5903,-5.5287,-5.4341,-5.3644,-5.2916,-5.2122,-5.1475,-5.1221,-5.1221,-5.1221,-5.1183,-5.1183,-5.1183,-5.0906,-5.0428,-5.0365,-5.0159,-4.9826,-4.9723,-5.0194,-5.0702,-4.9445,-4.9006,-4.9006,-4.8773,-4.9244,-4.9879,-4.9705,-5.0614,-5.1571,-5.0982,-5.1219,-5.169,-5.169,-5.169,-5.1512,-5.0744,-4.9817,-4.8823,-4.7754,-4.6695,-4.5856,-4.5528,-4.5458,-4.5191,-4.4406,-4.3059,-4.1809,-4.1015,-4.0912,-4.0912,-4.0912,-4.0912,-4.0601,-3.9784,-3.9065,-3.835,-3.7659,-3.6813,-3.6364,-3.6502,-3.6364,-3.6301,-3.6301,-3.6301,-3.6301,-3.6301,-3.6301,-3.6301,-3.6301,-3.5594,-3.5214,-3.5128,-3.4456,-3.451,-5.3616,-5.7442,-6.1036,-6.3256,-6.4498,-6.473,-6.315,-6.0755,-5.7707,-5.3553,-4.8812,-4.4665,0.0,0.0,0.0,-4.5702,-4.9723,0.0,-5.5781,-5.6927,0.0,-5.5962,0.0,-5.5562,-5.4152,-5.454,0.0,0.0,-5.5888,-5.623,-5.5634,-5.7584,-5.8231,-5.7113,-5.7099,-5.6774,-5.6086,-5.5709,-5.4851,-5.3596,-5.3378,-5.275,-5.1685,-5.134,-5.1258,-5.1424,-5.1258,-5.1183,-5.1183,-5.1183,-5.1107,-5.0976,-5.0987,-5.1262,-5.1649,-5.103,-5.1371,-5.1953,-5.0621,-5.0522,-5.0902,-5.0394,-5.0686,-5.1131,-5.0632,-5.107,-5.1571,-5.0982,-5.1219,-5.169,-5.169,-5.169,-5.1637,-5.144,-5.1043,-5.0458,-4.9586,-4.8563,-4.7569,-4.6743,-4.61,-4.5343,-4.4216,-4.3519,-4.2669,-4.1325,-4.1012,-4.0912,-4.0912,-4.0912,-4.0601,-3.9784,-3.9133,-3.8456,-3.7659,-3.6897,-3.6464,-3.6502,-3.6364,-3.6301,-3.6301,-3.6301,-3.6301,-3.6301,-3.6301,-3.6301,-3.6301,-3.6111,-3.5439,-3.4407,-3.4749,-3.4734,-5.7227,-6.0539,-6.3405,-6.4548,-6.4399,-6.3256,-6.0407,-5.726,-5.3417,-4.805,-4.385,0.0,-3.7753,0.0,0.0,0.0,0.0,0.0,-5.4609,-5.5891,-5.6603,0.0,-5.6859,0.0,-5.5204,-5.5627,-5.5824,0.0,-5.6075,-5.6344,-5.5971,-5.7274,-5.7683,-5.6919,-5.673,-5.6439,-5.5983,-5.5416,-5.4525,-5.3422,-5.3097,-5.246,-5.1499,-5.1296,-5.1258,-5.135,0.0,-5.1183,-5.1183,-5.1183,-5.1392,-5.1663,-5.1655,-5.2149,-5.2766,-5.1998,-5.2091,-5.2448,-5.1432,-5.1349,-5.1615,-5.1008,-5.1035,-5.1271,-5.1219,-5.1418,-5.164,-5.1271,-5.1444,-5.169,-5.169,-5.169,-5.169,-5.169,-5.0972,-5.0165,-4.9705,-4.8514,-4.7312,-4.6765,-4.6201,-4.5453,-4.4439,-4.3757,-4.2961,-4.1723,-4.1173,-4.0912,-4.0912,-4.0912,-4.0739,-4.0267,-3.9611,-3.8874,-3.8096,-3.7374,-3.6803,-3.644,-3.6343,-3.6301,-3.6301,-3.6301,-3.6301,-3.6301,-3.6301,-3.6301,-3.6301,-3.6301,-3.5714,-3.4576,-3.5028,-3.4973,-6.0622,-6.2858,-6.4531,-6.5127,-6.3488,-6.0813,-5.7094,-5.3152,-4.8498,-4.227,0.0,-3.6894,-3.4682,-3.5192,-3.705,-4.0501,0.0,-4.757,-5.2688,-5.35,-5.4539,-5.7287,-5.6998,-5.6264,-5.5605,-5.6317,-5.6417,-5.5473,-5.6092,-5.657,-5.6703,-5.6759,-5.6841,-5.697,-5.6357,-5.5983,-5.5782,-5.5066,-5.4333,-5.3561,-5.2829,-5.2129,-5.1462,-5.1258,-5.1183,-5.1221,-5.128,0.0,-5.1355,-5.145,-5.1875,-5.2437,-5.2471,-5.2951,-5.3528,-5.2916,-5.2715,-5.2634,-5.2042,-5.1779,-5.1615,-5.1088,-5.0928,-5.1008,-5.1521,-5.169,-5.169,-5.169,-5.169,-5.169,-5.169,-5.169,-5.169,-5.169,-5.041,-4.9178,-4.9072,-4.7558,-4.6295,-4.6449,-4.6157,-4.5668,-4.4942,-4.4083,-4.3158,-4.2258,-4.1559,-4.1086,-4.1006,-4.0942,-4.0912,-4.0912,-4.0164,-3.9439,-3.8784,-3.7996,-3.7202,-3.649,-3.6353,-3.6301,-3.6301,-3.6301,-3.6301,-3.6301,-3.6301,-3.6301,-3.6301,-3.6301,-3.5921,-3.5197,-3.5283,-3.5283,-6.2262,-6.362,-6.4415,-6.4531,-6.1997,-5.8502,-5.4825,-4.9309,0.0,0.0,-3.633,-3.3789,-3.2319,-3.3939,-3.6577,-3.983,0.0,0.0,0.0,0.0,-5.4899,0.0,0.0,0.0,0.0,0.0,0.0,0.0,0.0,-5.64,-5.6219,-5.6564,-5.6613,-5.6283,-5.5992,-5.5823,-5.5782,-5.5066,-5.4254,-5.3344,-5.2768,-5.2037,-5.1258,-5.1221,-5.1183,-5.1221,-5.1855,0.0,-5.2164,-5.2699,-5.301,-5.318,-5.3772,-5.4121,-5.4254,-5.4226,-5.3889,-5.3335,-5.2749,-5.2167,-5.169,-5.1589,-5.1546,-5.1546,-5.1665,-5.169,-5.169,-5.169,-5.169,-5.169,-5.169,-5.169,-5.169,-5.169,-5.0952,-5.0065,-4.9387,-4.7826,-4.6784,-4.7678,-4.7104,-4.623,-4.5545,-4.5153,-4.4425,-4.2979,-4.2503,-4.2096,-4.1558,-4.1129,-4.0912,-4.0912,-4.0164,-3.9646,-3.9508,-3.8272,-3.7443,-3.7305,-3.6663,-3.6301,-3.6301,-3.6301,-3.6301,-3.6301,-3.6301,-3.6301,-3.6301,-3.6301,-3.5921,-3.5197,-3.5818,-3.5783,-6.2676,-6.3862,-6.4283,-6.3902,-6.0473,-5.6034,-5.1612,0.0,0.0,0.0,-3.3672,-3.1997,-3.1013,0.0,0.0,0.0,0.0,0.0,0.0,0.0,0.0,0.0,0.0,0.0,0.0,0.0,0.0,0.0,0.0,-5.6328,-5.6466,-5.6368,-5.6108,-5.5766,-5.5629,-5.5604,-5.5604,-5.4731,-5.4013,-5.3461,-5.266,-5.1974,-5.1387,-5.1729,-5.1822,-5.1818,-5.2522,0.0,-5.2837,-5.3163,-5.3515,-5.3926,-5.4247,-5.4627,-5.4931,-5.4653,-5.4151,-5.352,-5.2874,-5.2248,-5.169,-5.169,-5.169,-5.169,-5.169,-5.169,-5.169,-5.169,-5.169,-5.169,-5.169,-5.169,-5.169,-5.169,-5.1083,-5.0281,-4.9454,-4.8313,-4.7595,-4.8104,-4.7281,-4.6395,-4.6071,-4.5428,-4.4605,-4.3477,-4.2894,-4.23,-4.1513,-4.1203,-4.1065,-4.1065,-4.0718,-4.0268,-3.9756,-3.9043,-3.8474,-3.8116,-3.7698,-3.7318,-3.6939,-3.6904,-3.6715,-3.6301,-3.6301,-3.6301,-3.6301,-3.6301,-3.6111,-3.5783,-3.6146,-3.6111,-6.2212,-6.3471,-6.3885,-6.2842,-5.8717,-5.3599,-4.8465,-4.2708,0.0,0.0,-3.1621,-3.0877,-3.0282,0.0,-3.3459,0.0,0.0,0.0,0.0,0.0,0.0,0.0,0.0,0.0,0.0,0.0,0.0,0.0,0.0,0.0,-5.6548,-5.6075,-5.5685,-5.5409,-5.5409,-5.5409,-5.5409,-5.4411,-5.3787,-5.3522,-5.2519,-5.1904,-5.1668,-5.2203,-5.247,-5.2557,-5.323,0.0,0.0,-5.373,-5.4087,-5.4627,-5.4627,-5.4987,-5.542,-5.4757,-5.4105,-5.3466,-5.283,-5.2205,-5.1665,-5.169,-5.169,-5.169,-5.169,-5.169,-5.169,-5.169,-5.169,-5.169,-5.169,-5.169,-5.1654,-5.1476,-5.0959,-5.0334,-4.9685,-4.896,-4.8502,-4.8663,-4.7678,-4.6766,-4.6742,-4.5842,-4.4858,-4.4184,-4.343,-4.2636,-4.1763,-4.1518,-4.1396,-4.1368,-4.1232,-4.0805,-4.0014,-3.9802,-3.9439,-3.887,-3.8681,-3.8272,-3.753,-3.7512,-3.7133,-3.6318,-3.6301,-3.6301,-3.6301,-3.6301,-3.6301,-3.6301,-3.6301,-3.6301,-6.0705,-6.2328,-6.2875,-6.0821,-5.6465,-5.133,-4.6162,0.0,0.0,-3.2232,-3.0903,-3.0228,-3.0055,-3.0644,-3.2082,0.0,0.0,-3.9703,0.0,0.0,0.0,0.0,0.0,0.0,0.0,0.0,0.0,0.0,0.0,0.0,-5.592,-5.5815,-5.5685,-5.5409,-5.5409,-5.5409,-5.5409,-5.4411,-5.371,-5.3304,-5.2333,-5.1961,-5.2236,-5.2307,-5.2646,-5.3247,-5.399,0.0,0.0,-5.5018,-5.5341,-5.5401,-5.5401,-5.5448,-5.542,-5.4821,-5.4084,-5.3347,-5.2857,-5.218,-5.1531,-5.1665,-5.169,-5.169,-5.169,-5.169,-5.169,-5.169,-5.169,-5.169,-5.169,-5.169,-5.1512,-5.078,-5.0548,-5.0477,-5.0423,-4.9757,-4.9424,-5.0156,-4.9061,-4.7998,-4.7873,-4.708,-4.6171,-4.5352,-4.461,-4.3895,-4.3204,-4.2565,-4.2103,-4.1852,-4.1295,-4.0901,-4.0808,-4.0112,-3.9664,-3.9595,-3.8957,-3.8272,-3.753,-3.7512,-3.7133,-3.6318,-3.6301,-3.6301,-3.6301,-3.6301,-3.6301,-3.6301,-3.6301,-3.6301,-5.8585,-6.0523,-6.0887,-5.9115,-5.4767,-4.9621,-4.4464,0.0,-3.4259,-3.1772,-3.0604,-2.9989,-2.9946,-3.0464,-3.1445,-3.3113,0.0,0.0,0.0,0.0,0.0,0.0,0.0,0.0,0.0,0.0,0.0,0.0,0.0,0.0,-5.6205,-5.5943,-5.5611,-5.5154,-5.532,-5.5126,-5.4519,-5.4103,-5.3792,-5.3601,-5.2898,-5.2767,-5.3112,-5.3533,-5.3813,-5.399,-5.4738,0.0,0.0,-5.5371,-5.5507,-5.5507,-5.5507,-5.5507,-5.542,-5.4688,-5.3982,-5.3291,-5.2634,-5.1988,-5.1505,-5.1556,-5.1615,-5.169,-5.169,-5.169,-5.169,-5.169,-5.169,-5.169,-5.169,-5.169,-5.1619,-5.1298,-5.1226,-5.1226,-5.1226,-5.0602,-4.9977,-4.9792,-4.8853,-4.7915,-4.7364,-4.6897,-4.6324,-4.5528,-4.483,-4.409,-4.3182,-4.2455,-4.1977,-4.174,-4.1475,-4.1312,-4.1312,-4.0764,-4.0458,-4.0597,-4.0205,-3.9445,-3.8198,-3.8168,-3.756,-3.6318,-3.6301,-3.6301,-3.6301,-3.6301,-3.6301,-3.6301,-3.6301,-3.6301,-5.4849,-5.7287,-5.8022,-5.6564,-5.2451,-4.7489,0.0,0.0,-3.3468,-3.1222,-3.0325,-2.9924,-2.9902,-3.0279,-3.0846,-3.1575,0.0,-3.4297,0.0,0.0,0.0,0.0,0.0,0.0,0.0,0.0,0.0,0.0,0.0,0.0,0.0,-5.6487,-5.5947,-5.532,-5.5218,-5.4851,-5.4211,-5.398,-5.3827,-5.3735,-5.3465,-5.3516,-5.3861,-5.4376,-5.4645,-5.4738,-5.5264,0.0,0.0,-5.5507,-5.5507,-5.5507,-5.5507,-5.5507,-5.542,-5.4612,-5.402,-5.3535,-5.2596,-5.2051,-5.173,-5.1602,-5.1615,-5.169,-5.169,-5.169,-5.169,-5.169,-5.169,-5.169,-5.169,-5.169,-5.169,-5.169,-5.169,-5.169,-5.169,-5.1244,-5.0691,-5.0138,-4.9114,-4.8194,-4.7625,-4.7051,-4.6483,-4.5893,-4.523,-4.4427,-4.3496,-4.2745,-4.2178,-4.1841,-4.1736,-4.1631,-4.1498,-4.118,-4.1018,-4.1111,-4.0989,-4.0308,-3.8974,-3.8738,-3.7974,-3.668,-3.6422,-3.6301,-3.6301,-3.6301,-3.6301,-3.6301,-3.6301,-3.6301,-4.909,-5.2283,-5.4229,-5.2804,-4.911,-4.4658,0.0,-3.6265,-3.2925,-3.0517,-2.9995,-2.9973,-2.9902,-2.9918,-3.0139,-3.0791,-3.2141,0.0,0.0,0.0,0.0,0.0,0.0,0.0,0.0,0.0,0.0,0.0,0.0,0.0,0.0,-5.7601,-5.6806,-5.5994,-5.5109,-5.4689,-5.4887,-5.4155,-5.3716,-5.3606,-5.3788,-5.4057,-5.4391,-5.4391,-5.4817,0.0,0.0,0.0,0.0,-5.5507,-5.5507,-5.5507,-5.5507,-5.5507,-5.542,-5.4612,-5.4314,-5.4097,-5.2827,-5.2387,-5.2316,-5.1839,-5.169,-5.169,-5.169,-5.169,-5.169,-5.169,-5.169,-5.169,-5.169,-5.169,-5.169,-5.169,-5.169,-5.169,-5.169,-5.169,-5.1672,-5.1672,-5.0388,-4.9275,-4.9275,-4.7897,-4.6795,-4.6778,-4.5987,-4.5161,-4.4569,-4.3788,-4.3031,-4.2356,-4.2061,-4.1701,-4.1237,-4.1209,-4.1117,-4.0935,-4.0912,-4.0549,-3.9715,-3.8974,-3.8254,-3.7512,-3.6697,-3.6301,-3.6301,-3.6301,-3.6301,-3.6301,-3.6301,-3.6301,-4.3556,-4.5744,-4.6633,-4.5677,-4.3164,-4.0057,-3.6669,-3.4137,-3.2029,-3.0287,-2.9924,-2.9924,-2.9902,-2.9896,-3.0447,-3.2125,-3.2861,0.0,0.0,0.0,0.0,0.0,0.0,0.0,0.0,0.0,0.0,0.0,0.0,0.0,0.0,-5.7381,-5.6976,-5.6286,-5.5312,-5.4671,-5.4362,-5.4037,-5.4091,-5.448,-5.4465,-5.4755,-5.5289,-5.5187,0.0,0.0,0.0,0.0,0.0,-5.5507,-5.5507,-5.5507,-5.5507,-5.5507,-5.542,-5.4612,-5.4314,-5.4086,-5.2624,-5.2243,-5.229,-5.1633,-5.1538,-5.169,-5.169,-5.169,-5.169,-5.169,-5.169,-5.169,-5.169,-5.169,-5.169,-5.169,-5.169,-5.169,-5.169,-5.169,-5.153,-5.0994,-5.0477,-4.9911,-4.9286,-4.8366,-4.7707,-4.7518,-4.6452,-4.5579,-4.5285,-4.4195,-4.3348,-4.3144,-4.2546,-4.2103,-4.1959,-4.1653,-4.1498,-4.1587,-4.1453,-4.1031,-4.0285,-3.9852,-3.9276,-3.853,-3.8096,-3.7611,-3.7133,-3.7133,-3.6835,-3.6301,-3.6301,-3.6301,0.0,-4.029,-4.1173,-4.0701,-3.886,0.0,0.0,-3.2176,-3.0606,-2.967,-2.9475,-2.9578,-2.9875,-2.9918,-3.0437,-3.2082,-3.2609,0.0,0.0,0.0,0.0,0.0,0.0,0.0,0.0,0.0,0.0,0.0,0.0,0.0,0.0,-5.7414,-5.7058,-5.6686,-5.5448,-5.465,-5.4391,-5.4223,-5.442,-5.4905,-5.5061,-5.5348,-5.5695,-5.5607,0.0,0.0,0.0,0.0,0.0,-5.5507,-5.5332,-5.5051,-5.5051,-5.5051,-5.4963,-5.4173,-5.4068,-5.4086,-5.2596,-5.2189,-5.221,-5.1572,-5.1513,-5.169,-5.169,-5.169,-5.169,-5.169,-5.169,-5.169,-5.169,-5.169,-5.169,-5.169,-5.169,-5.169,-5.169,-5.169,-5.1547,-5.1048,-5.0709,-5.0327,-4.9713,-4.8823,-4.8128,-4.7962,-4.6931,-4.6051,-4.5726,-4.4876,-4.4078,-4.3551,-4.3054,-4.2626,-4.2343,-4.1934,-4.1719,-4.1784,-4.167,-4.1349,-4.0793,-4.0341,-3.9825,-3.9183,-3.8732,-3.8143,-3.7342,-3.7133,-3.6758,-3.6255,-3.628,-3.6301,0.0,-3.563,0.0,0.0,0.0,0.0,-3.2301,-3.0386,0.0,-2.8772,-2.8778,-2.908,-2.9973,-3.0049,-3.0297,-3.1293,-3.1925,0.0,0.0,0.0,0.0,0.0,0.0,0.0,0.0,0.0,0.0,0.0,0.0,0.0,0.0,-5.7499,-5.6998,-5.6998,-5.5496,-5.4778,-5.4983,-5.4747,-5.4747,-5.4983,-5.5566,-5.5804,-5.5706,-5.5677,0.0,0.0,0.0,0.0,0.0,-5.5367,-5.4893,-5.4226,-5.4226,-5.4226,-5.4138,-5.3436,-5.3629,-5.4044,-5.2672,-5.2198,-5.2129,-5.1651,-5.1582,-5.1665,-5.169,-5.169,-5.169,-5.169,-5.169,-5.169,-5.169,-5.169,-5.169,-5.169,-5.169,-5.169,-5.169,-5.169,-5.169,-5.169,-5.1101,-5.0584,-5.0559,-4.9299,-4.8288,-4.8264,-4.744,-4.6598,-4.5958,-4.5726,-4.5116,-4.38,-4.3568,-4.3197,-4.243,-4.2097,-4.1849,-4.167,-4.1648,-4.152,-4.1255,-4.0553,-3.999,-3.9598,-3.8854,-3.8066,-3.7274,-3.6602,-3.6273,-3.6294,-3.6362,-3.6353,-2.772,0.0,-3.1034,-3.1028,-3.0614,-3.0136,0.0,-2.8939,-2.8232,-2.8192,-2.8551,-2.9401,-3.1132,-3.1013,-3.159,-3.44,0.0,0.0,0.0,0.0,0.0,0.0,0.0,0.0,0.0,0.0,0.0,0.0,0.0,0.0,0.0,-5.654,-5.6087,-5.6184,-5.5701,-5.5525,-5.5653,-5.5117,-5.5117,-5.5653,-5.5619,-5.5637,-5.5695,-5.5578,0.0,0.0,0.0,0.0,-5.4542,-5.4077,-5.3725,-5.3454,-5.3454,-5.3454,-5.3418,-5.3271,-5.3324,-5.3313,-5.2375,-5.2107,-5.2102,-5.1528,-5.1376,-5.141,-5.1531,-5.1632,-5.169,-5.169,-5.169,-5.169,-5.169,-5.169,-5.169,-5.169,-5.169,-5.169,-5.169,-5.169,-5.169,-5.169,-5.1547,-5.1397,-5.1272,-5.0029,-4.9002,-4.8888,-4.7778,-4.6903,-4.673,-4.6154,-4.5615,-4.5302,-4.4193,-4.3369,-4.3092,-4.2543,-4.2184,-4.2142,-4.2058,-4.1852,-4.16,-4.1176,-4.0793,-4.0496,-3.962,-3.9087,-3.8928,-3.7671,-3.7084,-3.7193,-3.7215,-3.6887,-2.6277,-2.7608,-2.9041,-2.9214,-2.9091,-2.9044,-2.9563,-2.8395,-2.7361,-2.7856,0.0,-2.943,-3.1119,-3.1503,0.0,0.0,0.0,0.0,0.0,0.0,0.0,0.0,0.0,0.0,0.0,0.0,0.0,0.0,0.0,0.0,0.0,-5.6241,-5.5777,-5.5489,-5.5759,-5.5908,-5.5918,-5.5496,-5.535,-5.5472,-5.5281,-5.5047,-5.4818,-5.4734,-5.4666,0.0,0.0,0.0,-5.3752,-5.3433,-5.3064,-5.2646,-5.2646,-5.2646,-5.2611,-5.226,-5.2348,-5.2541,-5.1768,-5.1569,-5.1634,-5.1308,-5.1298,-5.1402,-5.1479,-5.1607,-5.169,-5.169,-5.169,-5.169,-5.169,-5.169,-5.169,-5.169,-5.169,-5.169,-5.169,-5.169,-5.169,-5.169,-5.169,-5.1558,-5.1126,-5.0065,-4.9144,-4.874,-4.7718,-4.6998,-4.6998,-4.6605,-4.619,-4.5748,-4.4965,-4.412,-4.3283,-4.2882,-4.2515,-4.2178,-4.2097,-4.1931,-4.1679,-4.148,-4.1249,-4.0948,-4.0018,-3.957,-3.9582,-3.8447,-3.7924,-3.7991,-3.7991,-3.7767,-2.6673,-2.8058,-2.9448,-2.9518,-2.934,-2.9407,-3.0335,0.0,0.0,0.0,0.0,0.0,0.0,-3.2171,0.0,0.0,0.0,0.0,0.0,0.0,0.0,0.0,0.0,0.0,0.0,0.0,0.0,0.0,0.0,0.0,0.0,-5.6128,-5.5672,-5.5042,-5.5512,-5.5723,-5.5575,-5.5574,-5.5384,-5.5034,-5.4707,-5.4272,-5.378,-5.3726,-5.359,-5.3341,0.0,0.0,-5.2997,-5.2902,-5.2481,-5.1839,-5.1839,-5.1839,-5.1768,-5.1119,-5.1294,-5.1751,-5.1119,-5.0972,-5.1079,-5.1079,-5.1264,-5.1446,-5.1497,-5.1582,-5.1665,-5.169,-5.169,-5.169,-5.169,-5.169,-5.169,-5.169,-5.169,-5.1665,-5.1665,-5.164,-5.164,-5.1665,-5.1665,-5.1451,-5.0798,-4.9899,-4.9079,-4.8461,-4.7545,-4.6957,-4.6934,-4.6934,-4.6621,-4.5831,-4.563,-4.4928,-4.3381,-4.3151,-4.274,-4.1976,-4.1962,-4.1858,-4.156,-4.1515,-4.1375,-4.107,-4.0302,-3.9871,-3.9871,-3.9129,-3.8767,-3.8744,-3.8767,-3.8698,-2.7347,-2.917,-3.0608,-2.9135,-2.9562,-3.0325,-3.0275,-2.9529,0.0,0.0,0.0,0.0,0.0,-3.4497,0.0,0.0,0.0,0.0,0.0,0.0,0.0,0.0,0.0,0.0,0.0,0.0,0.0,0.0,0.0,0.0,0.0,-5.5464,-5.5011,-5.4997,-5.4364,-5.4036,-5.4126,-5.4664,-5.5003,-5.5151,-5.4002,-5.352,-5.3627,-5.3397,-5.3257,-5.3194,0.0,-5.231,-5.2137,-5.1641,-5.128,-5.1066,-5.1066,-5.1066,-5.1049,-5.0926,-5.0961,-5.1049,-5.0926,-5.0918,-5.0945,-5.1052,-5.1132,-5.1211,-5.1428,-5.1505,-5.1556,-5.1665,-5.169,-5.169,-5.169,-5.169,-5.169,-5.169,-5.1607,-5.1531,-5.1531,-5.1454,-5.1384,-5.1505,-5.1531,-5.1521,-5.1504,-5.0281,-4.9251,-4.9066,-4.7785,-4.6795,-4.6684,-4.6661,-4.6625,-4.646,-4.5834,-4.5027,-4.4029,-4.3318,-4.2568,-4.1723,-4.1776,-4.167,-4.1277,-4.1088,-4.0965,-4.0935,-4.0791,-4.0722,-4.0722,-3.9905,-3.948,-3.9364,-3.948,-3.913,-2.7416,-2.8783,-2.9955,-2.9346,-3.0425,-3.1738,-3.2209,-3.123,0.0,0.0,0.0,0.0,0.0,0.0,0.0,0.0,0.0,0.0,0.0,0.0,0.0,0.0,0.0,0.0,0.0,0.0,0.0,0.0,0.0,0.0,0.0,0.0,-5.4189,-5.378,-5.3744,-5.3495,-5.3087,-5.3307,-5.3511,-5.3727,-5.3076,-5.2615,-5.236,-5.2226,-5.2118,-5.2064,0.0,-5.1536,-5.1382,-5.1112,-5.0945,-5.0891,-5.0891,-5.0891,-5.0891,-5.0891,-5.0891,-5.0891,-5.0891,-5.0891,-5.0918,-5.0972,-5.1025,-5.1105,-5.1237,-5.1324,-5.1428,-5.1538,-5.164,-5.169,-5.169,-5.169,-5.1665,-5.1607,-5.1531,-5.1479,-5.1402,-5.135,-5.135,-5.1479,-5.1505,-5.1264,-5.0485,-4.9737,-4.8923,-4.795,-4.7163,-4.6661,-4.6613,-4.659,-4.6566,-4.6495,-4.6159,-4.5623,-4.4835,-4.4406,-4.3462,-4.171,-4.1648,-4.1604,-4.1431,-4.1403,-4.1358,-4.129,-4.1358,-4.1358,-4.129,-4.0735,-4.0423,-4.0353,-4.0195,-3.9959,-2.758,-2.8472,-2.9437,-2.9816,-3.1106,-3.2627,-3.3956,-3.3172,-3.2685,0.0,0.0,0.0,0.0,0.0,0.0,0.0,0.0,0.0,0.0,0.0,0.0,0.0,0.0,0.0,0.0,0.0,0.0,0.0,0.0,0.0,0.0,0.0,-5.3335,-5.2617,-5.2945,-5.2848,-5.2174,-5.2005,-5.2121,-5.2493,-5.2174,-5.1785,-5.1246,-5.122,-5.1141,-5.1052,-5.1052,-5.0998,-5.0891,-5.0891,-5.0891,-5.0891,-5.0891,-5.0891,-5.0891,-5.0891,-5.0891,-5.0891,-5.0891,-5.0891,-5.0918,-5.0945,-5.1025,-5.1123,-5.1132,-5.122,-5.1324,-5.1428,-5.1531,-5.1615,-5.1658,-5.164,-5.1632,-5.1479,-5.1428,-5.1394,-5.1272,-5.122,-5.1246,-5.1376,-5.1243,-5.0746,-4.9607,-4.9092,-4.8411,-4.7026,-4.6672,-4.6566,-4.6566,-4.6518,-4.6471,-4.6423,-4.6405,-4.6081,-4.5358,-4.4971,-4.3937,-4.199,-4.1732,-4.1626,-4.1604,-4.1736,-4.1736,-4.1604,-4.1692,-4.1692,-4.156,-4.1284,-4.114,-4.1093,-4.0799,-4.068,-2.8219,-2.9149,-3.01,-3.0439,-3.109,-3.2218,-3.4285,-3.5222,0.0,-3.7807,0.0,0.0,0.0,0.0,0.0,0.0,0.0,0.0,0.0,0.0,0.0,0.0,0.0,0.0,0.0,0.0,0.0,0.0,0.0,0.0,0.0,0.0,0.0,-5.2225,-5.1626,-5.1273,-5.1193,-5.1193,-5.1626,-5.2493,-5.1501,-5.1051,-5.1105,-5.0998,-5.0918,-5.0918,-5.0918,-5.0918,-5.0891,-5.0891,-5.0891,-5.0891,-5.0891,-5.0891,-5.0891,-5.0891,-5.0891,-5.0891,-5.0891,-5.0891,-5.0918,-5.1052,-5.1079,-5.1132,-5.1246,-5.1298,-5.1298,-5.1324,-5.1307,-5.135,-5.1479,-5.1505,-5.1479,-5.135,-5.122,-5.1132,-5.1105,-5.1025,-5.0972,-5.1105,-5.0532,-5.0019,-5.0024,-4.8845,-4.7822,-4.7551,-4.6899,-4.6405,-4.6405,-4.6319,-4.6253,-4.6398,-4.6405,-4.6081,-4.5358,-4.3983,-4.3039,-4.2728,-4.2137,-4.1736,-4.1604,-4.1736,-4.1736,-4.1604,-4.1604,-4.156,-4.1426,-4.1403,-4.1284,-4.1093,-4.1134,-4.0995,-2.7947,-2.9041,-3.0173,-3.0276,-3.1551,0.0,0.0,-3.6957,-3.8145,-4.0258,-4.1693,0.0,0.0,0.0,0.0,0.0,0.0,0.0,0.0,0.0,0.0,0.0,0.0,0.0,0.0,0.0,0.0,0.0,0.0,0.0,0.0,0.0,0.0,-5.1528,-5.1264,-5.1052,-5.0972,-5.0972,-5.1139,-5.1501,-5.1193,-5.0998,-5.0972,-5.0918,-5.0891,-5.0891,-5.0891,-5.0891,-5.0891,-5.0891,-5.0891,-5.0891,-5.0891,-5.0891,-5.0891,-5.0891,-5.0891,-5.0891,-5.0891,-5.0891,-5.0918,-5.0972,-5.0972,-5.0972,-5.1052,-5.1034,-5.1061,-5.1158,-5.1185,-5.1211,-5.135,-5.1376,-5.135,-5.1211,-5.1132,-5.1079,-5.0998,-5.0945,-5.0945,-5.1079,-5.0938,-5.0601,-5.0081,-4.9252,-4.8402,-4.7593,-4.6861,-4.6405,-4.6405,-4.635,-4.635,-4.6381,-4.6405,-4.6275,-4.5993,-4.4565,-4.3666,-4.3598,-4.2396,-4.1648,-4.1604,-4.1736,-4.1736,-4.1604,-4.167,-4.1648,-4.1515,-4.1363,-4.1249,-4.1175,-4.0901,-4.0782,-2.773,-2.8536,-2.9517,-2.9982,0.0,0.0,-3.7256,-3.8797,-4.0215,-4.2636,-4.3939,-4.4456,0.0,0.0,0.0,0.0,0.0,0.0,0.0,0.0,0.0,0.0,0.0,0.0,0.0,0.0,0.0,0.0,0.0,0.0,0.0,0.0,0.0,0.0,-5.0286,-5.0233,-5.0136,-5.0136,-5.0153,-5.0171,-5.026,-5.0356,-5.0504,-5.0504,-5.0504,-5.0522,-5.0785,-5.0891,-5.0891,-5.0891,-5.0733,-5.0504,-5.0504,-5.0504,-5.0504,-5.0504,-5.0504,-5.0504,-5.0504,-5.0346,-5.0136,-5.0136,-5.0136,-5.0136,-5.0136,-5.0136,-5.018,-5.0277,-5.048,-5.0665,-5.0752,-5.0999,-5.1193,-5.1079,-5.1025,-5.0998,-5.0918,-5.0891,-5.0918,-5.1025,-5.092,-5.0576,-4.9943,-4.9374,-4.8622,-4.7553,-4.6998,-4.6632,-4.6416,-4.6374,-4.635,-4.6398,-4.6405,-4.6405,-4.6405,-4.4994,-4.4089,-4.4043,-4.2492,-4.1604,-4.1604,-4.1736,-4.1736,-4.1604,-4.1692,-4.1692,-4.1604,-4.1431,-4.134,-4.1323,-4.0995,-4.0901,-2.7701,-2.7719,-2.8122,-2.972,0.0,0.0,-3.8606,-4.0792,-4.2538,-4.5098,-4.5451,-4.5305,-4.5323,0.0,0.0,0.0,0.0,0.0,0.0,0.0,0.0,0.0,0.0,0.0,0.0,0.0,0.0,0.0,0.0,0.0,0.0,0.0,0.0,0.0,-4.8538,-4.8495,-4.8495,-4.8495,-4.8538,-4.8591,-4.8512,-4.8924,-4.9706,-4.9706,-4.9706,-4.9741,-5.0522,-5.0873,-5.0873,-5.0873,-5.0426,-4.9706,-4.9706,-4.9706,-4.9706,-4.9706,-4.9706,-4.9706,-4.9706,-4.917,-4.8495,-4.8495,-4.8495,-4.8495,-4.8495,-4.8495,-4.8512,-4.8591,-4.9135,-4.9706,-4.9723,-5.04,-5.1052,-5.0918,-5.0891,-5.0891,-5.0891,-5.0891,-5.0891,-5.0891,-5.0241,-4.9723,-4.9723,-4.9047,-4.8275,-4.752,-4.7397,-4.7149,-4.6504,-4.6277,-4.6246,-4.6398,-4.6405,-4.6405,-4.6405,-4.4971,-4.4043,-4.3927,-4.2447,-4.1604,-4.1604,-4.1736,-4.1736,-4.1604,-4.1604,-4.1604,-4.1604,-4.1604,-4.1604,-4.1604,-4.1604,-4.1453,-2.7701,-2.8895,0.0,-3.1458,0.0,0.0,0.0,-4.1145,0.0,0.0,-4.6708,-4.6466,-4.6846,0.0,0.0,0.0,0.0,0.0,0.0,0.0,0.0,0.0,0.0,0.0,0.0,0.0,0.0,0.0,0.0,0.0,0.0,0.0,0.0,0.0,-4.8538,-4.8495,-4.8495,-4.8495,-4.8495,-4.8512,-4.7977,-4.8117,-4.8872,-4.8907,-4.8907,-4.8907,-4.9697,-4.975,-4.9276,-4.924,-4.9082,-4.8872,-4.8907,-4.8907,-4.8872,-4.8872,-4.8889,-4.8924,-4.8872,-4.8714,-4.8495,-4.8573,-4.8556,-4.8495,-4.8495,-4.8495,-4.86,-4.9205,-4.9548,-4.9846,-5.0382,-5.0822,-5.1052,-5.0918,-5.0891,-5.0891,-5.0891,-5.0891,-5.0891,-5.0891,-5.0778,-5.0647,-5.0566,-5.0031,-4.9483,-4.9082,-4.8158,-4.7248,-4.6487,-4.6374,-4.635,-4.6398,-4.6326,-4.627,-4.627,-4.4847,-4.395,-4.3886,-4.2447,-4.1604,-4.1604,-4.1648,-4.1648,-4.1604,-4.1604,-4.1604,-4.1604,-4.1604,-4.1604,-4.1604,-4.1408,-4.134,-2.7701,-2.9193,0.0,-3.2175,-3.5076,-3.8383,-4.105,0.0,0.0,0.0,0.0,0.0,0.0,0.0,0.0,0.0,0.0,0.0,0.0,0.0,0.0,0.0,0.0,0.0,0.0,0.0,0.0,0.0,0.0,0.0,0.0,0.0,0.0,0.0,-4.6995,-4.6819,-4.6819,-4.7086,-4.7244,-4.7226,-4.6769,-4.6804,-4.7262,-4.7844,-4.8099,-4.8117,-4.8889,-4.9153,-4.9012,-4.8679,-4.8714,-4.8924,-4.8345,-4.8293,-4.846,-4.8187,-4.8099,-4.8117,-4.8082,-4.7871,-4.7583,-4.7643,-4.76,-4.7653,-4.7977,-4.8064,-4.824,-4.8995,-4.9451,-4.9829,-5.0294,-5.0725,-5.0998,-5.0918,-5.0945,-5.0972,-5.0918,-5.0891,-5.0891,-5.0891,-5.0972,-5.0998,-5.0918,-5.0356,-4.9775,-4.9302,-4.7975,-4.6871,-4.6396,-4.6326,-4.6326,-4.6326,-4.6246,-4.6074,-4.5775,-4.4624,-4.3763,-4.3483,-4.2289,-4.1604,-4.1604,-4.1604,-4.1604,-4.1604,-4.1604,-4.1604,-4.1604,-4.1604,-4.1604,-4.1604,-4.1431,-4.1408,-2.7701,0.0,0.0,-3.2295,-3.5168,0.0,-4.2295,-4.544,-4.7981,0.0,0.0,0.0,0.0,0.0,0.0,0.0,0.0,0.0,0.0,0.0,0.0,0.0,0.0,0.0,0.0,0.0,0.0,0.0,0.0,0.0,0.0,0.0,0.0,-4.5223,-4.4627,-4.4301,-4.4301,-4.4899,-4.5223,0.0,-4.5223,-4.5223,-4.5258,-4.653,-4.7166,-4.7247,-4.7836,-4.8573,-4.9337,-4.8591,-4.8714,-4.9223,-4.7836,-4.7713,-4.8197,-4.7538,-4.7292,-4.7292,-4.7292,-4.6818,-4.6196,-4.6196,-4.6196,-4.6337,-4.7064,-4.7292,-4.745,-4.8205,-4.8924,-4.953,-4.9583,-5.0145,-5.0724,-5.0795,-5.0946,-5.1052,-5.0918,-5.0891,-5.0891,-5.0891,-5.0891,-5.0891,-5.0891,-5.0276,-4.9504,-4.8618,-4.7249,-4.6284,-4.6214,-4.6196,-4.6179,-4.6109,-4.6161,-4.5898,-4.5168,-4.4431,-4.3693,-4.2956,-4.2219,-4.1745,-4.1604,-4.1604,-4.1604,-4.1604,-4.1604,-4.1604,-4.1604,-4.1604,-4.1604,-4.1604,-4.1604,-4.1604,-2.7701,-2.9299,0.0,0.0,-3.8164,-4.2339,-4.3828,-4.5164,0.0,0.0,0.0,0.0,0.0,0.0,0.0,0.0,0.0,0.0,0.0,0.0,0.0,0.0,0.0,0.0,0.0,0.0,0.0,0.0,0.0,0.0,0.0,0.0,0.0,-4.4526,-4.439,-4.4301,-4.4301,-4.4438,-4.4526,0.0,-4.4526,-4.4526,-4.4544,-4.4816,-4.527,-4.5776,-4.5152,-4.5725,-4.703,-4.6193,-4.6291,-4.6916,-4.6582,-4.6547,-4.6688,-4.6512,-4.646,-4.646,-4.646,-4.6337,-4.6196,-4.6196,-4.6196,-4.6232,-4.6407,-4.646,-4.6618,-4.7415,-4.7748,-4.8029,-4.8661,-4.9046,-4.9361,-4.9855,-5.0461,-5.0945,-5.0918,-5.0891,-5.0891,-5.0891,-5.0891,-5.0891,-5.0891,-5.075,-5.0153,-4.8705,-4.7731,-4.6923,-4.6284,-4.6196,-4.5968,-4.5414,-4.5846,-4.5898,-4.5168,-4.494,-4.4501,-4.3711,-4.35,-4.2851,-4.1657,-4.1604,-4.1604,-4.1604,-4.1604,-4.1604,-4.1604,-4.1604,-4.1604,-4.1604,-4.1604,-4.1604,-2.7701,0.0,0.0,-3.55,0.0,-4.3401,-4.3762,0.0,0.0,0.0,0.0,0.0,0.0,0.0,0.0,0.0,0.0,0.0,0.0,0.0,0.0,0.0,0.0,0.0,0.0,0.0,0.0,0.0,0.0,0.0,0.0,-4.393,-4.389,-4.3824,-4.3517,-4.3326,-4.3326,-4.3651,-4.3824,-4.3824,-4.3824,-4.3633,-4.3361,-4.3948,-4.4405,-4.4735,-4.415,-4.4595,-4.5697,-4.4876,-4.5203,-4.6126,-4.5389,-4.5547,-4.6161,-4.5793,-4.5898,-4.6196,-4.6196,-4.6196,-4.6196,-4.6196,-4.6196,-4.6267,-4.6653,-4.6783,-4.6958,-4.7713,-4.7941,-4.8029,-4.8451,-4.8607,-4.8747,-4.9056,-4.9785,-5.0497,-5.083,-5.0891,-5.0891,-5.0891,-5.0891,-5.0768,-5.0382,-4.9697,-4.8802,-4.7583,-4.7056,-4.6653,-4.6249,-4.6196,-4.6056,-4.5653,-4.5968,-4.5898,-4.5168,-4.5098,-4.4764,-4.3939,-4.3904,-4.3377,-4.2219,-4.2184,-4.199,-4.1604,-4.199,-4.199,-4.1604,-4.1604,-4.1604,-4.1604,-4.1604,-4.1604,-2.7701,0.0,-3.244,-3.6712,-4.0247,0.0,0.0,0.0,0.0,0.0,0.0,0.0,0.0,0.0,0.0,0.0,0.0,0.0,0.0,0.0,0.0,0.0,0.0,0.0,0.0,0.0,0.0,0.0,0.0,0.0,-4.3173,-4.3116,-4.3095,-4.3095,-4.2543,-4.2267,-4.2264,-4.2797,-4.3091,-4.3091,-4.3091,-4.28,-4.2279,-4.3271,-4.3719,-4.3742,-4.3587,-4.398,-4.4665,-4.3974,-4.4553,-4.567,-4.4395,-4.4694,-4.5723,-4.5133,-4.5291,-4.5793,-4.5793,-4.5793,-4.5793,-4.5793,-4.5898,-4.6109,-4.6642,-4.6976,-4.7292,-4.7783,-4.7986,-4.8091,-4.8091,-4.8091,-4.8126,-4.8293,-4.9002,-4.9846,-5.0531,-5.0785,-5.0855,-5.0715,-5.0575,-5.0311,-4.9811,-4.8521,-4.7362,-4.6688,-4.6495,-4.6354,-4.6214,-4.6196,-4.6144,-4.6021,-4.6126,-4.5898,-4.5168,-4.522,-4.5005,-4.4272,-4.4267,-4.395,-4.314,-4.3177,-4.2763,-4.1832,-4.2324,-4.2271,-4.1604,-4.1604,-4.1604,-4.1604,-4.1604,-4.1604,0.0,0.0,-3.2982,0.0,-3.829,0.0,0.0,0.0,0.0,0.0,0.0,0.0,0.0,0.0,0.0,0.0,0.0,0.0,0.0,0.0,0.0,0.0,0.0,0.0,0.0,0.0,0.0,0.0,0.0,0.0,-4.2427,-4.2305,-4.2263,-4.2263,-4.2178,-4.21,-4.2048,-4.2133,-4.2186,-4.2186,-4.2186,-4.2133,-4.2048,-4.2092,-4.2206,-4.236,-4.2036,-4.2386,-4.318,-4.3037,-4.3447,-4.4185,-4.3974,-4.4027,-4.4202,-4.4097,-4.4115,-4.4202,-4.4202,-4.4202,-4.4202,-4.4202,-4.4676,-4.5133,-4.4553,-4.5308,-4.6249,-4.5712,-4.6003,-4.6512,-4.6512,-4.6512,-4.667,-4.738,-4.8117,-4.8889,-4.9706,-5.0426,-5.068,-5.0004,-4.9328,-4.9065,-4.9618,-4.896,-4.8302,-4.8197,-4.7661,-4.6993,-4.6284,-4.6196,-4.5951,-4.5326,-4.581,-4.5898,-4.5168,-4.5688,-4.5899,-4.557,-4.5758,-4.5446,-4.4413,-4.4647,-4.4115,-4.2675,-4.2061,-4.171,-4.1604,-4.1604,-4.1604,-4.1604,-4.1604,-4.1604,-2.8245,-3.0048,-3.2227,0.0,0.0,0.0,0.0,0.0,0.0,0.0,0.0,0.0,0.0,0.0,0.0,0.0,0.0,0.0,0.0,0.0,0.0,0.0,0.0,0.0,0.0,0.0,0.0,0.0,0.0,-4.2055,-4.2136,-4.2094,-4.2034,-4.2034,-4.2079,-4.2058,-4.2005,-4.2051,-4.2051,-4.2005,-4.2005,-4.2005,-4.2005,-4.1862,-4.1845,-4.1931,-4.1692,-4.2065,-4.2813,-4.2346,-4.2587,-4.3237,-4.2798,-4.2886,-4.3289,-4.3289,-4.3553,-4.3904,-4.3904,-4.3904,-4.3904,-4.3904,-4.4132,-4.436,-4.4009,-4.4694,-4.5536,-4.5185,-4.5617,-4.6196,-4.6196,-4.6196,-4.6358,-4.6973,-4.7491,-4.8053,-4.8689,-4.9907,-5.0645,-4.9864,-4.946,-4.917,-4.9047,-4.861,-4.8197,-4.7922,-4.7452,-4.689,-4.6298,-4.6196,-4.6074,-4.574,-4.6235,-4.6454,-4.6141,-4.6644,-4.6655,-4.5864,-4.6292,-4.5687,-4.3682,-4.4126,-4.3809,-4.2487,-4.2353,-4.2061,-4.1604,-4.1604,-4.1604,-4.1604,-4.1604,-4.1604,0.0,0.0,-3.0948,0.0,0.0,0.0,0.0,0.0,0.0,0.0,0.0,0.0,0.0,0.0,0.0,0.0,0.0,0.0,0.0,0.0,0.0,0.0,0.0,0.0,0.0,0.0,0.0,0.0,0.0,-4.175,-4.2005,-4.1768,-4.1644,-4.1644,-4.1672,-4.1584,-4.1319,-4.1563,-4.1669,-4.1619,-4.1813,-4.1902,-4.1902,-4.1797,-4.1736,-4.1736,-4.1648,-4.1938,-4.2464,-4.185,-4.1955,-4.2447,-4.1832,-4.1973,-4.2517,-4.2517,-4.2973,-4.3588,-4.3395,-4.3447,-4.3588,-4.3377,-4.3447,-4.357,-4.3377,-4.4009,-4.4799,-4.4799,-4.5343,-4.5975,-4.6297,-4.6374,-4.6501,-4.6976,-4.7323,-4.7707,-4.8145,-4.9172,-4.9872,-4.9469,-4.9151,-4.8919,-4.87,-4.8454,-4.8104,-4.7654,-4.7364,-4.7002,-4.644,-4.6374,-4.6405,-4.6548,-4.6863,-4.7071,-4.7071,-4.7111,-4.6906,-4.6291,-4.619,-4.5417,-4.3798,-4.3752,-4.343,-4.2662,-4.2761,-4.2501,-4.1899,-4.1809,-4.1744,-4.1744,-4.1648,-4.1604,0.0,-2.8386,0.0,0.0,0.0,0.0,0.0,0.0,0.0,0.0,0.0,0.0,0.0,0.0,0.0,0.0,0.0,0.0,0.0,0.0,0.0,0.0,0.0,0.0,0.0,0.0,0.0,0.0,0.0,-4.1064,-4.1931,-4.1156,-4.0669,-4.0669,-4.0687,-4.0292,-3.9445,-4.0207,-4.0576,-4.0594,-4.1293,-4.1626,-4.1626,-4.1604,-4.1604,-4.1604,-4.1604,-4.1622,-4.1657,-4.1622,-4.1622,-4.1657,-4.1622,-4.1639,-4.1657,-4.1657,-4.2166,-4.2763,-4.199,-4.2219,-4.2745,-4.1973,-4.2254,-4.271,-4.1955,-4.2763,-4.3957,-4.3957,-4.4536,-4.5428,-4.657,-4.6863,-4.6999,-4.7464,-4.781,-4.8164,-4.8491,-4.8055,-4.7783,-4.8425,-4.7758,-4.7504,-4.8924,-4.8892,-4.8528,-4.8122,-4.8057,-4.7759,-4.6952,-4.6863,-4.7026,-4.7485,-4.7548,-4.7569,-4.7569,-4.6539,-4.6348,-4.744,-4.5343,-4.4715,-4.6145,-4.4402,-4.3575,-4.3909,-4.3168,-4.277,-4.2734,-4.2342,-4.2175,-4.2175,-4.1784,-4.1604,0.0,0.0,0.0,0.0,0.0,0.0,0.0,0.0,0.0,0.0,0.0,0.0,0.0,0.0,0.0,0.0,0.0,0.0,0.0,0.0,0.0,0.0,0.0,0.0,0.0,0.0,0.0,0.0,0.0,0.0,-4.0236,-3.9947,-3.9768,-3.9768,-3.9852,-3.9732,-3.9426,-3.9627,-3.9726,-3.9743,-4.0516,-4.0621,-4.0165,-4.1148,-4.1341,-4.0924,-4.1394,-4.1903,-4.2342,-4.1815,-4.1903,-4.2324,-4.1797,-4.1604,-4.1604,-4.1604,-4.178,-4.199,-4.171,-4.1797,-4.199,-4.1692,-4.1797,-4.199,-4.1692,-4.2525,-4.3576,-4.3576,-4.4724,-4.6022,-4.6482,-4.6956,-4.7313,-4.7182,-4.7463,-4.7725,-4.7565,-4.7695,-4.7943,-4.8185,-4.8554,-4.8839,-4.8857,-4.9016,-4.8917,-4.8215,-4.7927,-4.7567,-4.6989,-4.6908,-4.7071,-4.7548,-4.7877,-4.7716,-4.6907,-4.6956,-4.6759,-4.6168,-4.5506,-4.5052,-4.4876,-4.4173,-4.3729,-4.3615,-4.3086,-4.2676,-4.2402,-4.2279,-4.2071,-4.1809,-4.192,-4.1984,-2.7701,0.0,0.0,0.0,0.0,0.0,0.0,0.0,0.0,0.0,0.0,0.0,0.0,0.0,0.0,0.0,0.0,0.0,0.0,0.0,0.0,0.0,0.0,0.0,0.0,0.0,0.0,0.0,0.0,0.0,-3.9284,-3.9038,-3.8898,-3.8856,-3.8693,-3.8717,-3.9001,-3.8877,-3.8818,-3.8918,-3.9666,-3.9933,-3.9743,-4.0762,-4.1095,-4.0906,-4.1394,-4.1903,-4.2359,-4.1832,-4.192,-4.2342,-4.1815,-4.1604,-4.1604,-4.1604,-4.178,-4.1973,-4.1692,-4.178,-4.1978,-4.185,-4.1788,-4.1831,-4.1963,-4.257,-4.3315,-4.3852,-4.4957,-4.6162,-4.6848,-4.7536,-4.7919,-4.7464,-4.7609,-4.7713,-4.7226,-4.7546,-4.8012,-4.824,-4.889,-4.9265,-4.8995,-4.9107,-4.8981,-4.8255,-4.7974,-4.7733,-4.7399,-4.7356,-4.7527,-4.7999,-4.8069,-4.7758,-4.6906,-4.6763,-4.6339,-4.551,-4.5038,-4.4619,-4.4215,-4.3942,-4.3725,-4.3594,-4.3354,-4.2996,-4.2599,-4.2462,-4.234,-4.2198,-4.234,-4.234,0.0,0.0,0.0,0.0,0.0,0.0,0.0,0.0,0.0,0.0,0.0,0.0,0.0,0.0,0.0,0.0,0.0,0.0,0.0,0.0,0.0,0.0,0.0,0.0,0.0,0.0,0.0,0.0,0.0,-3.8374,-3.9108,-3.8427,-3.7983,-3.7898,-3.7143,-3.7126,-3.7915,-3.7795,-3.7836,-3.8093,-3.8741,-3.955,-4.0432,-4.0485,-4.0906,-4.1569,-4.1587,-4.1604,-4.1604,-4.1604,-4.1604,-4.1604,-4.1604,-4.1604,-4.1604,-4.1604,-4.2096,-4.268,-4.189,-4.2136,-4.2753,-4.2341,-4.2218,-4.23,-4.2676,-4.281,-4.3137,-4.4693,-4.5202,-4.57,-4.777,-4.8587,-4.8767,-4.8401,-4.8288,-4.8135,-4.7715,-4.7632,-4.785,-4.8547,-4.8486,-4.8545,-4.9259,-4.9122,-4.875,-4.8363,-4.8306,-4.8306,-4.8306,-4.8306,-4.8458,-4.8874,-4.8203,-4.772,-4.7647,-4.5875,-4.5039,-4.5718,-4.3925,-4.336,-4.4564,-4.3846,-4.361,-4.3989,-4.3989,-4.3793,-4.3423,-4.3014,-4.3014,-4.3371,-4.2978,-4.2619,-2.7701,0.0,0.0,0.0,0.0,0.0,0.0,0.0,0.0,0.0,0.0,0.0,0.0,0.0,0.0,0.0,0.0,0.0,0.0,0.0,0.0,0.0,0.0,0.0,0.0,0.0,0.0,0.0,-3.6564,-3.6283,-3.5987,-3.5759,-3.5598,-3.5484,-3.5255,-3.5518,-3.6322,-3.6302,-3.6641,-3.7323,-3.8018,-3.8509,-3.8796,-3.9975,-4.0608,-4.0836,-4.1358,-4.1604,-4.1604,-4.1604,-4.1604,-4.1604,-4.1604,-4.1604,-4.1604,-4.1604,-4.1947,-4.2331,-4.2118,-4.2379,-4.2787,-4.2671,-4.2638,-4.2639,-4.2772,-4.2996,-4.3322,-4.3779,-4.4983,-4.6537,-4.8288,-4.8144,-4.7647,-4.8178,-4.781,-4.7497,-4.8004,-4.8326,-4.8495,-4.8427,-4.8586,-4.8806,-4.8992,-4.8969,-4.875,-4.8363,-4.8306,-4.8306,-4.8306,-4.8306,-4.8458,-4.8874,-4.8704,-4.797,-4.6522,-4.6164,-4.5723,-4.5039,-4.4166,-4.4098,-4.5068,-4.4288,-4.3892,-4.4005,-4.371,-4.366,-4.3825,-4.344,-4.3141,-4.2977,-4.3159,-4.3318,0.0,0.0,0.0,0.0,0.0,0.0,-2.7408,-2.7537,0.0,0.0,0.0,0.0,0.0,0.0,0.0,0.0,0.0,0.0,0.0,0.0,0.0,0.0,0.0,0.0,0.0,0.0,0.0,-3.5337,-3.5337,-3.5144,-3.4724,-3.4706,-3.4632,-3.4465,-3.4465,-3.4673,-3.5068,-3.5399,-3.5861,-3.6472,-3.7226,-3.7752,-3.8146,-3.941,-4.0165,-4.0537,-4.1271,-4.1697,-4.1852,-4.1852,-4.1568,-4.1165,-4.1481,-4.1503,-4.1432,-4.1729,-4.2113,-4.2442,-4.2442,-4.2599,-4.2829,-4.2996,-4.3051,-4.3087,-4.3248,-4.3457,-4.3718,-4.4103,-4.5307,-4.6717,-4.7664,-4.7344,-4.7002,-4.7849,-4.7665,-4.7536,-4.8366,-4.8732,-4.882,-4.8605,-4.8732,-4.8909,-4.8909,-4.8909,-4.8803,-4.8587,-4.855,-4.855,-4.855,-4.855,-4.8642,-4.8855,-4.8296,-4.7412,-4.626,-4.571,-4.5169,-4.4452,-4.4154,-4.4228,-4.4729,-4.4265,-4.4005,-4.4005,-4.3777,-4.3761,-4.4005,-4.3594,-4.3371,-4.33,-4.3525,-4.3677,0.0,0.0,0.0,0.0,0.0,0.0,-2.6911,-2.7227,-2.7683,0.0,0.0,0.0,0.0,0.0,0.0,0.0,0.0,0.0,0.0,0.0,0.0,0.0,0.0,0.0,0.0,-3.4372,-3.4424,-3.4424,-3.4442,-3.4407,-3.432,-3.432,-3.4263,-3.4164,-3.4075,-3.4055,-3.4096,-3.4809,-3.5359,-3.571,-3.6374,-3.7186,-3.8128,-3.8827,-3.9603,-4.0414,-4.1086,-4.1662,-4.2073,-4.2114,-4.1591,-4.0828,-4.1476,-4.1555,-4.137,-4.2029,-4.2521,-4.2885,-4.2885,-4.2903,-4.2996,-4.3335,-4.3474,-4.3525,-4.3892,-4.4005,-4.4191,-4.5045,-4.5807,-4.6382,-4.6475,-4.6494,-4.6698,-4.7516,-4.7701,-4.7924,-4.8723,-4.8909,-4.8909,-4.8909,-4.8909,-4.8909,-4.8909,-4.8909,-4.8909,-4.8909,-4.8909,-4.8909,-4.8909,-4.8909,-4.8872,-4.8779,-4.7571,-4.668,-4.6513,-4.5138,-4.4246,-4.4153,-4.4061,-4.4005,-4.4005,-4.4005,-4.4005,-4.4005,-4.4005,-4.4005,-4.4005,-4.3644,-4.3644,-4.4005,-4.4005,-4.3809,0.0,0.0,0.0,0.0,0.0,0.0,-2.7806,-2.7596,-2.7526,0.0,0.0,0.0,0.0,0.0,0.0,0.0,0.0,0.0,0.0,0.0,0.0,0.0,0.0,0.0,0.0,-3.2337,-3.2704,-3.2704,-3.2792,-3.2564,-3.1914,-3.1879,-3.2108,-3.2615,-3.2039,-3.2283,-3.3394,-3.3643,-3.4414,-3.5692,-3.591,-3.672,-3.8111,-3.8269,-3.8778,-3.9571,-3.9972,-4.0602,-4.1348,-4.1605,-4.1969,-4.2382,-4.2526,-4.2528,-4.2497,-4.2641,-4.2941,-4.3283,-4.3283,-4.3491,-4.3777,-4.386,-4.3892,-4.3892,-4.3989,-4.4005,-4.4191,-4.5045,-4.5398,-4.5677,-4.6327,-4.6494,-4.6698,-4.7516,-4.7701,-4.7924,-4.8723,-4.8909,-4.8909,-4.8909,-4.8909,-4.8909,-4.8909,-4.8909,-4.8909,-4.8909,-4.8909,-4.8909,-4.8909,-4.8909,-4.8649,-4.7999,-4.824,-4.7906,-4.6605,-4.6197,-4.5732,-4.5082,-4.4395,-4.4005,-4.4005,-4.4005,-4.4005,-4.4005,-4.4005,-4.4005,-4.4005,-4.3923,-4.3923,-4.4005,-4.4005,-4.3974,0.0,0.0,0.0,-2.7789,0.0,0.0,0.0,-2.7157,-2.7052,0.0,0.0,0.0,0.0,0.0,0.0,0.0,0.0,0.0,0.0,0.0,0.0,0.0,0.0,0.0,0.0,-3.0816,-3.1026,-3.1043,-3.1179,-3.1089,-3.0668,-3.065,-3.0952,-3.1637,-3.1288,-3.1603,-3.2648,-3.3139,-3.3788,-3.4575,-3.5593,-3.65,-3.728,-3.8232,-3.8878,-3.9288,-3.993,-4.08,-4.1777,-4.1986,-4.2669,-4.3508,-4.3014,-4.2704,-4.2594,-4.2959,-4.3335,-4.371,-4.3809,-4.3971,-4.4147,-4.4147,-4.4147,-4.4131,-4.4036,-4.4005,-4.4098,-4.4525,-4.4952,-4.5287,-4.5249,-4.5862,-4.6605,-4.7014,-4.7404,-4.7958,-4.8842,-4.9046,-4.9079,-4.9144,-4.916,-4.9094,-4.8943,-4.8909,-4.8909,-4.8909,-4.8909,-4.8909,-4.8909,-4.8909,-4.876,-4.8333,-4.7943,-4.7386,-4.6568,-4.5732,-4.5082,-4.4674,-4.4246,-4.4005,-4.4005,-4.4005,-4.4005,-4.4005,-4.4005,-4.4005,-4.4005,-4.4005,-4.4005,-4.4005,-4.4005,-4.4005,0.0,0.0,0.0,0.0,0.0,-2.7195,0.0,0.0,0.0,-2.6616,0.0,0.0,0.0,0.0,0.0,0.0,0.0,0.0,0.0,0.0,0.0,0.0,0.0,0.0,0.0,-2.9528,-2.9632,-2.968,-2.9935,-3.002,-2.9878,-2.9878,-3.0197,-3.0902,-3.0762,-3.1025,-3.1742,-3.2634,-3.3161,-3.3371,-3.533,-3.6325,-3.6522,-3.8235,-3.8989,-3.9043,-3.9899,-4.0912,-4.1986,-4.2184,-4.298,-4.4009,-4.3365,-4.295,-4.276,-4.3371,-4.3809,-4.4113,-4.424,-4.4285,-4.4285,-4.4237,-4.427,-4.4285,-4.4147,-4.4097,-4.4097,-4.4097,-4.46,-4.4972,-4.4284,-4.5214,-4.635,-4.635,-4.6964,-4.7798,-4.8803,-4.9003,-4.9089,-4.9346,-4.9399,-4.9302,-4.9044,-4.8993,-4.8993,-4.8993,-4.8959,-4.896,-4.896,-4.8777,-4.8667,-4.8667,-4.7367,-4.6494,-4.6494,-4.5119,-4.4246,-4.4246,-4.4098,-4.4005,-4.4005,-4.4005,-4.4005,-4.4005,-4.4005,-4.4005,-4.4005,-4.4005,-4.4005,-4.4005,-4.4005,-4.4005,0.0,0.0,0.0,0.0,-2.8719,0.0,0.0,0.0,-2.7385,-2.6721,0.0,0.0,0.0,0.0,0.0,0.0,0.0,0.0,0.0,0.0,0.0,0.0,0.0,0.0,0.0,0.0,-2.8849,-2.8926,-2.9637,-2.979,-2.907,-2.9035,-2.9388,-3.0195,-2.9529,-2.9587,-3.0497,-3.1422,-3.2309,-3.316,-3.4934,-3.6103,-3.669,-3.7809,-3.8276,-3.8262,-3.8842,-3.9575,-4.0392,-4.0838,-4.1922,-4.3385,-4.405,-4.4206,-4.4076,-4.4225,-4.4335,-4.443,-4.4274,-4.4259,-4.427,-4.4082,-4.4162,-4.4314,-4.4397,-4.444,-4.444,-4.444,-4.4515,-4.4571,-4.4477,-4.51,-4.5794,-4.5794,-4.6413,-4.7234,-4.813,-4.8318,-4.8524,-4.9268,-4.9399,-4.9399,-4.9352,-4.9334,-4.9334,-4.9334,-4.9244,-4.9181,-4.9181,-4.8379,-4.785,-4.785,-4.7033,-4.6494,-4.6494,-4.5658,-4.5138,-4.5138,-4.4432,-4.4005,-4.4005,-4.4005,-4.4005,-4.4005,-4.4005,-4.4005,-4.4005,-4.4005,-4.4005,-4.4005,-4.4005,-4.4005,0.0,0.0,0.0,0.0,0.0,0.0,-2.7238,0.0,-2.6981,0.0,0.0,0.0,0.0,0.0,0.0,0.0,0.0,0.0,0.0,0.0,0.0,0.0,0.0,0.0,0.0,0.0,0.0,0.0,0.0,-2.7986,-2.7819,-2.8191,-2.8881,-2.9826,-2.9537,-3.0048,-3.1441,-3.1845,-3.252,-3.3449,-3.4825,-3.5868,-3.6681,-3.7752,-3.8498,-3.8929,-3.9149,-3.9767,-4.0632,-4.0804,-4.155,-4.2648,-4.3076,-4.3659,-4.4285,-4.4207,-4.4188,-4.4237,-4.4344,-4.4387,-4.4397,-4.4407,-4.4407,-4.443,-4.4487,-4.4501,-4.4501,-4.4501,-4.4838,-4.5101,-4.4613,-4.5439,-4.6284,-4.58,-4.6321,-4.7158,-4.811,-4.8313,-4.8602,-4.9499,-4.9698,-4.9698,-4.9698,-4.9461,-4.9273,-4.9273,-4.9146,-4.9062,-4.9179,-4.8321,-4.7735,-4.7851,-4.6634,-4.5788,-4.5788,-4.5026,-4.4544,-4.4544,-4.4191,-4.4005,-4.4005,-4.4005,-4.4005,-4.4005,-4.4005,-4.4005,-4.4005,-4.4005,-4.4005,-4.4005,-4.4005,-4.4005,-2.958,0.0,0.0,0.0,0.0,0.0,0.0,0.0,0.0,0.0,0.0,0.0,0.0,0.0,0.0,0.0,0.0,0.0,0.0,0.0,0.0,0.0,0.0,0.0,0.0,0.0,0.0,-2.5384,-2.6001,-2.6543,-2.6947,-2.7482,-2.8219,-2.9228,-2.9494,-3.0296,-3.1712,-3.215,-3.275,-3.3515,-3.476,-3.5683,-3.6315,-3.7661,-3.8583,-3.9127,-3.9432,-3.9981,-4.0679,-4.0613,-4.1115,-4.1956,-4.2169,-4.3013,-4.4064,-4.393,-4.4013,-4.4244,-4.4411,-4.4468,-4.4496,-4.4659,-4.4632,-4.4551,-4.4592,-4.4605,-4.4605,-4.4605,-4.5038,-4.5345,-4.4756,-4.5471,-4.6205,-4.5608,-4.5942,-4.6685,-4.7871,-4.7956,-4.8223,-4.9619,-4.9722,-4.9646,-4.9855,-4.9611,-4.9384,-4.9384,-4.9244,-4.9085,-4.899,-4.8133,-4.7564,-4.7673,-4.6141,-4.5171,-4.5348,-4.4615,-4.4113,-4.4082,-4.4036,-4.4005,-4.4005,-4.4005,-4.4005,-4.4005,-4.4005,-4.4005,-4.4005,-4.4005,-4.4005,-4.4005,-4.4005,-4.4005,0.0,0.0,0.0,-2.9726,0.0,0.0,0.0,0.0,-2.8614,0.0,0.0,0.0,0.0,0.0,0.0,0.0,0.0,0.0,0.0,0.0,0.0,0.0,0.0,0.0,0.0,0.0,0.0,-2.5587,-2.5748,-2.6142,-2.6867,-2.6939,-2.7308,-2.8134,-2.8961,-2.9697,-3.0258,-3.1807,-3.2742,-3.3045,-3.4699,-3.5459,-3.5506,-3.7362,-3.8178,-3.8197,-3.9236,-3.9754,-3.9841,-3.983,-4.0394,-4.131,-4.1956,-4.2743,-4.3516,-4.3516,-4.4045,-4.4732,-4.4496,-4.4397,-4.444,-4.4646,-4.4699,-4.4725,-4.4846,-4.4883,-4.4883,-4.4883,-4.4921,-4.4921,-4.4883,-4.494,-4.4959,-4.494,-4.4959,-4.5413,-4.7074,-4.6828,-4.6999,-4.9438,-4.9267,-4.9002,-4.9779,-4.9898,-4.9885,-4.9885,-4.9759,-4.9376,-4.8532,-4.7592,-4.7016,-4.6941,-4.5481,-4.4786,-4.5439,-4.4884,-4.443,-4.43,-4.4116,-4.4005,-4.4005,-4.4005,-4.4005,-4.4005,-4.4005,-4.4005,-4.4005,-4.4005,-4.4005,-4.4005,-4.4005,-4.4005,0.0,0.0,-3.1592,-3.0659,0.0,0.0,0.0,0.0,0.0,0.0,0.0,0.0,0.0,0.0,0.0,0.0,0.0,0.0,0.0,0.0,0.0,0.0,0.0,0.0,0.0,0.0,0.0,-2.434,-2.5,-2.5586,0.0,-2.7013,-2.7787,-2.8276,-2.9625,-3.0717,-3.152,-3.2633,-3.3551,-3.4252,-3.4835,-3.5381,-3.5967,-3.7092,-3.7913,-3.8474,-3.9248,-3.9623,-3.9724,-3.9635,-3.9828,-4.0287,-4.1089,-4.1944,-4.2818,-4.3809,-4.4353,-4.4605,-4.4605,-4.4672,-4.4745,-4.4808,-4.4821,-4.4833,-4.4902,-4.4895,-4.4895,-4.4895,-4.4895,-4.4895,-4.4895,-4.4895,-4.4895,-4.4895,-4.4895,-4.5217,-4.6354,-4.6392,-4.6601,-4.7965,-4.849,-4.8793,-4.9059,-4.9115,-4.9265,-4.9698,-4.9615,-4.9235,-4.8508,-4.7531,-4.6759,-4.6276,-4.5209,-4.4599,-4.4824,-4.4623,-4.4444,-4.43,-4.424,-4.4147,-4.4005,-4.4005,-4.4005,-4.4005,-4.4005,-4.4005,-4.4005,-4.4005,-4.4005,-4.4005,-4.4005,-4.4005,-3.2115,-3.2031,0.0,-3.1023,-3.0142,0.0,-2.9405,0.0,0.0,0.0,0.0,0.0,0.0,0.0,0.0,0.0,0.0,0.0,0.0,-2.3675,0.0,0.0,0.0,0.0,0.0,0.0,-2.366,-2.3923,-2.4508,-2.5196,0.0,0.0,-2.7873,-2.8662,-2.9988,-3.116,-3.2116,-3.2982,-3.3859,-3.4708,-3.4768,-3.5222,-3.6042,-3.6874,-3.7705,-3.8531,-3.9267,-3.9618,-3.9689,-3.9613,-3.9618,-3.9833,-4.0976,-4.1779,-4.2439,-4.3678,-4.4339,-4.4578,-4.4672,-4.4757,-4.4858,-4.4858,-4.487,-4.4895,-4.4895,-4.4895,-4.4895,-4.4895,-4.4895,-4.4895,-4.4895,-4.4895,-4.4895,-4.4895,-4.4895,-4.5141,-4.6013,-4.5956,-4.607,-4.7169,-4.7605,-4.7902,-4.8187,-4.8243,-4.8583,-4.9622,-4.9428,-4.889,-4.8126,-4.7471,-4.6684,-4.5645,-4.5,-4.4646,-4.4646,-4.4551,-4.4487,-4.444,-4.4401,-4.431,-4.4173,-4.4173,-4.4304,-4.4599,-4.4322,-4.4322,-4.4599,-4.4322,-4.4173,-4.4173,-4.4173,-4.4173]},{"header":{"parameterUnit":"m.s-1","parameterCategory":1,"la1":30.6,"la2":29.2853,"lo1":-89.7004,"lo2":-87.6739,"dy":0.0162,"dx":0.0183,"nx":112,"ny":82,"refTime":"2023-08-02T18:00:00:Z","depth":0,"parameterNumber":3,"parameterNumberName":"V-component_of_WINDS"},"data":[0.0,0.0,0.0,0.0,0.0,0.0,0.0,0.0,0.0,0.0,0.0,0.0,0.0,0.0,0.0,0.0,0.0,0.0,0.0,0.0,0.0,0.0,0.0,0.0,0.0,0.0,0.0,0.0,0.0,0.0,0.0,0.0,0.0,0.0,0.0,0.0,0.0,0.0,0.0,0.0,0.0,0.0,0.0,0.0,0.0,0.0,0.0,0.0,0.0,0.0,0.0,0.0,0.0,0.0,0.0,0.0,0.0,0.0,0.0,0.0,0.0,0.0,0.0,0.0,0.0,0.0,0.0,0.0,0.0,0.0,0.0,0.0,0.0,0.0,0.0,0.0,0.0,0.0,0.0,0.0,0.0,0.0,0.0,0.0,0.0,0.0,0.0,0.0,0.0,0.0,-1.5361,-1.6911,-1.9528,-2.0825,-1.9849,-1.9787,-1.8615,-1.5919,0.0,0.0,0.0,0.0,0.0,0.0,0.0,0.0,0.0,0.0,0.0,0.0,0.0,0.0,0.0,0.0,0.0,0.0,0.0,0.0,0.0,0.0,0.0,0.0,0.0,0.0,0.0,0.0,0.0,0.0,0.0,0.0,0.0,0.0,0.0,0.0,0.0,0.0,0.0,0.0,0.0,0.0,0.0,0.0,0.0,0.0,0.0,0.0,0.0,0.0,0.0,0.0,0.0,0.0,0.0,0.0,0.0,0.0,0.0,0.0,0.0,0.0,0.0,0.0,0.0,0.0,0.0,0.0,0.0,0.0,0.0,0.0,0.0,0.0,0.0,0.0,0.0,0.0,0.0,0.0,0.0,0.0,0.0,0.0,0.0,0.0,0.0,0.0,0.0,0.0,0.0,0.0,0.0,0.0,0.0,0.0,0.0,0.0,0.0,0.0,0.0,0.0,0.0,0.0,-1.5807,-1.892,-2.0656,-2.1684,-2.1931,-1.9669,-1.7828,-1.6934,0.0,0.0,0.0,0.0,0.0,0.0,0.0,0.0,0.0,0.0,0.0,0.0,0.0,0.0,0.0,0.0,0.0,0.0,0.0,0.0,0.0,0.0,0.0,0.0,0.0,0.0,0.0,0.0,0.0,0.0,0.0,0.0,0.0,0.0,0.0,0.0,0.0,0.0,0.0,0.0,0.0,0.0,0.0,0.0,0.0,0.0,0.0,0.0,0.0,0.0,0.0,0.0,0.0,0.0,0.0,0.0,0.0,0.0,0.0,0.0,0.0,0.0,0.0,0.0,0.0,0.0,0.0,0.0,0.0,0.0,0.0,0.0,0.0,0.0,0.0,0.0,0.0,0.0,0.0,0.0,0.0,0.0,0.0,0.0,0.0,0.0,0.0,0.0,0.0,0.0,0.0,0.0,0.0,0.0,0.0,0.0,0.0,0.0,0.0,0.0,0.0,0.0,0.0,-1.5368,-1.701,-1.9981,-2.1155,-2.1874,-2.223,-2.0122,-1.8317,-1.707,-1.5735,0.0,0.0,0.0,0.0,0.0,0.0,0.0,0.0,0.0,0.0,0.0,0.0,0.0,0.0,0.0,0.0,0.0,0.0,0.0,0.0,0.0,0.0,0.0,0.0,0.0,0.0,0.0,0.0,0.0,0.0,0.0,0.0,0.0,0.0,0.0,0.0,0.0,0.0,0.0,0.0,0.0,0.0,0.0,0.0,0.0,0.0,0.0,0.0,0.0,0.0,0.0,0.0,0.0,0.0,0.0,0.0,0.0,0.0,0.0,0.0,0.0,0.0,0.0,0.0,0.0,0.0,0.0,0.0,0.0,0.0,0.0,0.0,0.0,0.0,0.0,0.0,0.0,0.0,0.0,0.0,0.0,0.0,0.0,0.0,0.0,0.0,0.0,0.0,0.0,0.0,0.0,0.0,0.0,0.0,0.0,0.0,0.0,0.0,0.0,0.0,0.0,0.0,-1.6884,-1.8009,-2.0545,-2.1332,-2.1739,-2.1868,-2.0355,-1.8646,-1.6872,-1.5405,0.0,0.0,0.0,0.0,0.0,0.0,0.0,0.0,0.0,0.0,0.0,0.0,0.0,0.0,0.0,0.0,0.0,0.0,0.0,0.0,0.0,0.0,0.0,0.0,0.0,0.0,0.0,0.0,0.0,0.0,0.0,0.0,0.0,0.0,0.0,0.0,0.0,0.0,0.0,0.0,0.0,0.0,0.0,0.0,0.0,0.0,0.0,0.0,0.0,0.0,0.0,0.0,0.0,0.0,0.0,0.0,0.0,0.0,0.0,0.0,0.0,0.0,0.0,0.0,0.0,0.0,0.0,0.0,0.0,0.0,0.0,0.0,0.0,0.0,0.0,0.0,0.0,0.0,0.0,0.0,0.0,0.0,0.0,0.0,0.0,0.0,0.0,0.0,0.0,0.0,0.0,0.0,0.0,0.0,0.0,0.0,0.0,0.0,0.0,0.0,0.0,0.0,-1.6871,-1.8313,-2.0573,-2.1332,-2.1575,-2.1181,-1.9677,-1.8064,-1.6425,-1.4857,0.0,0.0,0.0,0.0,0.0,0.0,0.0,0.0,0.0,0.0,0.0,0.0,0.0,0.0,0.0,0.0,0.0,0.0,0.0,0.0,0.0,0.0,0.0,0.0,0.0,0.0,0.0,0.0,0.0,0.0,0.0,0.0,0.0,0.0,0.0,0.0,0.0,0.0,0.0,0.0,0.0,0.0,0.0,0.0,0.0,0.0,0.0,0.0,0.0,0.0,0.0,0.0,0.0,0.0,0.0,0.0,0.0,0.0,0.0,0.0,0.0,0.0,0.0,0.0,0.0,0.0,0.0,0.0,0.0,0.0,0.0,0.0,0.0,0.0,0.0,0.0,0.0,0.0,0.0,0.0,0.0,0.0,0.0,0.0,0.0,0.0,0.0,0.0,0.0,0.0,0.0,0.0,0.0,0.0,0.0,0.0,0.0,0.0,0.0,0.0,0.0,0.0,-1.6871,-1.8238,0.0,-2.0842,-2.1035,-2.075,-1.9265,-1.7761,-1.6404,0.0,0.0,0.0,0.0,0.0,0.0,0.0,0.0,0.0,0.0,0.0,0.0,0.0,0.0,0.0,0.0,0.0,0.0,0.0,0.0,0.0,0.0,0.0,0.0,0.0,0.0,0.0,0.0,0.0,0.0,0.0,0.0,0.0,0.0,0.0,0.0,0.0,0.0,0.0,0.0,0.0,0.0,0.0,0.0,0.0,0.0,0.0,0.0,0.0,0.0,0.0,0.0,0.0,0.0,0.0,0.0,0.0,0.0,0.0,0.0,0.0,0.0,0.0,0.0,0.0,0.0,0.0,0.0,0.0,0.0,0.0,0.0,0.0,0.0,0.0,0.0,0.0,0.0,0.0,0.0,0.0,0.0,0.0,0.0,0.0,0.0,0.0,0.0,0.0,0.0,0.0,0.0,0.0,0.0,0.0,0.0,0.0,0.0,0.0,0.0,0.0,0.0,-1.5858,-1.6936,-1.819,0.0,-2.0555,-2.0652,-2.0246,-1.8827,-1.7358,-1.6019,0.0,0.0,0.0,0.0,0.0,0.0,0.0,0.0,0.0,0.0,0.0,0.0,0.0,0.0,0.0,0.0,0.0,0.0,0.0,0.0,0.0,0.0,0.0,0.0,0.0,0.0,0.0,0.0,0.0,0.0,0.0,0.0,0.0,0.0,0.0,0.0,0.0,0.0,0.0,0.0,0.0,0.0,0.0,0.0,0.0,0.0,0.0,0.0,0.0,0.0,0.0,0.0,0.0,0.0,0.0,0.0,0.0,0.0,0.0,0.0,0.0,0.0,0.0,0.0,0.0,0.0,0.0,0.0,0.0,0.0,0.0,0.0,0.0,0.0,0.0,0.0,0.0,0.0,0.0,0.0,0.0,0.0,0.0,0.0,0.0,0.0,0.0,0.0,0.0,0.0,0.0,0.0,0.0,0.0,0.0,0.0,0.0,0.0,0.0,0.0,0.0,0.0,-1.6101,-1.7,-1.8184,-2.0006,-2.0536,-2.0452,-1.9662,-1.835,-1.6886,0.0,0.0,0.0,0.0,0.0,0.0,0.0,0.0,0.0,0.0,0.0,0.0,0.0,0.0,0.0,0.0,0.0,0.0,0.0,0.0,0.0,0.0,0.0,0.0,0.0,0.0,0.0,0.0,0.0,0.0,0.0,0.0,0.0,0.0,0.0,0.0,0.0,0.0,0.0,0.0,0.0,0.0,0.0,0.0,0.0,0.0,0.0,0.0,0.0,0.0,0.0,0.0,0.0,0.0,0.0,0.0,0.0,0.0,0.0,0.0,0.0,0.0,0.0,0.0,0.0,0.0,0.0,0.0,0.0,0.0,0.0,0.0,0.0,0.0,0.0,0.0,0.0,0.0,0.0,0.0,0.0,0.0,0.0,0.0,0.0,0.0,0.0,0.0,0.0,0.0,0.0,0.0,0.0,0.0,0.0,0.0,0.0,0.0,0.0,0.0,0.0,0.0,0.0,-1.5941,-1.7004,-1.8063,-1.9226,-1.9468,-1.9372,-1.8985,-1.7496,-1.6121,-1.5166,0.0,0.0,0.0,0.0,0.0,0.0,0.0,0.0,0.0,0.0,0.0,0.0,0.0,0.0,0.0,0.0,0.0,0.0,0.0,0.0,0.0,0.0,0.0,0.0,0.0,0.0,0.0,0.0,0.0,0.0,0.0,0.0,0.0,0.0,0.0,0.0,0.0,0.0,0.0,0.0,0.0,0.0,0.0,0.0,0.0,0.0,0.0,0.0,0.0,0.0,0.0,0.0,0.0,0.0,0.0,0.0,0.0,0.0,0.0,0.0,0.0,0.0,0.0,0.0,0.0,0.0,0.0,0.0,0.0,0.0,0.0,0.0,0.0,0.0,0.0,0.0,0.0,0.0,0.0,0.0,0.0,0.0,0.0,0.0,0.0,0.0,0.0,0.0,0.0,0.0,0.0,0.0,0.0,0.0,0.0,0.0,0.0,0.0,0.0,0.0,0.0,0.0,-1.5961,-1.6852,-1.7802,-1.8872,-1.9002,-1.8899,-1.8599,-1.7147,-1.5898,-1.5157,0.0,0.0,0.0,0.0,0.0,0.0,0.0,0.0,0.0,0.0,0.0,0.0,0.0,0.0,0.0,0.0,0.0,0.0,0.0,0.0,0.0,0.0,0.0,0.0,0.0,0.0,0.0,0.0,0.0,0.0,0.0,0.0,0.0,0.0,0.0,0.0,0.0,0.0,0.0,0.0,0.0,0.0,0.0,0.0,0.0,0.0,0.0,0.0,0.0,0.0,0.0,0.0,0.0,0.0,0.0,0.0,0.0,0.0,0.0,0.0,0.0,0.0,0.0,0.0,0.0,0.0,0.0,0.0,0.0,0.0,0.0,0.0,0.0,0.0,0.0,0.0,0.0,0.0,0.0,0.0,0.0,0.0,0.0,0.0,0.0,0.0,0.0,0.0,0.0,0.0,0.0,0.0,0.0,0.0,0.0,0.0,0.0,0.0,0.0,0.0,0.0,0.0,-1.6111,-1.667,-1.7447,-1.8732,-1.8881,-1.875,-1.8341,-1.7075,-1.5983,-1.5148,0.0,0.0,0.0,0.0,0.0,0.0,0.0,0.0,0.0,0.0,0.0,0.0,0.0,0.0,0.0,0.0,0.0,0.0,0.0,0.0,0.0,0.0,0.0,0.0,0.0,0.0,0.0,0.0,0.0,0.0,0.0,0.0,0.0,0.0,0.0,0.0,0.0,0.0,0.0,0.0,0.0,0.0,0.0,0.0,0.0,0.0,0.0,0.0,0.0,0.0,0.0,0.0,0.0,0.0,0.0,0.0,0.0,0.0,0.0,0.0,-2.0215,0.0,0.0,0.0,0.0,0.0,0.0,0.0,0.0,0.0,0.0,0.0,0.0,0.0,0.0,0.0,0.0,0.0,0.0,0.0,0.0,0.0,0.0,0.0,0.0,0.0,0.0,0.0,0.0,0.0,0.0,0.0,0.0,0.0,0.0,0.0,0.0,0.0,0.0,0.0,0.0,0.0,-1.5785,-1.6828,-1.7611,-1.7797,-1.8082,-1.811,-1.7733,-1.6446,-1.5519,-1.5129,-1.4175,0.0,0.0,0.0,0.0,0.0,0.0,0.0,0.0,0.0,0.0,0.0,0.0,0.0,0.0,0.0,0.0,0.0,0.0,0.0,0.0,0.0,0.0,0.0,0.0,0.0,0.0,0.0,0.0,0.0,0.0,0.0,0.0,0.0,0.0,0.0,0.0,0.0,0.0,0.0,0.0,0.0,0.0,0.0,0.0,0.0,0.0,0.0,0.0,0.0,0.0,0.0,0.0,0.0,0.0,0.0,0.0,0.0,0.0,0.0,0.0,-2.1228,0.0,0.0,0.0,0.0,0.0,0.0,0.0,0.0,0.0,0.0,0.0,0.0,0.0,0.0,0.0,0.0,0.0,0.0,0.0,0.0,0.0,0.0,0.0,0.0,0.0,0.0,0.0,0.0,0.0,0.0,0.0,0.0,0.0,0.0,0.0,0.0,0.0,0.0,0.0,0.0,-1.5693,-1.6646,-1.7355,-1.7477,-1.7688,-1.7734,-1.7513,-1.6318,-1.5533,-1.5395,-1.4344,0.0,0.0,0.0,0.0,0.0,0.0,0.0,0.0,0.0,0.0,0.0,0.0,0.0,0.0,0.0,0.0,0.0,0.0,0.0,0.0,0.0,0.0,0.0,0.0,0.0,0.0,0.0,0.0,0.0,0.0,0.0,0.0,0.0,0.0,0.0,0.0,0.0,0.0,0.0,0.0,0.0,0.0,0.0,0.0,0.0,0.0,0.0,0.0,0.0,0.0,0.0,0.0,0.0,-2.4595,-2.5189,-2.612,-2.612,-2.6077,-2.5991,-2.4537,-2.3253,-2.2104,-2.1945,0.0,0.0,0.0,0.0,0.0,0.0,0.0,0.0,0.0,0.0,0.0,0.0,0.0,0.0,0.0,0.0,0.0,0.0,0.0,0.0,0.0,0.0,0.0,0.0,-1.833,-1.8054,0.0,0.0,0.0,0.0,0.0,0.0,0.0,0.0,0.0,0.0,0.0,0.0,-1.5799,-1.6569,-1.7183,-1.7367,-1.7523,-1.755,-1.7403,-1.6349,-1.5657,-1.5657,-1.4595,-1.3927,0.0,0.0,0.0,0.0,0.0,0.0,0.0,0.0,0.0,0.0,0.0,0.0,0.0,0.0,0.0,0.0,0.0,0.0,0.0,0.0,0.0,0.0,0.0,0.0,0.0,0.0,0.0,0.0,0.0,0.0,0.0,0.0,-2.0027,-1.9942,0.0,0.0,0.0,0.0,0.0,0.0,0.0,0.0,0.0,0.0,0.0,0.0,0.0,-2.3454,-2.3639,-2.5621,-2.6519,-2.634,-2.8111,-2.897,-2.8961,-2.8961,-2.8809,-2.8567,-2.7977,0.0,-2.3802,-2.3245,0.0,0.0,0.0,0.0,0.0,0.0,0.0,0.0,0.0,0.0,0.0,0.0,0.0,0.0,0.0,0.0,0.0,0.0,0.0,0.0,0.0,0.0,-1.8803,-1.9093,-1.9146,-1.91,0.0,-1.7816,-1.6716,-1.6312,-1.5982,0.0,0.0,0.0,0.0,0.0,0.0,0.0,-1.623,-1.7212,-1.7679,-1.7055,-1.7614,-1.7752,-1.7046,-1.6093,-1.5528,-1.5528,-1.4707,-1.4053,-1.3654,-1.3771,0.0,0.0,0.0,0.0,0.0,0.0,0.0,0.0,0.0,0.0,0.0,0.0,0.0,0.0,0.0,0.0,0.0,0.0,0.0,0.0,0.0,0.0,0.0,0.0,0.0,0.0,0.0,0.0,0.0,-2.0065,-2.0642,-1.9915,-2.0439,-2.0491,0.0,0.0,0.0,0.0,0.0,0.0,0.0,0.0,0.0,-2.4457,-2.5765,-2.6444,-2.6393,-2.7945,-2.8946,-2.9241,-3.0167,-3.0929,-3.1498,-3.1498,-3.1436,-3.1302,-3.0845,-2.9617,-2.7769,-2.5274,-2.3583,-2.251,0.0,0.0,0.0,0.0,-2.1756,-2.2014,-2.2273,-2.26,0.0,-2.1877,0.0,0.0,0.0,0.0,0.0,0.0,0.0,0.0,0.0,0.0,-2.0398,-2.069,-2.0348,-2.0044,-2.0264,-1.9412,-1.8421,0.0,-1.7513,-1.7209,-1.6646,0.0,0.0,0.0,0.0,-1.6652,-1.6652,-1.7303,-1.7633,-1.7275,-1.7559,-1.7532,-1.6954,-1.6309,-1.5805,-1.5513,-1.4731,-1.4156,-1.3841,-1.3583,-1.3839,0.0,0.0,0.0,0.0,0.0,0.0,0.0,0.0,0.0,0.0,0.0,0.0,0.0,0.0,0.0,0.0,0.0,0.0,0.0,0.0,0.0,0.0,0.0,0.0,0.0,0.0,0.0,0.0,-2.0592,-2.1298,-2.0066,-2.1303,-2.1711,0.0,0.0,0.0,0.0,0.0,0.0,-2.452,-2.4995,-2.5802,-2.7055,-2.8414,-2.906,-2.8898,-3.003,-3.0925,-3.1622,-3.1793,-3.2425,-3.3431,-3.3311,-3.331,-3.3224,-3.2712,-3.1962,-3.0939,-2.7535,-2.5476,-2.4283,-2.3349,-2.2947,-2.2873,-2.2977,-2.3349,-2.3826,-2.4012,-2.4387,-2.4608,-2.339,0.0,-2.3139,-2.2524,0.0,0.0,0.0,0.0,-2.2992,-2.3486,-2.2895,-2.2241,-2.2527,-2.1874,-2.1239,-2.1537,-2.0967,-2.0076,0.0,-1.8852,-1.8431,-1.7589,0.0,0.0,0.0,0.0,-1.7101,-1.7202,-1.7559,-1.7724,-1.7513,-1.7587,-1.7458,-1.6945,-1.6508,-1.6005,-1.5458,-1.4759,-1.4246,-1.395,-1.3546,-1.3845,-1.4932,0.0,0.0,0.0,0.0,0.0,0.0,0.0,0.0,0.0,0.0,0.0,0.0,0.0,0.0,0.0,0.0,0.0,0.0,0.0,0.0,0.0,0.0,0.0,0.0,0.0,0.0,0.0,0.0,0.0,-2.0461,-2.2843,0.0,0.0,0.0,0.0,-2.3774,-2.454,-2.544,-2.6428,-2.6915,-2.7552,-2.8483,-2.9701,-3.0402,-3.0596,-3.1686,-3.2488,-3.2817,-3.3274,-3.3845,-3.4436,-3.3967,-3.3759,-3.3726,-3.2987,-3.2382,-3.1808,-2.9829,-2.8164,-2.6746,-2.5786,-2.557,-2.5695,-2.4747,-2.4855,-2.5396,-2.4686,-2.4476,-2.4529,-2.4425,-2.4116,-2.3845,-2.4149,-2.3958,0.0,0.0,-2.4258,-2.3831,-2.4741,-2.4381,-2.3888,-2.428,-2.3644,-2.295,-2.3023,-2.2268,-2.1248,0.0,-1.9198,-1.8577,-1.8137,0.0,-1.7449,-1.7413,-1.744,-1.7614,-1.7972,-1.8412,-1.8357,-1.7578,-1.7853,-1.7734,-1.6972,-1.6406,-1.5839,-1.5239,-1.4813,-1.436,-1.3847,-1.3914,-1.4064,-1.4327,-1.4894,0.0,0.0,0.0,0.0,0.0,0.0,0.0,0.0,0.0,0.0,0.0,0.0,0.0,0.0,0.0,0.0,0.0,0.0,0.0,0.0,0.0,0.0,0.0,0.0,0.0,0.0,0.0,0.0,-2.3563,-2.5625,0.0,-2.5303,-2.5443,-2.5854,-2.6434,-2.7055,-2.7945,-2.9156,-2.9932,-3.075,-3.165,-3.2563,-3.3073,-3.3205,-3.3703,-3.3997,-3.4146,-3.414,-3.43,-3.4513,-3.4349,-3.4261,-3.4261,-3.3976,-3.3562,-3.3062,-3.2219,-3.0469,-2.8225,-2.7123,-2.677,-2.6781,-2.6413,-2.6615,-2.703,-2.6629,-2.6599,-2.6679,-2.6086,-2.5563,-2.5178,-2.5329,-2.5181,-2.5116,-2.5773,-2.5944,-2.6113,-2.6791,-2.6323,-2.5668,-2.5808,-2.4921,-2.3844,-2.3226,-2.2843,-2.229,-2.1259,-2.0387,-1.9586,-1.8621,-1.8375,-1.81,-1.7578,-1.7724,-1.8045,-1.8411,-1.8623,-1.8605,-1.8311,-1.8183,-1.7899,-1.733,-1.6883,-1.6211,-1.5257,-1.4935,-1.444,-1.3649,-1.3732,-1.39,-1.41,-1.4526,-1.4531,0.0,0.0,0.0,0.0,0.0,0.0,0.0,0.0,0.0,0.0,0.0,0.0,0.0,0.0,0.0,0.0,0.0,0.0,0.0,0.0,0.0,0.0,0.0,0.0,0.0,0.0,-2.6372,-2.6134,-2.8164,-2.9161,-2.8087,-2.8235,-2.8607,-2.9052,-2.9653,-3.047,-3.1536,-3.2168,-3.283,-3.3586,-3.4191,-3.4536,-3.4606,-3.479,-3.4833,-3.464,-3.4623,-3.4508,-3.4367,-3.4468,-3.4524,-3.4524,-3.4524,-3.4338,-3.3977,-3.3528,-3.2062,-3.0071,-2.8833,-2.8369,-2.8289,-2.788,-2.8046,-2.8466,-2.8067,-2.8084,-2.8145,-2.7563,-2.7137,-2.6824,-2.6662,-2.665,-2.676,-2.6973,-2.7334,-2.7805,-2.8138,-2.7782,-2.7299,-2.7299,-2.6357,-2.5162,-2.4042,-2.3584,-2.3105,-2.2318,-2.1398,-2.042,-1.9485,-1.9091,-1.8779,-1.8375,-1.832,-1.8484,-1.9054,-1.8999,-1.8861,-1.8724,-1.8476,-1.8091,-1.7541,-1.7257,-1.6658,-1.5569,-1.5236,-1.4738,-1.39,-1.3824,-1.3891,-1.41,-1.4484,-1.4466,-1.3979,0.0,0.0,0.0,0.0,0.0,0.0,0.0,0.0,0.0,0.0,0.0,0.0,0.0,0.0,0.0,0.0,0.0,0.0,0.0,0.0,0.0,0.0,0.0,-2.4023,-2.631,-2.8028,-2.8069,-3.047,-3.1422,-2.9642,-3.1091,-3.1961,-3.1516,-3.2313,-3.2996,-3.3399,-3.3489,-3.3706,-3.4152,-3.447,-3.4648,-3.4648,-3.5002,-3.4864,-3.4338,-3.4662,-3.4585,-3.4119,-3.4367,-3.4524,-3.4524,-3.4524,-3.4524,-3.4435,-3.369,-3.2942,-3.2146,-3.0937,-3.0401,-3.0234,-2.9081,-2.9069,-2.9585,-2.8884,-2.8684,-2.8743,-2.8755,-2.8727,-2.8645,-2.8205,-2.8344,-2.8597,-2.8138,-2.8356,-2.8723,-2.8723,-2.8723,-2.8723,-2.8723,-2.805,-2.6998,-2.5507,-2.4533,-2.3757,-2.3184,-2.1995,-2.0998,-2.0646,-1.9879,-1.9494,-1.9847,-1.9225,0.0,-1.9793,-1.9567,-1.9155,-1.877,-1.8724,-1.8385,-1.7587,-1.7504,-1.7121,-1.6165,-1.574,-1.5268,-1.4644,-1.424,-1.4144,-1.4342,-1.4848,-1.5184,-1.5352,0.0,0.0,0.0,0.0,0.0,0.0,0.0,0.0,0.0,0.0,0.0,0.0,0.0,0.0,0.0,0.0,0.0,0.0,0.0,0.0,0.0,0.0,-2.6376,-2.6376,-2.8598,-3.0495,-3.1288,-3.3116,-3.4039,-3.3364,-3.401,-3.431,-3.3924,-3.4362,-3.459,-3.4443,-3.4925,-3.5286,-3.5411,-3.5483,-3.5797,-3.6282,-3.5759,-3.5574,-3.5672,-3.5262,-3.4929,-3.4604,-3.4519,-3.4524,-3.4524,-3.4524,-3.4524,-3.4457,-3.3823,-3.3076,-3.2232,-3.1243,-3.059,-3.0068,-2.9756,-2.9641,-2.9709,-2.9674,-2.9714,-2.978,-2.9777,-2.9652,-2.9444,-2.9186,-2.8907,-2.8666,-2.854,-2.8873,-2.9274,-2.9274,-2.9274,-2.9274,-2.9274,-2.8539,-2.735,-2.5565,-2.4728,-2.3874,-2.2397,-2.1773,-2.1604,-2.1906,-2.1217,-2.0549,-2.0383,-1.9884,0.0,-1.9866,-1.9567,-1.9304,-1.936,-1.9073,-1.8722,-1.8202,-1.7896,-1.7245,-1.6165,-1.6078,-1.5767,-1.5071,-1.5169,-1.5264,-1.5296,-1.5162,-1.5464,0.0,0.0,0.0,0.0,0.0,0.0,0.0,0.0,0.0,0.0,0.0,0.0,0.0,0.0,0.0,0.0,0.0,0.0,0.0,0.0,0.0,0.0,-2.7169,-2.8731,-2.9735,-3.1129,-3.2554,-3.3958,-3.496,-3.5572,-3.5656,-3.5852,-3.5894,-3.5635,-3.5676,-3.5666,-3.5592,-3.5633,-3.5737,-3.5921,-3.6044,-3.63,-3.6678,-3.651,-3.6333,-3.6188,-3.5773,-3.5258,-3.4776,-3.4573,-3.4524,0.0,-3.4356,-3.4311,-3.4289,-3.358,-3.2846,0.0,0.0,0.0,0.0,0.0,-2.9933,-2.9869,-3.0013,-3.0256,-3.0499,-3.0495,-3.0552,-3.049,-2.9964,-2.9745,-2.9584,-2.916,-2.9401,-2.9802,-2.9802,-2.9802,-2.9802,-2.9802,-2.9343,-2.8447,-2.6787,-2.6039,-2.5223,-2.3497,-2.2713,0.0,-2.2697,-2.1815,-2.1089,-2.0991,-2.036,-1.9948,-2.0113,-1.9668,-1.9341,-1.9478,-1.9256,-1.8942,-1.8544,-1.8147,0.0,0.0,0.0,-1.603,-1.5425,-1.5592,0.0,0.0,0.0,-1.5886,-1.6466,0.0,0.0,0.0,-1.6235,-1.6039,0.0,0.0,0.0,0.0,0.0,0.0,0.0,0.0,0.0,0.0,0.0,0.0,0.0,0.0,0.0,0.0,-2.9487,-3.1205,-3.3379,-3.3731,-3.4331,-3.5852,-3.6173,-3.639,-3.6701,-3.6867,-3.6918,-3.6815,-3.6527,-3.6351,-3.6562,0.0,0.0,0.0,0.0,-3.6537,-3.6484,-3.7082,-3.6997,-3.6275,-3.6154,-3.5664,-3.483,-3.4638,-3.4511,-3.4468,-3.4199,-3.4097,-3.4054,-3.329,-3.2501,-3.1806,-3.1387,-3.0719,-2.9994,-2.9994,-2.9994,-2.9994,-2.9994,0.0,0.0,-3.0754,-3.1067,-3.1299,-3.0388,-3.0457,-3.064,-2.9837,-2.9883,-3.0216,-3.0216,-3.0216,-3.0216,-3.0216,-3.017,-2.9761,-2.8331,-2.7634,-2.6889,-2.5424,-2.4052,-2.3096,-2.3096,-2.2013,-2.131,-2.1632,-2.0735,-2.0131,-2.0484,-1.9842,-1.9356,-1.935,0.0,0.0,-1.8781,-1.8348,-1.7908,-1.7487,-1.6729,-1.6145,-1.5803,-1.5794,-1.5826,-1.5826,-1.6193,-1.6386,-1.6352,-1.6734,-1.6908,-1.689,-1.6166,-1.5826,0.0,0.0,0.0,0.0,0.0,0.0,0.0,0.0,0.0,0.0,0.0,0.0,0.0,0.0,0.0,-2.9808,-3.1909,-3.3824,-3.5366,-3.5904,-3.5997,-3.5604,-3.6546,-3.697,-3.6308,-3.726,-3.7612,-3.6856,-3.7311,-3.7198,-3.6279,-3.7191,-3.7313,-3.6321,-3.702,-3.7339,-3.7203,-3.7093,-3.6939,-3.6781,0.0,0.0,-3.4965,-3.5002,-3.476,-3.4199,-3.4142,-3.4199,-3.4356,-3.3484,-3.2661,-3.1851,-3.0698,-3.0149,-2.9994,-2.9994,-2.9994,-2.9994,-2.9994,-3.0245,-3.0386,-2.9885,-2.9921,-3.0099,-2.973,-2.9691,0.0,-3.0,-3.0147,-3.0216,-3.0216,-3.0216,-3.0216,-3.0216,-2.9917,-2.9271,-2.7845,-2.7097,-2.6314,-2.4931,-2.3807,-2.3096,-2.3096,-2.2259,-2.1595,-2.1678,-2.1245,-2.0796,-2.0549,-2.0058,-1.9727,-1.9555,-1.9557,-1.939,-1.8963,-1.8433,-1.7852,-1.728,-1.6669,-1.633,-1.6412,-1.6412,-1.649,-1.667,-1.6752,-1.6789,-1.6789,-1.6872,-1.6908,-1.6899,-1.6743,-1.667,0.0,0.0,0.0,0.0,0.0,0.0,0.0,0.0,0.0,0.0,0.0,-2.6543,0.0,0.0,-3.1081,-3.3379,-3.4693,-3.5759,-3.667,-3.7394,-3.7488,-3.6566,-3.7074,-3.7405,-3.7177,-3.757,-3.7643,-3.7187,-3.733,-3.725,-3.6971,-3.7276,-3.7315,-3.702,-3.742,-3.7436,-3.7154,-3.7392,-3.7392,-3.7143,-3.6856,-3.6258,-3.5466,-3.5258,-3.4847,-3.4311,-3.4142,-3.4199,-3.4233,-3.3268,-3.2406,-3.1619,-3.0698,-3.0336,-3.0315,-3.0087,-2.9994,-2.9994,-2.9994,-3.0245,-3.0566,-3.0202,-3.0185,-3.0351,-3.0367,-3.0141,-3.0,-3.06,-3.0465,-3.0272,-3.0514,-3.0422,-3.0216,-3.0216,-2.9659,-2.9048,-2.8836,-2.7424,-2.6004,-2.5378,-2.4092,-2.2974,-2.2457,-2.1989,-2.1696,-2.1696,-2.1383,-2.0961,-2.0567,-2.0131,-1.9769,-1.9476,-1.9429,-1.9386,-1.9173,-1.8709,-1.8191,-1.7697,-1.7072,-1.6848,-1.7051,-1.6746,-1.6682,-1.6908,-1.6908,-1.6839,-1.6751,-1.6751,-1.6751,-1.6751,-1.6656,-1.67,0.0,0.0,0.0,0.0,0.0,0.0,0.0,0.0,-2.6129,-2.7061,-2.8322,-2.9787,-3.1608,-3.2777,-3.4269,-3.6566,-3.7011,-3.7198,-3.757,-3.8181,-3.8316,-3.7581,-3.757,-3.7705,-3.7902,-3.7719,-3.7618,-3.7618,-3.7424,-3.7431,-3.7689,-3.7445,-3.7401,-3.7477,-3.7749,-3.7587,-3.7123,-3.7699,-3.7767,-3.7374,-3.7003,-3.6522,-3.5896,-3.5539,-3.4991,-3.4412,-3.4255,-3.4086,-3.3952,-3.3064,-3.2298,-3.1574,-3.1052,-3.077,-3.0626,-3.016,-2.9994,-2.9994,-2.9994,-3.0297,-3.0619,-3.0534,-3.0606,-3.0737,-3.0959,-3.0614,-3.0258,-3.0964,-3.0606,-3.0189,-3.0717,-3.0479,-3.0034,-2.9932,-2.9279,-2.8841,-2.934,-2.7545,-2.5782,-2.5833,-2.4368,-2.2843,-2.2122,-2.182,-2.1696,-2.1696,-2.1403,-2.108,-2.0686,-2.025,-1.9807,-1.9467,-1.9317,-1.9195,-1.9152,-1.8811,-1.8464,-1.8034,-1.756,-1.737,-1.7542,-1.7008,-1.6799,-1.7018,-1.6945,-1.683,-1.6647,-1.6647,-1.6718,-1.6755,-1.6598,-1.6623,-2.2873,-2.2884,-2.3256,-2.4529,-2.5213,-2.6537,0.0,0.0,-3.1102,-3.2799,-3.3596,-3.4196,-3.4787,-3.5718,-3.6587,-3.7301,-3.7767,-3.8046,-3.8098,-3.7839,-3.7601,-3.7508,-3.786,-3.7798,-3.7032,-3.7585,-3.7913,-3.7913,-3.8848,-3.8764,-3.7433,-3.8959,-3.9055,-3.7187,-3.8146,-3.8459,-3.7968,-3.7647,-3.7429,-3.7374,-3.733,-3.6709,-3.5546,-3.5783,-3.5272,-3.4142,-3.4356,-3.4132,-3.3625,-3.3515,-3.305,-3.2319,-3.1584,-3.105,-3.0626,-3.016,-2.9994,-2.9994,-2.9994,-3.0047,-3.0026,-2.9611,-2.9638,-2.9867,-2.9951,-2.9888,-2.9932,-3.0458,-3.0068,-2.9599,-3.0142,-2.9959,-2.9485,-2.8956,-2.8771,-2.8372,-2.71,-2.6266,-2.5689,-2.5261,-2.4078,-2.3052,-2.2965,-2.2246,-2.1696,-2.1696,-2.165,-2.1476,-2.1099,-2.0534,-2.006,-1.9866,-1.933,-1.8888,-1.8518,-1.8445,-1.8226,-1.7678,-1.7578,-1.7608,-1.7777,-1.7361,-1.7225,-1.7431,-1.7082,-1.6908,-1.6874,-1.6874,-1.7047,-1.7395,-1.7395,-1.7088,-2.4807,0.0,0.0,0.0,-2.8545,-3.0056,-3.2302,-3.3089,-3.3782,-3.5345,-3.6246,-3.697,-3.7684,-3.8357,-3.8947,0.0,-3.962,-3.9637,-3.938,-3.8709,-3.792,-3.696,-3.6717,-3.6639,-3.6794,-3.7042,-3.7191,-3.7191,-3.7889,-3.8177,-3.7901,-3.897,-3.8991,-3.7854,-3.8467,-3.8342,-3.7396,-3.7645,-3.7658,-3.7374,-3.7101,-3.6561,-3.578,-3.5602,-3.51,-3.4367,-3.4468,-3.4244,-3.3861,-3.3861,-3.3359,-3.2448,-3.1876,-3.1254,-3.0626,-3.016,-2.9994,-2.9994,-2.9994,-2.9994,-2.9963,-2.9766,-2.9714,-2.976,-3.0037,-2.9968,-2.9909,-3.0691,-3.0381,-2.9861,-3.0114,-2.9628,-2.8907,-2.8427,-2.76,-2.6921,-2.6904,-2.5615,-2.4614,-2.5029,-2.3968,-2.2884,-2.2676,-2.2297,-2.1952,-2.1723,-2.1696,-2.154,-2.1163,-2.0884,-2.0504,-1.9957,-1.9478,-1.9119,-1.8946,-1.8927,-1.8825,-1.8593,-1.8251,-1.8154,-1.8306,-1.785,-1.7642,-1.7862,-1.7661,-1.7432,-1.7079,-1.7079,-1.7034,-1.6961,-1.6865,-1.6669,-2.5558,0.0,0.0,-2.9415,-3.1433,-3.3244,-3.4279,-3.5221,-3.6204,-3.7322,-3.7891,-3.8429,-3.9206,-3.9309,-3.9475,-4.0044,-4.0023,-3.9851,-3.9537,-3.8662,-3.758,-3.6332,-3.5573,-3.5373,-3.605,-3.6415,-3.6686,-3.6864,-3.7551,-3.8018,-3.826,-3.8958,-3.9012,-3.8218,-3.8575,-3.8247,-3.7116,-3.7616,-3.7735,-3.7374,-3.7046,-3.6555,-3.6001,-3.531,-3.484,-3.4524,-3.4524,-3.4412,-3.4199,-3.4142,-3.3452,-3.238,-3.1978,-3.1279,-3.046,-3.0118,-2.9994,-2.9994,-2.9994,-2.9994,-2.9994,-3.0099,-2.9798,-2.957,-3.0286,-2.9777,-2.9146,-3.0224,-2.9725,-2.8932,-2.9157,-2.857,-2.777,-2.7201,-2.6229,-2.5517,-2.6013,-2.4611,-2.3529,-2.4469,-2.373,-2.2776,-2.2355,-2.2282,-2.2144,-2.1751,-2.1696,-2.1577,-2.1319,-2.1181,-2.0763,-1.9925,-1.9619,-1.939,-1.9231,-1.9262,-1.9262,-1.9222,-1.8861,-1.8706,-1.888,-1.8334,-1.8124,-1.8246,-1.8145,-1.7861,-1.7461,-1.7343,-1.7252,-1.7171,-1.6929,-1.6866,-2.4673,0.0,-2.9001,-3.0853,-3.3327,-3.5676,-3.7053,-3.8067,-3.8796,-3.9292,-3.8781,-3.8326,-3.8714,-3.7798,-3.7208,-3.8119,-3.7891,-3.7722,-3.8018,-3.6966,-3.6092,-3.5788,-3.4885,-3.4354,0.0,-3.5678,-3.678,-3.7549,-3.8812,-3.9191,-3.8344,-3.954,-3.9563,-3.7986,-3.846,-3.8399,-3.7579,-3.7443,-3.7385,-3.7374,-3.7363,-3.6861,-3.5991,-3.4982,-3.4534,-3.4524,-3.4524,-3.4524,-3.4468,-3.4199,-3.3371,-3.2253,-3.1906,-3.108,-3.0015,-3.0005,-2.9994,-2.9994,-2.9994,-2.9994,-3.0047,-3.0287,-2.9618,-2.9009,-3.0391,-2.9029,-2.7229,-2.8426,-2.7381,-2.6063,-2.6563,-2.6347,-2.5769,-2.4891,-2.4689,-2.4395,-2.36,-2.3028,-2.2908,-2.3441,-2.3226,-2.2776,-2.2355,-2.2282,-2.2144,-2.1751,-2.1696,-2.1687,-2.1678,-2.1355,-2.0711,-1.9711,-1.9784,-1.9629,-1.9078,-1.9183,-1.9231,-1.9002,-1.9173,-1.9283,-1.9283,-1.8907,-1.8696,-1.8696,-1.832,-1.8081,-1.8072,-1.7697,-1.7899,-1.865,-1.8228,-1.8255,-2.7003,0.0,-3.1857,-3.3989,-3.6121,-3.7974,-3.904,-3.9527,-3.963,-3.9106,-3.7871,-3.667,-3.6225,-3.5759,-3.5645,-3.6256,-3.725,-3.8037,-3.8312,-3.7336,-3.6206,-3.5232,-3.4461,0.0,0.0,0.0,0.0,-3.6178,-3.7497,-3.8006,-3.7417,-3.9214,-3.9304,-3.7087,-3.8161,-3.8133,-3.6841,-3.7219,-3.7374,-3.7374,-3.6741,-3.5885,-3.4721,-3.4564,-3.4412,-3.4255,-3.4412,-3.4524,-3.4468,-3.4412,-3.382,-3.2996,-3.2566,-3.1226,-2.9558,-2.9255,-2.8499,-2.7912,-2.9448,-2.9006,-2.7795,-2.8658,-2.8276,-2.7678,-2.8764,-2.8062,-2.7086,-2.8116,-2.7368,-2.6233,-2.6083,-2.5697,-2.5171,-2.4618,-2.4485,-2.4459,-2.4136,-2.4071,-2.4163,-2.4313,-2.4033,-2.362,-2.316,-2.2867,-2.2465,-2.1797,-2.1696,-2.1696,-2.1696,-2.1374,-2.0863,-2.0249,-1.9907,-1.9507,-1.9038,-1.9073,-1.9073,-1.9002,-1.9183,-1.9301,-1.9301,-1.9173,-1.91,-1.91,-1.8971,-1.8779,-1.8513,-1.8375,-1.8164,-1.7899,-1.777,-1.7706,-2.9322,-3.1715,-3.4041,-3.6484,-3.8222,-3.9495,-4.0065,-3.9961,-3.9261,-3.7846,-3.5976,-3.4383,-3.3589,-3.2815,-3.2742,-3.3911,-3.5034,-3.6102,-3.7181,-3.6342,-3.5455,-3.5178,-3.4461,-3.3663,0.0,0.0,0.0,-3.5276,-3.6827,-3.7656,-3.7364,-3.8738,-3.8819,-3.7087,-3.7811,-3.7635,-3.6433,-3.6972,-3.7177,-3.7123,-3.6337,-3.5493,-3.4493,-3.4488,-3.4412,-3.4255,-3.4423,-3.4524,-3.4524,-3.4524,-3.4073,-3.3321,-3.2445,-3.0965,-2.9307,-2.8379,-2.714,-2.6227,-2.8572,-2.8392,-2.7248,-2.8106,-2.7624,-2.687,-2.7527,-2.6707,-2.5735,-2.6717,-2.6164,-2.5188,-2.4898,-2.4565,-2.4198,-2.3832,-2.3812,-2.3895,-2.3966,-2.4157,-2.4345,-2.4556,-2.4385,-2.4073,-2.3563,-2.3041,-2.2455,-2.1797,-2.1696,-2.1696,-2.1696,-2.1458,-2.1181,-2.0769,-2.024,-1.9716,-1.9236,-1.9154,-1.9073,-1.9002,-1.9183,-1.9301,-1.9301,-1.9301,-1.9301,-1.9301,-1.9301,-1.9173,-1.8916,-1.8779,-1.844,-1.7926,-1.7789,-1.7725,-3.1388,-3.3544,-3.5604,-3.8187,-3.953,-4.0241,-4.0168,-3.9344,-3.798,-3.5728,-3.341,-3.156,0.0,0.0,-2.8636,-3.1101,-3.1449,-3.2286,-3.4886,-3.431,-3.4091,0.0,0.0,0.0,0.0,0.0,0.0,-3.4963,0.0,-3.8084,-3.7979,-3.8179,-3.8196,-3.7752,-3.7316,-3.6869,-3.6423,-3.6739,-3.6855,-3.6653,-3.6184,-3.5692,-3.5157,-3.472,-3.4468,-3.4468,-3.4468,-3.4524,-3.4524,-3.4524,-3.4095,-3.3298,-3.1701,-3.0362,-2.9204,-2.7491,-2.599,-2.5072,-2.7267,-2.8009,-2.8009,-2.8373,-2.7508,-2.6381,-2.6707,-2.5029,-2.3231,-2.4454,-2.3952,-2.3014,-2.3014,-2.3014,-2.2934,-2.2593,-2.2703,-2.2897,-2.3098,-2.3218,-2.3491,-2.408,-2.417,-2.3965,-2.3487,-2.2774,-2.2172,-2.1751,-2.1696,-2.1696,-2.1696,-2.1696,-2.1531,-2.1154,-2.0717,-2.0231,-1.9656,-1.942,-1.9183,-1.9002,-1.9183,-1.9301,-1.9301,-1.9301,-1.9301,-1.9301,-1.9301,-1.9301,-1.9301,-1.8926,-1.8724,-1.8678,-1.832,-1.8301,-3.3503,-3.5894,-3.814,-3.9527,-4.0303,-4.0448,-3.9364,-3.7964,-3.6059,-3.3382,-3.0649,-2.8181,0.0,0.0,0.0,-2.8697,-3.1146,0.0,-3.5451,-3.5832,0.0,-3.6255,0.0,-3.6082,-3.5419,-3.6356,0.0,0.0,-3.7432,-3.7483,-3.6043,-3.7844,-3.7996,-3.6123,-3.6727,-3.6869,-3.6423,-3.6961,-3.691,-3.6151,-3.6089,-3.5413,-3.4372,-3.4466,-3.4412,-3.4199,-3.4412,-3.4524,-3.4524,-3.4524,-3.4391,-3.4061,-3.2326,-3.0878,-2.9445,-2.7419,-2.5613,-2.4364,-2.5584,-2.5258,-2.4484,-2.547,-2.4927,-2.4047,-2.5038,-2.4223,-2.3231,-2.4454,-2.3952,-2.3014,-2.3014,-2.3014,-2.299,-2.2903,-2.3262,-2.3596,-2.3386,-2.3489,-2.3652,-2.3945,-2.3743,-2.3166,-2.2105,-2.2055,-2.1917,-2.1284,-2.1463,-2.1696,-2.1696,-2.1696,-2.1531,-2.1154,-2.0589,-2.0072,-1.9656,-1.9259,-1.9033,-1.9002,-1.9183,-1.9301,-1.9301,-1.9301,-1.9301,-1.9301,-1.9301,-1.9301,-1.9301,-1.9201,-1.8843,-1.8246,-1.8476,-1.842,-3.5759,-3.7829,-3.962,-4.0334,-4.0241,-3.9527,-3.7746,-3.578,-3.3379,-3.0025,-2.7533,0.0,-2.3763,0.0,0.0,0.0,0.0,0.0,-3.4456,-3.5095,-3.5541,0.0,-3.6485,0.0,-3.5593,-3.6731,-3.7212,0.0,-3.7468,-3.7559,-3.6348,-3.764,-3.7729,-3.6174,-3.6578,-3.674,-3.6617,-3.6766,-3.6519,-3.578,-3.5562,-3.497,-3.4086,-3.4356,-3.4412,-3.4311,0.0,-3.4524,-3.4524,-3.4524,-3.4177,-3.3551,-3.181,-3.026,-2.8724,-2.6495,-2.4986,-2.404,-2.4188,-2.3672,-2.3183,-2.4398,-2.4342,-2.384,-2.3952,-2.3568,-2.3127,-2.384,-2.3512,-2.3014,-2.3014,-2.3014,-2.3014,-2.3014,-2.3229,-2.3393,-2.3178,-2.314,-2.3203,-2.3252,-2.3287,-2.3035,-2.2096,-2.2235,-2.2245,-2.1662,-2.1662,-2.1696,-2.1696,-2.1696,-2.1604,-2.141,-2.0896,-2.0452,-2.0043,-1.9611,-1.9312,-1.9121,-1.9222,-1.9301,-1.9301,-1.9301,-1.9301,-1.9301,-1.9301,-1.9301,-1.9301,-1.9301,-1.899,-1.8385,-1.8576,-1.8595,-3.7881,-3.9278,-4.0323,-4.0696,-3.9671,-3.7908,-3.5676,-3.3213,-3.0305,-2.6413,0.0,-2.3222,-2.2042,-2.2258,-2.3377,-2.574,0.0,-2.9725,-3.2923,-3.343,-3.4163,-3.5884,-3.605,-3.593,-3.551,-3.6748,-3.7165,-3.6111,-3.7303,-3.7888,-3.7442,-3.7568,-3.7444,-3.6997,-3.6686,-3.6617,-3.6921,-3.6447,-3.5962,-3.5535,-3.505,-3.4585,-3.4142,-3.4412,-3.4524,-3.4468,-3.4345,0.0,-3.4233,-3.4054,-3.3367,-3.2291,-3.0677,-2.92,-2.7791,-2.5524,-2.4441,-2.4056,-2.3375,-2.3054,-2.3183,-2.4231,-2.4565,-2.4398,-2.3344,-2.3014,-2.3014,-2.3014,-2.3014,-2.3014,-2.3014,-2.3014,-2.3014,-2.3014,-2.2907,-2.2736,-2.2687,-2.2557,-2.2392,-2.2342,-2.2762,-2.2956,-2.253,-2.2583,-2.2586,-2.2115,-2.1808,-2.1616,-2.1517,-2.1597,-2.1696,-2.1696,-2.1355,-2.097,-2.0622,-2.0149,-1.9729,-1.9402,-1.9329,-1.9301,-1.9301,-1.9301,-1.9301,-1.9301,-1.9301,-1.9301,-1.9301,-1.9301,-1.91,-1.8715,-1.876,-1.876,-3.8906,-3.9754,-4.0251,-4.0323,-3.874,-3.6556,-3.4258,-3.0812,0.0,0.0,-2.3089,-2.1734,-2.0589,-2.1935,-2.3753,-2.5375,0.0,0.0,0.0,0.0,-3.4471,0.0,0.0,0.0,0.0,0.0,0.0,0.0,0.0,-3.7685,-3.6684,-3.7262,-3.7294,-3.655,-3.671,-3.6861,-3.6921,-3.6447,-3.6081,-3.5896,-3.5176,-3.4688,-3.4412,-3.4468,-3.4524,-3.4468,-3.3434,0.0,-3.2913,-3.19,-3.1303,-3.1014,-2.9653,-2.8928,-2.8469,-2.6448,-2.5344,-2.4729,-2.4039,-2.3431,-2.3014,-2.3239,-2.3287,-2.3287,-2.307,-2.3014,-2.3014,-2.3014,-2.3014,-2.3014,-2.3014,-2.3014,-2.3014,-2.3014,-2.2752,-2.2487,-2.2183,-2.1985,-2.1816,-2.1603,-2.1777,-2.1803,-2.1238,-2.1476,-2.1548,-2.0904,-2.1076,-2.1103,-2.0607,-2.1239,-2.1696,-2.1696,-2.1355,-2.108,-2.1007,-2.0296,-1.9857,-1.9783,-1.9494,-1.9301,-1.9301,-1.9301,-1.9301,-1.9301,-1.9301,-1.9301,-1.9301,-1.9301,-1.91,-1.8715,-1.9045,-1.9026,-3.9164,-3.9809,-4.0168,-3.993,-3.7788,-3.5014,-3.225,0.0,0.0,0.0,-2.1555,-2.0729,-1.9948,0.0,0.0,0.0,0.0,0.0,0.0,0.0,0.0,0.0,0.0,0.0,0.0,0.0,0.0,0.0,0.0,-3.7194,-3.702,-3.7133,-3.7137,-3.6911,-3.7082,-3.7154,-3.7154,-3.614,-3.5666,-3.5721,-3.4525,-3.4075,-3.4255,-3.3593,-3.3413,-3.3491,-3.2264,0.0,-3.1669,-3.1081,-3.0432,-2.9738,-2.9148,-2.8513,-2.7838,-2.6508,-2.5611,-2.4886,-2.4236,-2.3536,-2.3014,-2.3014,-2.3014,-2.3014,-2.3014,-2.3014,-2.3014,-2.3014,-2.3014,-2.3014,-2.3014,-2.3014,-2.3014,-2.3014,-2.2744,-2.2386,-2.2083,-2.1763,-2.1502,-2.1417,-2.1672,-2.1819,-2.1544,-2.1851,-2.1936,-2.1264,-2.1211,-2.109,-2.0698,-2.1051,-2.132,-2.132,-2.114,-2.1074,-2.1083,-2.0759,-2.0457,-2.0214,-2.0044,-1.9842,-1.9641,-1.9622,-1.9522,-1.9301,-1.9301,-1.9301,-1.9301,-1.9301,-1.9201,-1.9026,-1.9219,-1.9201,-3.8874,-3.9661,-3.992,-3.9268,-3.6691,-3.3492,-3.0284,-2.6817,0.0,0.0,-2.0339,-2.0052,-1.9712,0.0,-2.1884,0.0,0.0,0.0,0.0,0.0,0.0,0.0,0.0,0.0,0.0,0.0,0.0,0.0,0.0,0.0,-3.7428,-3.7116,-3.7032,-3.7374,-3.7374,-3.7374,-3.7374,-3.5843,-3.5264,-3.5594,-3.4025,-3.3466,-3.3794,-3.2778,-3.2311,-3.2207,-3.0965,0.0,0.0,-3.009,-2.9443,-2.8513,-2.8513,-2.7942,-2.703,-2.6338,-2.5662,-2.5003,-2.4285,-2.3585,-2.307,-2.3014,-2.3014,-2.3014,-2.3014,-2.3014,-2.3014,-2.3014,-2.3014,-2.3014,-2.3014,-2.3014,-2.2998,-2.2919,-2.2688,-2.241,-2.2186,-2.1798,-2.1531,-2.1602,-2.1791,-2.1994,-2.2045,-2.2297,-2.2304,-2.1729,-2.1359,-2.1026,-2.0765,-2.0644,-2.0583,-2.0682,-2.0952,-2.1185,-2.122,-2.1163,-2.097,-2.0668,-2.0567,-2.0296,-1.9902,-1.9893,-1.9692,-1.9311,-1.9301,-1.9301,-1.9301,-1.9301,-1.9301,-1.9301,-1.9301,-1.9301,-3.7933,-3.8947,-3.9288,-3.8005,-3.5283,-3.2075,-2.8845,0.0,0.0,-2.0435,-1.983,-1.9724,-1.9846,-2.0476,-2.1487,0.0,0.0,-2.5968,0.0,0.0,0.0,0.0,0.0,0.0,0.0,0.0,0.0,0.0,0.0,0.0,-3.6925,-3.6943,-3.7032,-3.7374,-3.7374,-3.7374,-3.7374,-3.5843,-3.5381,-3.5954,-3.4311,-3.3342,-3.2799,-3.2685,-3.2025,-3.0897,-2.962,0.0,0.0,-2.7882,-2.7366,-2.7246,-2.7246,-2.7194,-2.703,-2.6295,-2.5797,-2.5302,-2.4367,-2.378,-2.3416,-2.307,-2.3014,-2.3014,-2.3014,-2.3014,-2.3014,-2.3014,-2.3014,-2.3014,-2.3014,-2.3014,-2.2934,-2.2609,-2.2506,-2.2474,-2.245,-2.2218,-2.2005,-2.2331,-2.1908,-2.1558,-2.188,-2.1829,-2.1653,-2.1329,-2.098,-2.0527,-1.9974,-1.9398,-1.9188,-1.9683,-2.0871,-2.1633,-2.1641,-2.1328,-2.1089,-2.1053,-2.0714,-2.0296,-1.9902,-1.9893,-1.9692,-1.9311,-1.9301,-1.9301,-1.9301,-1.9301,-1.9301,-1.9301,-1.9301,-1.9301,-3.6608,-3.7819,-3.8046,-3.6939,-3.4388,-3.1233,-2.7987,0.0,-2.2195,-2.0682,-2.0112,-1.9944,-2.0009,-2.05,-2.121,-2.2125,0.0,0.0,0.0,0.0,0.0,0.0,0.0,0.0,0.0,0.0,0.0,0.0,0.0,0.0,-3.6239,-3.6678,-3.6721,-3.6419,-3.7051,-3.6921,-3.6,-3.5387,-3.4683,-3.382,-3.2734,-3.1862,-3.1207,-3.0519,-2.9982,-2.962,-2.8343,0.0,0.0,-2.7306,-2.7073,-2.7073,-2.7073,-2.7073,-2.703,-2.6525,-2.5965,-2.5419,-2.4754,-2.4105,-2.3472,-2.336,-2.3183,-2.3014,-2.3014,-2.3014,-2.3014,-2.3014,-2.3014,-2.3014,-2.3014,-2.3014,-2.2982,-2.2839,-2.2807,-2.2807,-2.2807,-2.2529,-2.2251,-2.2234,-2.1943,-2.1647,-2.1585,-2.162,-2.1601,-2.123,-2.0785,-2.0384,-2.0251,-1.9685,-1.9463,-1.9965,-2.051,-2.088,-2.088,-2.1221,-2.1342,-2.1077,-2.1153,-2.0918,-2.031,-2.0241,-1.9971,-1.9311,-1.9301,-1.9301,-1.9301,-1.9301,-1.9301,-1.9301,-1.9301,-1.9301,-3.444,-3.5884,-3.6256,-3.5345,-3.2934,-2.9964,0.0,0.0,-2.1942,-2.0665,-2.0215,-2.0042,-2.0074,-2.0424,-2.0806,-2.1297,0.0,-2.3025,0.0,0.0,0.0,0.0,0.0,0.0,0.0,0.0,0.0,0.0,0.0,0.0,0.0,-3.5211,-3.53,-3.5158,-3.5859,-3.5706,-3.4536,-3.4389,-3.3717,-3.2527,-3.1415,-3.0509,-2.9855,-2.8989,-2.8522,-2.8343,-2.7478,0.0,0.0,-2.7073,-2.7073,-2.7073,-2.7073,-2.7073,-2.703,-2.6636,-2.6202,-2.5678,-2.5016,-2.4341,-2.3779,-2.3448,-2.3183,-2.3014,-2.3014,-2.3014,-2.3014,-2.3014,-2.3014,-2.3014,-2.3014,-2.3014,-2.3014,-2.3014,-2.3014,-2.3014,-2.3014,-2.2815,-2.2569,-2.2323,-2.2124,-2.1836,-2.1578,-2.1566,-2.1491,-2.1278,-2.0851,-2.054,-2.0456,-1.9989,-1.9724,-1.9845,-2.0019,-2.0192,-2.0464,-2.1096,-2.141,-2.123,-2.1508,-2.1376,-2.0723,-2.0543,-2.0191,-1.9503,-1.9366,-1.9301,-1.9301,-1.9301,-1.9301,-1.9301,-1.9301,-1.9301,-3.1123,-3.2908,-3.3886,-3.2996,-3.0688,-2.7973,0.0,-2.3047,-2.1128,-2.0103,-1.99,-1.9933,-2.0074,-2.0085,-2.0282,-2.0818,-2.168,0.0,0.0,0.0,0.0,0.0,0.0,0.0,0.0,0.0,0.0,0.0,0.0,0.0,0.0,-3.2011,-3.2467,-3.3811,-3.3688,-3.3513,-3.3225,-3.27,-3.2596,-3.285,-3.0898,-2.958,-2.892,-2.892,-2.8233,0.0,0.0,0.0,0.0,-2.7073,-2.7073,-2.7073,-2.7073,-2.7073,-2.703,-2.6636,-2.6491,-2.6312,-2.4985,-2.4498,-2.4326,-2.3352,-2.3014,-2.3014,-2.3014,-2.3014,-2.3014,-2.3014,-2.3014,-2.3014,-2.3014,-2.3014,-2.3014,-2.3014,-2.3014,-2.3014,-2.3014,-2.3014,-2.3006,-2.3006,-2.2434,-2.2003,-2.2003,-2.1639,-2.1326,-2.1318,-2.1261,-2.0999,-2.037,-2.0013,-1.9554,-1.8913,-1.9279,-2.0002,-2.0898,-2.0997,-2.1177,-2.1651,-2.1696,-2.1504,-2.1117,-2.0723,-2.0287,-1.9893,-1.9512,-1.9301,-1.9301,-1.9301,-1.9301,-1.9301,-1.9301,-1.9301,-2.7815,-2.9142,-2.9637,-2.9029,-2.7631,-2.5889,-2.3756,-2.2381,-2.125,-2.0237,-2.0042,-2.0042,-2.0074,-2.0118,-2.0489,-2.1669,-2.2009,0.0,0.0,0.0,0.0,0.0,0.0,0.0,0.0,0.0,0.0,0.0,0.0,0.0,0.0,-2.9395,-2.903,-3.1522,-3.2744,-3.2445,-3.06,-3.183,-3.1466,-2.958,-2.9112,-2.8352,-2.734,-2.759,0.0,0.0,0.0,0.0,0.0,-2.7073,-2.7073,-2.7073,-2.7073,-2.7073,-2.703,-2.6636,-2.6491,-2.6379,-2.5454,-2.4849,-2.4383,-2.3803,-2.3352,-2.3014,-2.3014,-2.3014,-2.3014,-2.3014,-2.3014,-2.3014,-2.3014,-2.3014,-2.3014,-2.3014,-2.3014,-2.3014,-2.3014,-2.3014,-2.2942,-2.2704,-2.2474,-2.2352,-2.2266,-2.1787,-2.149,-2.1906,-2.1231,-2.0651,-2.0637,-1.9966,-1.947,-1.9209,-1.911,-1.9188,-1.9455,-2.0147,-2.0464,-2.0283,-2.0555,-2.0569,-2.014,-2.0305,-2.0229,-1.9844,-2.0043,-1.9998,-1.9692,-1.9692,-1.9586,-1.9301,-1.9301,-1.9301,0.0,-2.5853,-2.6357,-2.6117,-2.5115,0.0,0.0,-2.1347,-2.0498,-1.9965,-1.9834,-1.9857,-2.0009,-2.0085,-2.0434,-2.1487,-2.1789,0.0,0.0,0.0,0.0,0.0,0.0,0.0,0.0,0.0,0.0,0.0,0.0,0.0,0.0,-2.7616,-2.7139,-2.9039,-3.0577,-3.0606,-2.892,-3.0289,-2.9933,-2.7975,-2.7753,-2.722,-2.664,-2.6822,0.0,0.0,0.0,0.0,0.0,-2.7073,-2.6987,-2.685,-2.685,-2.685,-2.6807,-2.6422,-2.6371,-2.6379,-2.5511,-2.4963,-2.4554,-2.398,-2.3408,-2.3014,-2.3014,-2.3014,-2.3014,-2.3014,-2.3014,-2.3014,-2.3014,-2.3014,-2.3014,-2.3014,-2.3014,-2.3014,-2.3014,-2.3014,-2.295,-2.2728,-2.2577,-2.2473,-2.2459,-2.1865,-2.1554,-2.1921,-2.1264,-2.0744,-2.0658,-2.0215,-1.9798,-1.9447,-1.9169,-1.8978,-1.8797,-1.9554,-2.0011,-1.9874,-2.0155,-2.0279,-2.0172,-2.0334,-2.0401,-2.0452,-2.0594,-2.0495,-2.017,-1.99,-1.9648,-1.9429,-1.9341,-1.9301,0.0,-2.2808,0.0,0.0,0.0,0.0,-2.1228,-2.0017,0.0,-1.927,-1.9366,-1.9477,-1.9792,-2.0031,-2.0292,-2.0663,-2.1231,0.0,0.0,0.0,0.0,0.0,0.0,0.0,0.0,0.0,0.0,0.0,0.0,0.0,0.0,-2.666,-2.6579,-2.6579,-2.7669,-2.8137,-2.7864,-2.8197,-2.8197,-2.7864,-2.6727,-2.6319,-2.6571,-2.6631,0.0,0.0,0.0,0.0,0.0,-2.7004,-2.6773,-2.6448,-2.6448,-2.6448,-2.6405,-2.6062,-2.6157,-2.6286,-2.5264,-2.4897,-2.4725,-2.3811,-2.3304,-2.307,-2.3014,-2.3014,-2.3014,-2.3014,-2.3014,-2.3014,-2.3014,-2.3014,-2.3014,-2.3014,-2.3014,-2.3014,-2.3014,-2.3014,-2.3014,-2.3014,-2.2752,-2.2521,-2.2577,-2.1949,-2.1436,-2.1489,-2.137,-2.1052,-2.0522,-2.0658,-2.0442,-1.9558,-1.9455,-1.9233,-1.8891,-1.9296,-1.9737,-2.0155,-2.0201,-2.0419,-2.0907,-2.0607,-2.0762,-2.15,-2.1151,-2.0884,-2.0661,-1.9977,-1.9643,-1.9604,-1.9436,-1.9329,-1.7702,0.0,-2.0347,-2.0391,-2.0167,-1.9899,0.0,-1.9018,-1.8422,-1.8483,-1.8897,-1.9276,-1.9359,-2.0092,-2.0958,-2.1757,0.0,0.0,0.0,0.0,0.0,0.0,0.0,0.0,0.0,0.0,0.0,0.0,0.0,0.0,0.0,-2.659,-2.6452,-2.6199,-2.6717,-2.6857,-2.6545,-2.7555,-2.7555,-2.6545,-2.6753,-2.6761,-2.664,-2.6882,0.0,0.0,0.0,0.0,-2.6602,-2.6084,-2.5914,-2.6071,-2.6071,-2.6071,-2.6054,-2.591,-2.5936,-2.6003,-2.5475,-2.5133,-2.4782,-2.4028,-2.3753,-2.3632,-2.3416,-2.3191,-2.3014,-2.3014,-2.3014,-2.3014,-2.3014,-2.3014,-2.3014,-2.3014,-2.3014,-2.3014,-2.3014,-2.3014,-2.3014,-2.3014,-2.295,-2.2951,-2.3231,-2.2471,-2.1945,-2.2151,-2.1523,-2.0944,-2.0805,-2.061,-2.0428,-2.017,-1.9734,-1.9423,-1.9468,-1.9164,-1.9058,-1.915,-1.9333,-1.9683,-2.0121,-2.0586,-2.1123,-2.1646,-2.1624,-2.1499,-2.1301,-2.0507,-2.0031,-1.9828,-1.9787,-1.9613,-1.6181,-1.7588,-1.904,-1.8701,-1.8892,-1.9178,-1.9061,-1.8133,-1.7431,-1.8176,0.0,-1.8212,-1.8744,-1.9352,0.0,0.0,0.0,0.0,0.0,0.0,0.0,0.0,0.0,0.0,0.0,0.0,0.0,0.0,0.0,0.0,0.0,-2.6076,-2.6009,-2.5654,-2.6001,-2.6144,-2.6075,-2.6918,-2.6772,-2.5646,-2.6146,-2.6183,-2.5708,-2.5887,-2.6074,0.0,0.0,0.0,-2.6217,-2.5845,-2.5666,-2.5677,-2.5677,-2.5677,-2.566,-2.5489,-2.5532,-2.5626,-2.5249,-2.4943,-2.4628,-2.4267,-2.3921,-2.3697,-2.3528,-2.3247,-2.3014,-2.3014,-2.3014,-2.3014,-2.3014,-2.3014,-2.3014,-2.3014,-2.3014,-2.3014,-2.3014,-2.3014,-2.3014,-2.3014,-2.3014,-2.3023,-2.3031,-2.2487,-2.2009,-2.1956,-2.137,-2.0925,-2.0925,-2.075,-2.0626,-2.0608,-2.0255,-1.999,-1.9896,-1.9599,-1.9319,-1.9166,-1.9296,-1.9608,-2.0048,-2.0456,-2.0961,-2.1544,-2.1503,-2.1429,-2.1324,-2.0713,-2.0324,-2.02,-2.02,-2.0081,-1.579,-1.7236,-1.8625,-1.7956,-1.8467,-1.9052,-1.868,0.0,0.0,0.0,0.0,0.0,0.0,-1.8574,0.0,0.0,0.0,0.0,0.0,0.0,0.0,0.0,0.0,0.0,0.0,0.0,0.0,0.0,0.0,0.0,0.0,-2.5431,-2.5444,-2.5084,-2.5371,-2.5615,-2.5841,-2.6211,-2.5973,-2.5008,-2.5438,-2.5308,-2.4651,-2.4768,-2.5061,-2.5585,0.0,0.0,-2.5848,-2.5731,-2.5526,-2.5283,-2.5283,-2.5283,-2.5249,-2.4932,-2.5018,-2.5241,-2.4932,-2.4654,-2.4432,-2.4432,-2.4041,-2.3649,-2.3537,-2.3304,-2.307,-2.3014,-2.3014,-2.3014,-2.3014,-2.3014,-2.3014,-2.3014,-2.3014,-2.307,-2.307,-2.3127,-2.3127,-2.307,-2.307,-2.2975,-2.2617,-2.2282,-2.1916,-2.1576,-2.1231,-2.0968,-2.1019,-2.1019,-2.1001,-2.0947,-2.0915,-2.0712,-2.0287,-2.0179,-2.0044,-1.9741,-1.9679,-1.9853,-2.0382,-2.0473,-2.0798,-2.1437,-2.126,-2.12,-2.12,-2.0805,-2.0613,-2.0655,-2.0613,-2.0576,-1.6069,-1.7054,-1.7805,-1.742,-1.8071,-1.8583,-1.7523,-1.6664,0.0,0.0,0.0,0.0,0.0,-1.9024,0.0,0.0,0.0,0.0,0.0,0.0,0.0,0.0,0.0,0.0,0.0,0.0,0.0,0.0,0.0,0.0,0.0,-2.5569,-2.5433,-2.5136,-2.5062,-2.4982,-2.4738,-2.5345,-2.5357,-2.4699,-2.5469,-2.5528,-2.4935,-2.5469,-2.576,-2.5801,0.0,-2.5161,-2.5429,-2.4839,-2.4734,-2.4907,-2.4907,-2.4907,-2.4898,-2.4838,-2.4855,-2.4898,-2.4838,-2.4765,-2.471,-2.4487,-2.432,-2.4153,-2.3641,-2.3472,-2.336,-2.307,-2.3014,-2.3014,-2.3014,-2.3014,-2.3014,-2.3014,-2.3247,-2.3416,-2.3416,-2.3585,-2.3689,-2.3472,-2.3416,-2.3344,-2.2999,-2.2386,-2.2057,-2.2231,-2.1651,-2.1326,-2.1522,-2.1573,-2.1556,-2.1541,-2.1312,-2.1056,-2.0883,-2.0604,-2.0361,-2.0181,-1.9982,-2.0155,-2.0862,-2.1275,-2.1553,-2.1651,-2.1632,-2.1595,-2.1595,-2.1218,-2.1102,-2.1317,-2.1102,-2.097,-1.5119,-1.6078,-1.6862,-1.6351,-1.7301,-1.8232,-1.7671,-1.6649,0.0,0.0,0.0,0.0,0.0,0.0,0.0,0.0,0.0,0.0,0.0,0.0,0.0,0.0,0.0,0.0,0.0,0.0,0.0,0.0,0.0,0.0,0.0,0.0,-2.4695,-2.4509,-2.4634,-2.4662,-2.4474,-2.4928,-2.4953,-2.4485,-2.4961,-2.4885,-2.4416,-2.4701,-2.4929,-2.5043,0.0,-2.4789,-2.5061,-2.4722,-2.471,-2.4821,-2.4821,-2.4821,-2.4821,-2.4821,-2.4821,-2.4821,-2.4821,-2.4821,-2.4765,-2.4654,-2.4543,-2.4376,-2.4097,-2.3865,-2.3641,-2.3352,-2.3127,-2.3014,-2.3014,-2.3014,-2.307,-2.3247,-2.3416,-2.3528,-2.3697,-2.3809,-2.3809,-2.3528,-2.3472,-2.3295,-2.2742,-2.2405,-2.2167,-2.2042,-2.1742,-2.1573,-2.1674,-2.1725,-2.1776,-2.1928,-2.177,-2.1578,-2.1325,-2.1181,-2.0847,-2.0343,-2.0201,-2.0292,-2.06,-2.0699,-2.0789,-2.0925,-2.0789,-2.0789,-2.0925,-2.1149,-2.1324,-2.1456,-2.1711,-2.1696,-1.4357,-1.5179,-1.5941,-1.5687,-1.6714,-1.7761,-1.7676,-1.6765,-1.643,0.0,0.0,0.0,0.0,0.0,0.0,0.0,0.0,0.0,0.0,0.0,0.0,0.0,0.0,0.0,0.0,0.0,0.0,0.0,0.0,0.0,0.0,0.0,-2.4166,-2.4187,-2.4408,-2.4433,-2.4399,-2.4666,-2.4651,-2.4408,-2.4537,-2.4355,-2.4033,-2.4089,-2.4256,-2.4487,-2.4487,-2.4599,-2.4821,-2.4821,-2.4821,-2.4821,-2.4821,-2.4821,-2.4821,-2.4821,-2.4821,-2.4821,-2.4821,-2.4821,-2.4765,-2.471,-2.4543,-2.4384,-2.432,-2.4089,-2.3865,-2.3641,-2.3416,-2.3183,-2.3135,-2.3127,-2.3191,-2.3528,-2.3641,-2.3761,-2.3977,-2.4089,-2.4033,-2.3753,-2.3623,-2.3394,-2.2738,-2.2502,-2.2254,-2.1991,-2.1826,-2.1776,-2.1776,-2.1878,-2.1979,-2.208,-2.2072,-2.198,-2.1635,-2.145,-2.1075,-2.048,-2.0298,-2.0246,-2.0292,-2.0019,-2.0019,-2.0292,-2.011,-2.011,-2.0382,-2.0979,-2.1302,-2.1392,-2.1865,-2.2087,-1.4612,-1.4852,-1.5048,-1.6015,-1.6662,-1.6995,-1.6675,-1.68,0.0,-1.773,0.0,0.0,0.0,0.0,0.0,0.0,0.0,0.0,0.0,0.0,0.0,0.0,0.0,0.0,0.0,0.0,0.0,0.0,0.0,0.0,0.0,0.0,0.0,-2.484,-2.4555,-2.4387,-2.4418,-2.4418,-2.4417,-2.4408,-2.4634,-2.4624,-2.4376,-2.4599,-2.4765,-2.4765,-2.4765,-2.4765,-2.4821,-2.4821,-2.4821,-2.4821,-2.4821,-2.4821,-2.4821,-2.4821,-2.4821,-2.4821,-2.4821,-2.4821,-2.4765,-2.4487,-2.4432,-2.432,-2.4033,-2.3921,-2.3921,-2.3865,-2.3857,-2.3809,-2.3528,-2.3472,-2.3528,-2.3809,-2.4089,-2.432,-2.4376,-2.4543,-2.4654,-2.4376,-2.4035,-2.3657,-2.3326,-2.2712,-2.2363,-2.2617,-2.2307,-2.2072,-2.2072,-2.2342,-2.2434,-2.2131,-2.2072,-2.198,-2.1635,-2.0979,-2.0644,-2.084,-2.0268,-2.0019,-2.0292,-2.0019,-2.0019,-2.0292,-2.0292,-2.0382,-2.0654,-2.0699,-2.0979,-2.1392,-2.1186,-2.1454,-1.3896,-1.4282,-1.4635,-1.5178,-1.5946,0.0,0.0,-1.7381,-1.7838,-1.8666,-1.9331,0.0,0.0,0.0,0.0,0.0,0.0,0.0,0.0,0.0,0.0,0.0,0.0,0.0,0.0,0.0,0.0,0.0,0.0,0.0,0.0,0.0,0.0,-2.4578,-2.4452,-2.4487,-2.4654,-2.4654,-2.4667,-2.4634,-2.4555,-2.4599,-2.4654,-2.4765,-2.4821,-2.4821,-2.4821,-2.4821,-2.4821,-2.4821,-2.4821,-2.4821,-2.4821,-2.4821,-2.4821,-2.4821,-2.4821,-2.4821,-2.4821,-2.4821,-2.4765,-2.4654,-2.4654,-2.4654,-2.4487,-2.4479,-2.4423,-2.4264,-2.4209,-2.4153,-2.3809,-2.3753,-2.3809,-2.4153,-2.432,-2.4432,-2.4599,-2.471,-2.471,-2.4432,-2.4092,-2.3798,-2.362,-2.2901,-2.2506,-2.2892,-2.2477,-2.2072,-2.2072,-2.2232,-2.2232,-2.2123,-2.2072,-2.2072,-2.1938,-2.1256,-2.0828,-2.097,-2.0449,-2.0201,-2.0292,-2.0019,-2.0019,-2.0292,-2.0155,-2.0201,-2.0473,-2.0736,-2.0961,-2.115,-2.1633,-2.1856,-1.345,-1.3803,-1.4198,-1.4582,0.0,0.0,-1.7571,-1.8194,-1.8806,-1.9712,-2.0431,-2.0848,0.0,0.0,0.0,0.0,0.0,0.0,0.0,0.0,0.0,0.0,0.0,0.0,0.0,0.0,0.0,0.0,0.0,0.0,0.0,0.0,0.0,0.0,-2.4187,-2.4297,-2.4453,-2.4453,-2.4461,-2.447,-2.4242,-2.4357,-2.4633,-2.4633,-2.4633,-2.4641,-2.477,-2.4821,-2.4821,-2.4821,-2.4744,-2.4633,-2.4633,-2.4633,-2.4633,-2.4633,-2.4633,-2.4633,-2.4633,-2.4556,-2.4453,-2.4453,-2.4453,-2.4453,-2.4453,-2.4453,-2.4407,-2.4251,-2.4281,-2.4302,-2.4072,-2.4053,-2.4144,-2.4432,-2.4543,-2.4599,-2.4765,-2.4821,-2.4765,-2.4543,-2.422,-2.3988,-2.3955,-2.3286,-2.2867,-2.3065,-2.2732,-2.2367,-2.2139,-2.2182,-2.2232,-2.2131,-2.2072,-2.2072,-2.2072,-2.1401,-2.1029,-2.1126,-2.061,-2.0292,-2.0292,-2.0019,-2.0019,-2.0292,-2.011,-2.011,-2.0292,-2.06,-2.0781,-2.0772,-2.1454,-2.1633,-1.3511,-1.3519,-1.3716,-1.4495,0.0,0.0,-1.8003,-1.9184,-2.0062,-2.0671,-2.1255,-2.161,-2.1618,0.0,0.0,0.0,0.0,0.0,0.0,0.0,0.0,0.0,0.0,0.0,0.0,0.0,0.0,0.0,0.0,0.0,0.0,0.0,0.0,0.0,-2.3674,-2.3718,-2.3718,-2.3718,-2.3674,-2.3699,-2.3727,-2.3862,-2.4176,-2.4176,-2.4176,-2.4193,-2.4641,-2.4812,-2.4812,-2.4812,-2.4526,-2.4176,-2.4176,-2.4176,-2.4176,-2.4176,-2.4176,-2.4176,-2.4176,-2.3982,-2.3718,-2.3718,-2.3718,-2.3718,-2.3718,-2.3718,-2.3727,-2.3699,-2.3965,-2.4176,-2.4185,-2.431,-2.4487,-2.4765,-2.4821,-2.4821,-2.4821,-2.4821,-2.4821,-2.4821,-2.4504,-2.4185,-2.4185,-2.3922,-2.3545,-2.3177,-2.3117,-2.2869,-2.2181,-2.2384,-2.2493,-2.2131,-2.2072,-2.2072,-2.2072,-2.145,-2.1126,-2.1365,-2.0703,-2.0292,-2.0292,-2.0019,-2.0019,-2.0292,-2.0292,-2.0292,-2.0292,-2.0292,-2.0292,-2.0292,-2.0292,-2.0555,-1.3511,-1.4093,0.0,-1.5343,0.0,0.0,0.0,-1.9351,0.0,0.0,-2.1656,-2.1667,-2.2282,0.0,0.0,0.0,0.0,0.0,0.0,0.0,0.0,0.0,0.0,0.0,0.0,0.0,0.0,0.0,0.0,0.0,0.0,0.0,0.0,0.0,-2.3674,-2.3718,-2.3718,-2.3718,-2.3718,-2.3727,-2.34,-2.3468,-2.3836,-2.3853,-2.3853,-2.3853,-2.4239,-2.4264,-2.4033,-2.4016,-2.3939,-2.3836,-2.3853,-2.3853,-2.3836,-2.3836,-2.3845,-2.3862,-2.3836,-2.3759,-2.3718,-2.3691,-2.3682,-2.3718,-2.3718,-2.3718,-2.377,-2.3999,-2.4099,-2.4244,-2.4573,-2.4514,-2.4487,-2.4765,-2.4821,-2.4821,-2.4821,-2.4821,-2.4821,-2.4821,-2.4561,-2.4429,-2.4595,-2.3997,-2.3602,-2.3806,-2.3294,-2.2663,-2.2173,-2.2182,-2.2232,-2.2131,-2.2283,-2.2443,-2.2443,-2.1752,-2.1318,-2.1405,-2.0703,-2.0292,-2.0292,-2.0201,-2.0201,-2.0292,-2.0292,-2.0292,-2.0292,-2.0292,-2.0292,-2.0292,-2.0645,-2.0781,-1.3511,-1.4238,0.0,-1.552,-1.7013,-1.8565,-1.9415,0.0,0.0,0.0,0.0,0.0,0.0,0.0,0.0,0.0,0.0,0.0,0.0,0.0,0.0,0.0,0.0,0.0,0.0,0.0,0.0,0.0,0.0,0.0,0.0,0.0,0.0,0.0,-2.2604,-2.252,-2.252,-2.2775,-2.2851,-2.2843,-2.2622,-2.2639,-2.286,-2.327,-2.346,-2.3468,-2.3845,-2.3973,-2.3905,-2.3742,-2.3759,-2.3862,-2.358,-2.3554,-2.3701,-2.3502,-2.346,-2.3468,-2.3451,-2.3348,-2.3272,-2.3237,-2.328,-2.3306,-2.34,-2.3443,-2.3528,-2.3896,-2.4119,-2.4236,-2.453,-2.4535,-2.4599,-2.4765,-2.471,-2.4654,-2.4765,-2.4821,-2.4821,-2.4821,-2.4654,-2.4599,-2.4765,-2.4221,-2.3808,-2.398,-2.3269,-2.2545,-2.2316,-2.2283,-2.2283,-2.2283,-2.2493,-2.2534,-2.2388,-2.1764,-2.1345,-2.1208,-2.0626,-2.0292,-2.0292,-2.0292,-2.0292,-2.0292,-2.0292,-2.0292,-2.0292,-2.0292,-2.0292,-2.0292,-2.06,-2.0645,-1.3511,0.0,0.0,-1.5361,-1.6822,0.0,-2.0117,-2.137,-2.2438,0.0,0.0,0.0,0.0,0.0,0.0,0.0,0.0,0.0,0.0,0.0,0.0,0.0,0.0,0.0,0.0,0.0,0.0,0.0,0.0,0.0,0.0,0.0,0.0,-2.151,-2.0988,-2.0717,-2.0717,-2.1236,-2.151,0.0,-2.151,-2.151,-2.1527,-2.2443,-2.2877,-2.298,-2.3331,-2.3691,-2.3997,-2.3699,-2.3759,-2.4008,-2.3331,-2.3271,-2.3572,-2.3186,-2.3066,-2.3066,-2.3066,-2.2835,-2.2594,-2.2594,-2.2594,-2.2663,-2.2954,-2.3066,-2.3143,-2.3511,-2.3862,-2.4091,-2.4116,-2.439,-2.4671,-2.4706,-2.4573,-2.4487,-2.4765,-2.4821,-2.4821,-2.4821,-2.4821,-2.4821,-2.4821,-2.4521,-2.4145,-2.3778,-2.3109,-2.2637,-2.2603,-2.2594,-2.2585,-2.2551,-2.2577,-2.2448,-2.203,-2.167,-2.1311,-2.0951,-2.0591,-2.036,-2.0292,-2.0292,-2.0292,-2.0292,-2.0292,-2.0292,-2.0292,-2.0292,-2.0292,-2.0292,-2.0292,-2.0292,-1.3511,-1.429,0.0,0.0,-1.7796,-1.9518,-2.0205,-2.0761,0.0,0.0,0.0,0.0,0.0,0.0,0.0,0.0,0.0,0.0,0.0,0.0,0.0,0.0,0.0,0.0,0.0,0.0,0.0,0.0,0.0,0.0,0.0,0.0,0.0,-2.0881,-2.0758,-2.0717,-2.0717,-2.084,-2.0881,0.0,-2.0881,-2.0881,-2.089,-2.1137,-2.1411,-2.1712,-2.1839,-2.2178,-2.2621,-2.2467,-2.2578,-2.2946,-2.2783,-2.2766,-2.2834,-2.2748,-2.2723,-2.2723,-2.2723,-2.2663,-2.2594,-2.2594,-2.2594,-2.2611,-2.2697,-2.2723,-2.28,-2.3126,-2.3288,-2.3425,-2.3734,-2.3657,-2.3676,-2.4181,-2.4543,-2.471,-2.4765,-2.4821,-2.4821,-2.4821,-2.4821,-2.4821,-2.4821,-2.4753,-2.4461,-2.3821,-2.328,-2.2886,-2.2637,-2.2594,-2.2482,-2.215,-2.2422,-2.2448,-2.203,-2.1919,-2.1704,-2.1319,-2.1216,-2.09,-2.0317,-2.0292,-2.0292,-2.0292,-2.0292,-2.0292,-2.0292,-2.0292,-2.0292,-2.0292,-2.0292,-2.0292,-1.3511,0.0,0.0,-1.7123,0.0,-1.9779,-2.0117,0.0,0.0,0.0,0.0,0.0,0.0,0.0,0.0,0.0,0.0,0.0,0.0,0.0,0.0,0.0,0.0,0.0,0.0,0.0,0.0,0.0,0.0,0.0,0.0,-2.0078,-2.0118,-2.0261,-1.9947,-1.9802,-1.9802,-2.0123,-2.0261,-2.0261,-2.0261,-2.0115,-1.9818,-2.0551,-2.1002,-2.1218,-2.1355,-2.169,-2.2103,-2.1827,-2.2047,-2.256,-2.2199,-2.2276,-2.2577,-2.2397,-2.2448,-2.2594,-2.2594,-2.2594,-2.2594,-2.2594,-2.2594,-2.2628,-2.2817,-2.2818,-2.2903,-2.3271,-2.3383,-2.3425,-2.3631,-2.3576,-2.3513,-2.386,-2.4147,-2.4425,-2.4723,-2.4821,-2.4821,-2.4821,-2.4821,-2.4761,-2.4573,-2.4239,-2.3802,-2.3272,-2.3014,-2.2817,-2.262,-2.2594,-2.2525,-2.2328,-2.2482,-2.2448,-2.203,-2.1996,-2.1833,-2.143,-2.1413,-2.1156,-2.0591,-2.0574,-2.048,-2.0292,-2.048,-2.048,-2.0292,-2.0292,-2.0292,-2.0292,-2.0292,-2.0292,-1.3511,0.0,-1.5735,-1.7757,-1.8875,0.0,0.0,0.0,0.0,0.0,0.0,0.0,0.0,0.0,0.0,0.0,0.0,0.0,0.0,0.0,0.0,0.0,0.0,0.0,0.0,0.0,0.0,0.0,0.0,0.0,-1.9618,-1.9649,-1.9696,-1.9696,-1.9164,-1.8874,-1.8928,-1.9503,-1.9751,-1.9751,-1.9751,-1.9449,-1.899,-2.0293,-2.0853,-2.0805,-2.1082,-2.1391,-2.1724,-2.1448,-2.173,-2.2337,-2.1653,-2.1799,-2.2362,-2.2013,-2.209,-2.2397,-2.2397,-2.2397,-2.2397,-2.2397,-2.2448,-2.2551,-2.2749,-2.2912,-2.3066,-2.3306,-2.3469,-2.3521,-2.3521,-2.3521,-2.3538,-2.3554,-2.3702,-2.3976,-2.4578,-2.477,-2.4804,-2.4735,-2.4667,-2.4538,-2.4227,-2.3665,-2.31,-2.2834,-2.274,-2.2671,-2.2603,-2.2594,-2.2568,-2.2508,-2.256,-2.2448,-2.203,-2.2055,-2.1829,-2.1235,-2.1471,-2.1318,-2.075,-2.0942,-2.0857,-2.0403,-2.0643,-2.0617,-2.0292,-2.0292,-2.0292,-2.0292,-2.0292,-2.0292,0.0,0.0,-1.5643,0.0,-1.7804,0.0,0.0,0.0,0.0,0.0,0.0,0.0,0.0,0.0,0.0,0.0,0.0,0.0,0.0,0.0,0.0,0.0,0.0,0.0,0.0,0.0,0.0,0.0,0.0,0.0,-1.8945,-1.9168,-1.9261,-1.9261,-1.9166,-1.9242,-1.9496,-1.9591,-1.9616,-1.9616,-1.9616,-1.9591,-1.9496,-1.9908,-1.9849,-1.9472,-2.0163,-2.0559,-2.0712,-2.0874,-2.1191,-2.155,-2.1448,-2.1473,-2.1559,-2.1508,-2.1516,-2.1559,-2.1559,-2.1559,-2.1559,-2.1559,-2.179,-2.2013,-2.173,-2.2098,-2.262,-2.2295,-2.25,-2.2748,-2.2748,-2.2748,-2.2826,-2.3109,-2.3468,-2.3845,-2.4176,-2.4526,-2.4718,-2.4321,-2.4059,-2.3931,-2.4133,-2.3879,-2.3624,-2.3572,-2.3246,-2.292,-2.2637,-2.2594,-2.2474,-2.2107,-2.2405,-2.2448,-2.203,-2.2345,-2.1954,-2.0528,-2.1703,-2.1677,-2.0006,-2.1176,-2.1516,-2.0814,-2.0514,-2.0343,-2.0292,-2.0292,-2.0292,-2.0292,-2.0292,-2.0292,-1.3776,-1.4534,-1.5501,0.0,0.0,0.0,0.0,0.0,0.0,0.0,0.0,0.0,0.0,0.0,0.0,0.0,0.0,0.0,0.0,0.0,0.0,0.0,0.0,0.0,0.0,0.0,0.0,0.0,0.0,-1.9387,-1.9258,-1.935,-1.9433,-1.9433,-1.9288,-1.9333,-1.9587,-1.9442,-1.9442,-1.9587,-1.9587,-1.9587,-1.9587,-1.9799,-1.9791,-1.9608,-2.011,-2.046,-2.0708,-2.0597,-2.0771,-2.1088,-2.0874,-2.0917,-2.1114,-2.1114,-2.1242,-2.1413,-2.1413,-2.1413,-2.1413,-2.1413,-2.1525,-2.1636,-2.1465,-2.1799,-2.221,-2.2038,-2.2311,-2.2594,-2.2594,-2.2594,-2.2485,-2.1966,-2.2652,-2.3243,-2.2769,-2.3804,-2.4701,-2.4253,-2.4056,-2.3982,-2.3922,-2.3121,-2.2667,-2.3244,-2.2507,-2.2052,-2.2519,-2.2594,-2.2534,-2.2371,-2.1929,-2.16,-2.1393,-2.095,-2.0589,-2.03,-2.1158,-2.1304,-2.0427,-2.1224,-2.1072,-1.9756,-2.0315,-2.0514,-2.0292,-2.0292,-2.0292,-2.0292,-2.0292,-2.0292,0.0,0.0,-1.5052,0.0,0.0,0.0,0.0,0.0,0.0,0.0,0.0,0.0,0.0,0.0,0.0,0.0,0.0,0.0,0.0,0.0,0.0,0.0,0.0,0.0,0.0,0.0,0.0,0.0,0.0,-1.9579,-1.9587,-1.9588,-1.953,-1.953,-1.9377,-1.9336,-1.9487,-1.9381,-1.943,-1.9629,-1.972,-1.9762,-1.9762,-1.9936,-2.0019,-2.0019,-2.0201,-2.0454,-2.0711,-2.0412,-2.0463,-2.0703,-2.0403,-2.0472,-2.0737,-2.0737,-2.096,-2.1259,-2.1165,-2.1191,-2.1259,-2.1156,-2.1191,-2.1251,-2.1156,-2.1465,-2.185,-2.185,-2.2115,-2.2424,-2.2207,-2.2182,-2.1869,-2.0731,-2.1629,-2.2563,-2.2132,-2.3257,-2.4324,-2.4127,-2.3708,-2.3333,-2.3294,-2.2018,-2.1417,-2.2538,-2.1773,-2.1296,-2.2089,-2.2182,-2.2072,-2.1768,-2.0987,-2.0467,-2.0467,-1.9876,-1.9609,-2.0008,-2.0626,-2.0818,-2.0365,-2.0693,-2.0136,-1.8605,-1.9487,-1.9818,-1.9538,-1.9774,-1.9911,-1.9911,-2.0201,-2.0292,0.0,-1.3845,0.0,0.0,0.0,0.0,0.0,0.0,0.0,0.0,0.0,0.0,0.0,0.0,0.0,0.0,0.0,0.0,0.0,0.0,0.0,0.0,0.0,0.0,0.0,0.0,0.0,0.0,0.0,-1.9477,-1.9608,-1.9465,-1.9398,-1.9398,-1.9407,-1.9326,-1.9239,-1.9502,-1.9681,-1.969,-2.0084,-2.0246,-2.0246,-2.0292,-2.0292,-2.0292,-2.0292,-2.03,-2.0317,-2.03,-2.03,-2.0317,-2.03,-2.0309,-2.0317,-2.0317,-2.0566,-2.0857,-2.048,-2.0591,-2.0848,-2.0472,-2.0609,-2.0831,-2.0463,-2.0857,-2.1439,-2.1439,-2.1722,-2.1851,-2.1162,-2.0987,-2.068,-1.9539,-2.0479,-2.195,-2.3324,-2.3373,-2.3306,-2.3684,-2.227,-2.1275,-2.1975,-2.088,-2.0287,-2.1425,-2.1522,-2.1326,-2.1027,-2.0987,-2.057,-1.9487,-1.9332,-1.928,-1.928,-1.9875,-1.9973,-1.9287,-2.0604,-2.0614,-1.8996,-1.9307,-1.9004,-1.7964,-1.766,-1.7498,-1.7483,-1.8411,-1.8888,-1.8888,-1.9874,-2.0292,0.0,0.0,0.0,0.0,0.0,0.0,0.0,0.0,0.0,0.0,0.0,0.0,0.0,0.0,0.0,0.0,0.0,0.0,0.0,0.0,0.0,0.0,0.0,0.0,0.0,0.0,0.0,0.0,0.0,0.0,-1.9353,-1.9322,-1.9289,-1.9289,-1.9115,-1.9004,-1.8964,-1.9221,-1.9376,-1.9384,-1.9761,-1.9812,-1.959,-2.0069,-2.0163,-1.9905,-2.0189,-2.0437,-2.0651,-2.0394,-2.0437,-2.0643,-2.0386,-2.0292,-2.0292,-2.0292,-2.0377,-2.048,-2.0343,-2.0386,-2.048,-2.0335,-2.0386,-2.048,-2.0335,-2.0226,-2.0146,-2.0146,-2.0029,-1.9892,-1.9611,-1.969,-1.9901,-2.021,-2.0147,-2.0381,-2.1614,-2.1988,-2.2102,-2.2277,-2.1364,-2.0605,-2.0613,-1.9556,-1.933,-2.1215,-2.0653,-2.0252,-2.0798,-2.0885,-2.0467,-1.9332,-1.8558,-1.8376,-1.8833,-1.7849,-1.7599,-1.8419,-1.8443,-1.8316,-1.8074,-1.8297,-1.7835,-1.6579,-1.7026,-1.7623,-1.8272,-1.8603,-1.9117,-1.9774,-1.9492,-1.9355,-1.3511,0.0,0.0,0.0,0.0,0.0,0.0,0.0,0.0,0.0,0.0,0.0,0.0,0.0,0.0,0.0,0.0,0.0,0.0,0.0,0.0,0.0,0.0,0.0,0.0,0.0,0.0,0.0,0.0,0.0,-1.9213,-1.9093,-1.9024,-1.9109,-1.882,-1.8727,-1.8812,-1.9067,-1.9143,-1.8982,-1.9454,-1.953,-1.9384,-1.9881,-2.0043,-1.9896,-2.0189,-2.0437,-2.066,-2.0403,-2.0446,-2.0651,-2.0394,-2.0292,-2.0292,-2.0292,-2.0377,-2.0472,-2.0335,-2.0377,-2.0417,-1.9962,-1.982,-1.9729,-1.9401,-1.9009,-1.8721,-1.8954,-1.8852,-1.8592,-1.8454,-1.8247,-1.8394,-1.9539,-1.9235,-1.8975,-2.0107,-2.055,-2.0752,-2.0913,-2.0126,-1.9406,-1.9238,-1.8177,-1.801,-1.9926,-1.9322,-1.8923,-1.9694,-1.9797,-1.9383,-1.8185,-1.7377,-1.7088,-1.7596,-1.6445,-1.6296,-1.7584,-1.7232,-1.7072,-1.725,-1.7198,-1.662,-1.533,-1.594,-1.6774,-1.7809,-1.8133,-1.8465,-1.8788,-1.8465,-1.8465,0.0,0.0,0.0,0.0,0.0,0.0,0.0,0.0,0.0,0.0,0.0,0.0,0.0,0.0,0.0,0.0,0.0,0.0,0.0,0.0,0.0,0.0,0.0,0.0,0.0,0.0,0.0,0.0,0.0,-1.8716,-1.9127,-1.8742,-1.8628,-1.8844,-1.8519,-1.851,-1.8852,-1.905,-1.8968,-1.8579,-1.921,-1.9557,-1.9665,-1.9691,-1.9896,-2.0275,-2.0283,-2.0292,-2.0292,-2.0292,-2.0292,-2.0292,-2.0292,-2.0292,-2.0292,-2.0292,-2.0531,-2.0759,-2.0374,-2.0494,-2.0564,-1.9184,-1.8742,-1.8557,-1.7623,-1.7296,-1.7374,-1.8057,-1.8205,-1.8117,-1.7682,-1.673,-1.6199,-1.7318,-1.7575,-1.7877,-1.8916,-1.9124,-1.9211,-1.9676,-1.8551,-1.7669,-1.799,-1.6854,-1.6311,-1.7424,-1.7582,-1.7582,-1.7582,-1.7582,-1.716,-1.5998,-1.5662,-1.5505,-1.5539,-1.5908,-1.6337,-1.6753,-1.7026,-1.6971,-1.6385,-1.5959,-1.5283,-1.4346,-1.4346,-1.4813,-1.5751,-1.6781,-1.6781,-1.5893,-1.6821,-1.7762,-1.3511,0.0,0.0,0.0,0.0,0.0,0.0,0.0,0.0,0.0,0.0,0.0,0.0,0.0,0.0,0.0,0.0,0.0,0.0,0.0,0.0,0.0,0.0,0.0,0.0,0.0,0.0,0.0,-1.7883,-1.7746,-1.7552,-1.7441,-1.7458,-1.7644,-1.7578,-1.7708,-1.8109,-1.8149,-1.8169,-1.8153,-1.8645,-1.8886,-1.8922,-1.9443,-1.9751,-1.9862,-2.0172,-2.0292,-2.0292,-2.0292,-2.0292,-2.0292,-2.0292,-2.0292,-2.0292,-2.0292,-1.9895,-1.9347,-1.925,-1.8813,-1.8217,-1.7839,-1.7716,-1.7662,-1.739,-1.6774,-1.6251,-1.6423,-1.6261,-1.6024,-1.6274,-1.6577,-1.699,-1.7476,-1.746,-1.7464,-1.7948,-1.7411,-1.7113,-1.8046,-1.7205,-1.6389,-1.6511,-1.6147,-1.6311,-1.7424,-1.7582,-1.7582,-1.7582,-1.7582,-1.716,-1.5998,-1.5825,-1.5934,-1.6246,-1.5727,-1.5688,-1.6337,-1.5586,-1.513,-1.5189,-1.4872,-1.458,-1.4298,-1.4997,-1.514,-1.4717,-1.5704,-1.6452,-1.6875,-1.6405,-1.5981,0.0,0.0,0.0,0.0,0.0,0.0,-1.322,-1.3356,0.0,0.0,0.0,0.0,0.0,0.0,0.0,0.0,0.0,0.0,0.0,0.0,0.0,0.0,0.0,0.0,0.0,0.0,0.0,-1.7235,-1.7235,-1.7141,-1.6889,-1.688,-1.7032,-1.7325,-1.7325,-1.7476,-1.782,-1.7988,-1.8026,-1.7937,-1.8307,-1.8566,-1.8605,-1.9222,-1.959,-1.9717,-2.0129,-2.0056,-1.9683,-1.9683,-1.9827,-2.0078,-2.0232,-1.9963,-1.943,-1.9625,-1.9026,-1.818,-1.818,-1.7809,-1.725,-1.6828,-1.6687,-1.6593,-1.617,-1.5656,-1.5213,-1.5294,-1.5214,-1.5179,-1.5487,-1.5956,-1.6414,-1.6651,-1.6587,-1.6542,-1.6831,-1.6365,-1.6099,-1.6736,-1.6365,-1.5891,-1.5891,-1.5891,-1.6152,-1.6789,-1.6895,-1.6895,-1.6895,-1.6895,-1.663,-1.5992,-1.5692,-1.5692,-1.5929,-1.5239,-1.4949,-1.536,-1.472,-1.437,-1.4533,-1.4383,-1.4298,-1.4298,-1.486,-1.4908,-1.4298,-1.533,-1.5893,-1.6028,-1.5466,-1.5092,0.0,0.0,0.0,0.0,0.0,0.0,-1.3125,-1.328,-1.3502,0.0,0.0,0.0,0.0,0.0,0.0,0.0,0.0,0.0,0.0,0.0,0.0,0.0,0.0,0.0,0.0,-1.6764,-1.679,-1.679,-1.6798,-1.6781,-1.6693,-1.6693,-1.6897,-1.7314,-1.7316,-1.7399,-1.7702,-1.8024,-1.8065,-1.7804,-1.8135,-1.8389,-1.8596,-1.899,-1.9316,-1.9657,-1.9928,-1.9538,-1.8732,-1.864,-1.8899,-1.9474,-1.9839,-1.9212,-1.8149,-1.8493,-1.7994,-1.7109,-1.7109,-1.7063,-1.6828,-1.5934,-1.5609,-1.5466,-1.458,-1.4298,-1.4358,-1.4636,-1.4883,-1.5071,-1.5101,-1.5107,-1.5173,-1.5439,-1.5499,-1.5572,-1.5831,-1.5891,-1.5891,-1.5891,-1.5891,-1.5891,-1.5891,-1.5891,-1.5891,-1.5891,-1.5891,-1.5891,-1.5891,-1.5891,-1.5879,-1.5849,-1.5457,-1.5167,-1.5113,-1.4666,-1.4377,-1.4346,-1.4316,-1.4298,-1.4298,-1.4298,-1.4298,-1.4298,-1.4298,-1.4298,-1.4298,-1.5188,-1.5188,-1.4298,-1.4298,-1.4765,0.0,0.0,0.0,0.0,0.0,0.0,-1.3562,-1.3459,-1.3425,0.0,0.0,0.0,0.0,0.0,0.0,0.0,0.0,0.0,0.0,0.0,0.0,0.0,0.0,0.0,0.0,-1.6034,-1.6172,-1.6172,-1.6082,-1.5882,-1.5566,-1.5548,-1.5791,-1.635,-1.6062,-1.6272,-1.7061,-1.7003,-1.7252,-1.7796,-1.7709,-1.8009,-1.8588,-1.8665,-1.8913,-1.9247,-1.8586,-1.829,-1.8247,-1.7553,-1.7492,-1.7772,-1.7832,-1.7725,-1.7494,-1.7554,-1.6969,-1.6075,-1.6075,-1.5561,-1.486,-1.4675,-1.458,-1.458,-1.4346,-1.4298,-1.4358,-1.4636,-1.4751,-1.4841,-1.5052,-1.5107,-1.5173,-1.5439,-1.5499,-1.5572,-1.5831,-1.5891,-1.5891,-1.5891,-1.5891,-1.5891,-1.5891,-1.5891,-1.5891,-1.5891,-1.5891,-1.5891,-1.5891,-1.5891,-1.5807,-1.5596,-1.5674,-1.5565,-1.5143,-1.501,-1.4859,-1.4648,-1.4425,-1.4298,-1.4298,-1.4298,-1.4298,-1.4298,-1.4298,-1.4298,-1.4298,-1.4484,-1.4484,-1.4298,-1.4298,-1.4394,0.0,0.0,0.0,-1.3554,0.0,0.0,0.0,-1.3245,-1.3194,0.0,0.0,0.0,0.0,0.0,0.0,0.0,0.0,0.0,0.0,0.0,0.0,0.0,0.0,0.0,0.0,-1.5406,-1.5511,-1.5477,-1.5334,-1.5163,-1.4958,-1.4949,-1.5222,-1.5774,-1.5599,-1.5843,-1.659,-1.6613,-1.68,-1.7191,-1.6929,-1.702,-1.7335,-1.7273,-1.736,-1.7544,-1.7001,-1.664,-1.6351,-1.5698,-1.5425,-1.5514,-1.6781,-1.6876,-1.6297,-1.649,-1.5934,-1.4997,-1.4765,-1.434,-1.3919,-1.3919,-1.3919,-1.3968,-1.4202,-1.4298,-1.4328,-1.4467,-1.4606,-1.4714,-1.4702,-1.4902,-1.5143,-1.5276,-1.5403,-1.5467,-1.5459,-1.5464,-1.5357,-1.5083,-1.503,-1.5244,-1.5785,-1.5891,-1.5891,-1.5891,-1.5891,-1.5891,-1.5891,-1.5891,-1.5843,-1.5704,-1.5578,-1.5396,-1.5131,-1.4859,-1.4648,-1.4515,-1.4377,-1.4298,-1.4298,-1.4298,-1.4298,-1.4298,-1.4298,-1.4298,-1.4298,-1.4298,-1.4298,-1.4298,-1.4298,-1.4298,0.0,0.0,0.0,0.0,0.0,-1.3301,0.0,0.0,0.0,-1.3017,0.0,0.0,0.0,0.0,0.0,0.0,0.0,0.0,0.0,0.0,0.0,0.0,0.0,0.0,0.0,-1.4883,-1.4936,-1.4798,-1.4722,-1.4682,-1.4572,-1.4572,-1.481,-1.5323,-1.5254,-1.5426,-1.5826,-1.6005,-1.6129,-1.6096,-1.5869,-1.5842,-1.5927,-1.5789,-1.5752,-1.5774,-1.5416,-1.4941,-1.4303,-1.3707,-1.3397,-1.3507,-1.5623,-1.5792,-1.4933,-1.5199,-1.4765,-1.3962,-1.3684,-1.3539,-1.3539,-1.363,-1.3588,-1.3539,-1.3919,-1.401,-1.401,-1.401,-1.4169,-1.4288,-1.4069,-1.4365,-1.4725,-1.4725,-1.492,-1.507,-1.4862,-1.4807,-1.4657,-1.4266,-1.4223,-1.4487,-1.5405,-1.5565,-1.5565,-1.5565,-1.5672,-1.5731,-1.5731,-1.579,-1.5813,-1.5813,-1.539,-1.5107,-1.5107,-1.466,-1.4377,-1.4377,-1.4328,-1.4298,-1.4298,-1.4298,-1.4298,-1.4298,-1.4298,-1.4298,-1.4298,-1.4298,-1.4298,-1.4298,-1.4298,-1.4298,0.0,0.0,0.0,0.0,-1.4007,0.0,0.0,0.0,-1.3357,-1.3069,0.0,0.0,0.0,0.0,0.0,0.0,0.0,0.0,0.0,0.0,0.0,0.0,0.0,0.0,0.0,0.0,-1.4581,-1.4383,-1.4575,-1.453,-1.4179,-1.4161,-1.4373,-1.4768,-1.4442,-1.4231,-1.4181,-1.432,-1.43,-1.4204,-1.447,-1.4862,-1.5385,-1.518,-1.5222,-1.5362,-1.3946,-1.3386,-1.3466,-1.2388,-1.2169,-1.2594,-1.3101,-1.3463,-1.3686,-1.3468,-1.3238,-1.3055,-1.3642,-1.369,-1.3588,-1.4058,-1.3871,-1.3443,-1.3098,-1.2953,-1.2953,-1.2953,-1.2975,-1.2991,-1.2964,-1.3199,-1.3402,-1.3402,-1.3583,-1.3767,-1.3972,-1.4026,-1.4086,-1.4186,-1.4223,-1.4223,-1.4385,-1.4379,-1.4379,-1.4379,-1.4821,-1.5095,-1.5095,-1.537,-1.5547,-1.5547,-1.5282,-1.5107,-1.5107,-1.4835,-1.4666,-1.4666,-1.4437,-1.4298,-1.4298,-1.4298,-1.4298,-1.4298,-1.4298,-1.4298,-1.4298,-1.4298,-1.4298,-1.4298,-1.4298,-1.4298,0.0,0.0,0.0,0.0,0.0,0.0,-1.3212,0.0,-1.316,0.0,0.0,0.0,0.0,0.0,0.0,0.0,0.0,0.0,0.0,0.0,0.0,0.0,0.0,0.0,0.0,0.0,0.0,0.0,0.0,-1.3461,-1.2899,-1.3071,-1.3162,-1.3202,-1.3035,-1.2987,-1.3104,-1.315,-1.3098,-1.2924,-1.2761,-1.2922,-1.326,-1.2861,-1.2788,-1.2978,-1.2297,-1.2016,-1.1987,-1.1604,-1.1621,-1.1827,-1.1744,-1.2416,-1.3539,-1.3727,-1.3721,-1.363,-1.3346,-1.3201,-1.3098,-1.2996,-1.2996,-1.3055,-1.2861,-1.2813,-1.2813,-1.2813,-1.291,-1.2986,-1.2845,-1.3083,-1.3326,-1.3241,-1.3337,-1.3467,-1.3399,-1.3398,-1.3307,-1.3205,-1.3142,-1.3142,-1.3142,-1.4008,-1.4654,-1.4654,-1.5143,-1.541,-1.5035,-1.5294,-1.5395,-1.503,-1.4928,-1.4877,-1.4877,-1.463,-1.4473,-1.4473,-1.4358,-1.4298,-1.4298,-1.4298,-1.4298,-1.4298,-1.4298,-1.4298,-1.4298,-1.4298,-1.4298,-1.4298,-1.4298,-1.4298,-1.3558,0.0,0.0,0.0,0.0,0.0,0.0,0.0,0.0,0.0,0.0,0.0,0.0,0.0,0.0,0.0,0.0,0.0,0.0,0.0,0.0,0.0,0.0,0.0,0.0,0.0,0.0,-1.2381,-1.2541,-1.2448,-1.2033,-1.2272,-1.2343,-1.2219,-1.2292,-1.2241,-1.2054,-1.2221,-1.2123,-1.1786,-1.1588,-1.1594,-1.1799,-1.129,-1.12,-1.1358,-1.1214,-1.0994,-1.0805,-1.0977,-1.1065,-1.1095,-1.1053,-1.1827,-1.3052,-1.3431,-1.3561,-1.3474,-1.305,-1.2856,-1.2759,-1.2175,-1.2273,-1.2565,-1.2419,-1.237,-1.237,-1.237,-1.249,-1.2628,-1.2412,-1.261,-1.2814,-1.2702,-1.2741,-1.2837,-1.2715,-1.2626,-1.2528,-1.2429,-1.234,-1.2321,-1.2372,-1.3467,-1.4277,-1.4277,-1.4821,-1.5007,-1.4511,-1.4716,-1.4769,-1.4348,-1.4217,-1.4242,-1.4461,-1.4121,-1.3962,-1.4058,-1.4202,-1.4298,-1.4298,-1.4298,-1.4298,-1.4298,-1.4298,-1.4298,-1.4298,-1.4298,-1.4298,-1.4298,-1.4298,-1.4298,0.0,0.0,0.0,-1.3235,0.0,0.0,0.0,0.0,-1.3956,0.0,0.0,0.0,0.0,0.0,0.0,0.0,0.0,0.0,0.0,0.0,0.0,0.0,0.0,0.0,0.0,0.0,0.0,-1.1863,-1.17,-1.1776,-1.2068,-1.21,-1.223,-1.2489,-1.2743,-1.2263,-1.0976,-1.1459,-1.1394,-1.0737,-1.1274,-1.165,-1.188,-1.1467,-1.14,-1.1541,-1.0973,-1.0559,-1.0304,-1.0347,-1.0353,-1.0395,-1.1095,-1.1553,-1.1762,-1.1762,-1.175,-1.1829,-1.2759,-1.3098,-1.2953,-1.2224,-1.2029,-1.1932,-1.1389,-1.1243,-1.1243,-1.1243,-1.1252,-1.1252,-1.1243,-1.1257,-1.1262,-1.1257,-1.1262,-1.1375,-1.1737,-1.1676,-1.1718,-1.2269,-1.2227,-1.2161,-1.2354,-1.2441,-1.2495,-1.2495,-1.2985,-1.3288,-1.3118,-1.3366,-1.3537,-1.3515,-1.3149,-1.316,-1.3838,-1.3242,-1.3055,-1.3491,-1.4016,-1.4298,-1.4298,-1.4298,-1.4298,-1.4298,-1.4298,-1.4298,-1.4298,-1.4298,-1.4298,-1.4298,-1.4298,-1.4298,0.0,0.0,-1.1538,-1.2387,0.0,0.0,0.0,0.0,0.0,0.0,0.0,0.0,0.0,0.0,0.0,0.0,0.0,0.0,0.0,0.0,0.0,0.0,0.0,0.0,0.0,0.0,0.0,-1.0489,-1.0228,-0.9918,0.0,-1.0066,-1.0114,-0.9667,-1.0128,-1.0129,-0.9599,-0.9899,-0.9898,-0.9579,-0.9743,-0.9895,-0.9974,-1.0156,-1.0336,-1.058,-1.0931,-1.0895,-1.0598,-1.0852,-1.0812,-1.0607,-1.101,-1.1141,-1.1273,-1.2098,-1.2404,-1.237,-1.237,-1.2127,-1.178,-1.1536,-1.1487,-1.1438,-1.1247,-1.1194,-1.1194,-1.1194,-1.1194,-1.1194,-1.1194,-1.1194,-1.1194,-1.1194,-1.1194,-1.1274,-1.1557,-1.1567,-1.1619,-1.1959,-1.2034,-1.2109,-1.2175,-1.2189,-1.2397,-1.2911,-1.3527,-1.3654,-1.3055,-1.3293,-1.3298,-1.2779,-1.275,-1.2894,-1.3171,-1.2954,-1.3007,-1.3491,-1.3684,-1.3919,-1.4298,-1.4298,-1.4298,-1.4298,-1.4298,-1.4298,-1.4298,-1.4298,-1.4298,-1.4298,-1.4298,-1.4298,-1.1176,-1.0756,0.0,-1.133,-1.0896,0.0,-1.1361,0.0,0.0,0.0,0.0,0.0,0.0,0.0,0.0,0.0,0.0,0.0,0.0,-0.9958,0.0,0.0,0.0,0.0,0.0,0.0,-0.9891,-0.9183,-0.9072,-0.8891,0.0,0.0,-0.9023,-0.866,-0.9132,-0.9304,-0.9095,-0.9263,-0.939,-0.9544,-0.9397,-0.9438,-0.97,-0.9837,-1.0059,-1.037,-1.0936,-1.0987,-1.0727,-1.1079,-1.0987,-1.072,-1.098,-1.1,-1.1025,-1.2062,-1.2453,-1.2467,-1.2127,-1.1731,-1.134,-1.134,-1.1292,-1.1194,-1.1194,-1.1194,-1.1194,-1.1194,-1.1194,-1.1194,-1.1194,-1.1194,-1.1194,-1.1194,-1.1194,-1.1255,-1.1472,-1.1458,-1.1487,-1.1761,-1.1869,-1.1888,-1.1958,-1.1973,-1.2226,-1.2891,-1.3244,-1.3214,-1.267,-1.2775,-1.2618,-1.1964,-1.211,-1.2224,-1.2224,-1.2565,-1.2861,-1.2953,-1.3152,-1.3389,-1.3769,-1.3769,-1.381,-1.3848,-1.3815,-1.3815,-1.3848,-1.3815,-1.3769,-1.3769,-1.3769,-1.3769]}]]